Wetterdaten: Mittwoch, 06.12.2023
Datum Zeit Temp. I. Temp. A. Feuchte I. Feuchte A. Luftdruck Regen Wind Richtung Richtung Sonnenschein Solar Taupunkt Windchill Windböen
06.12.2023 00:00 21,7 °C 2,1 °C 47 % 92 % 1008,7 hPa 0,0 l/m² 4,3 km/h (1 Bft) O-SO 123 ° 0 min 0 W/m² 0,9 °C 2,1 °C 6,4 km/h (2 Bft)
06.12.2023 00:02 21,7 °C 2,1 °C 47 % 92 % 1008,6 hPa 0,0 l/m² 5,1 km/h (1 Bft) O 98 ° 0 min 0 W/m² 0,9 °C 2,1 °C 9,7 km/h (2 Bft)
06.12.2023 00:03 21,7 °C 2,1 °C 47 % 92 % 1008,6 hPa 0,0 l/m² 4,2 km/h (1 Bft) SO 126 ° 0 min 0 W/m² 0,9 °C 2,1 °C 4,8 km/h (1 Bft)
06.12.2023 00:05 21,7 °C 2,1 °C 47 % 92 % 1008,6 hPa 0,0 l/m² 2,7 km/h (1 Bft) O-SO 105 ° 0 min 0 W/m² 0,9 °C 2,1 °C 4,8 km/h (1 Bft)
06.12.2023 00:07 21,7 °C 2,1 °C 47 % 92 % 1008,6 hPa 0,0 l/m² 2,7 km/h (1 Bft) O-SO 113 ° 0 min 0 W/m² 0,9 °C 2,1 °C 4,8 km/h (1 Bft)
06.12.2023 00:09 21,7 °C 2,1 °C 47 % 92 % 1008,6 hPa 0,0 l/m² 3,6 km/h (1 Bft) O-SO 103 ° 0 min 0 W/m² 0,9 °C 2,1 °C 6,4 km/h (2 Bft)
06.12.2023 00:11 21,7 °C 2,1 °C 47 % 92 % 1008,6 hPa 0,0 l/m² 3,3 km/h (1 Bft) O-SO 113 ° 0 min 0 W/m² 0,9 °C 2,1 °C 6,4 km/h (2 Bft)
06.12.2023 00:12 21,7 °C 2,1 °C 47 % 92 % 1008,6 hPa 0,0 l/m² 3,4 km/h (1 Bft) O-SO 110 ° 0 min 0 W/m² 0,9 °C 2,1 °C 6,4 km/h (2 Bft)
06.12.2023 00:13 21,7 °C 2,2 °C 47 % 92 % 1008,6 hPa 0,0 l/m² 4,3 km/h (1 Bft) O-SO 108 ° 0 min 0 W/m² 1,0 °C 2,2 °C 9,7 km/h (2 Bft)
06.12.2023 00:15 21,7 °C 2,1 °C 47 % 92 % 1008,6 hPa 0,0 l/m² 3,6 km/h (1 Bft) O-SO 103 ° 0 min 0 W/m² 0,9 °C 2,1 °C 6,4 km/h (2 Bft)
06.12.2023 00:17 21,7 °C 2,1 °C 47 % 92 % 1008,6 hPa 0,0 l/m² 4,1 km/h (1 Bft) O-SO 104 ° 0 min 0 W/m² 0,9 °C 2,1 °C 6,4 km/h (2 Bft)
06.12.2023 00:19 21,7 °C 2,1 °C 47 % 92 % 1008,5 hPa 0,0 l/m² 4,1 km/h (1 Bft) O-SO 103 ° 0 min 0 W/m² 0,9 °C 2,1 °C 6,4 km/h (2 Bft)
06.12.2023 00:21 21,7 °C 2,1 °C 47 % 92 % 1008,5 hPa 0,0 l/m² 3,3 km/h (1 Bft) O-SO 109 ° 0 min 0 W/m² 0,9 °C 2,1 °C 4,8 km/h (1 Bft)
06.12.2023 00:22 21,7 °C 2,1 °C 47 % 92 % 1008,6 hPa 0,0 l/m² 3,2 km/h (1 Bft) O-SO 112 ° 0 min 0 W/m² 0,9 °C 2,1 °C 4,8 km/h (1 Bft)
06.12.2023 00:23 21,7 °C 2,1 °C 47 % 92 % 1008,6 hPa 0,0 l/m² 3,0 km/h (1 Bft) SO 124 ° 0 min 0 W/m² 0,9 °C 2,1 °C 4,8 km/h (1 Bft)
06.12.2023 00:25 21,7 °C 2,2 °C 47 % 92 % 1008,4 hPa 0,0 l/m² 3,8 km/h (1 Bft) O-SO 110 ° 0 min 0 W/m² 1,0 °C 2,2 °C 9,7 km/h (2 Bft)
06.12.2023 00:27 21,7 °C 2,1 °C 47 % 92 % 1008,4 hPa 0,0 l/m² 3,9 km/h (1 Bft) O-SO 102 ° 0 min 0 W/m² 0,9 °C 2,1 °C 4,8 km/h (1 Bft)
06.12.2023 00:29 21,7 °C 2,1 °C 47 % 92 % 1008,5 hPa 0,2 l/m² 3,0 km/h (1 Bft) O-SO 112 ° 0 min 0 W/m² 0,9 °C 2,1 °C 4,8 km/h (1 Bft)
06.12.2023 00:31 21,7 °C 2,2 °C 47 % 92 % 1008,4 hPa 0,0 l/m² 3,7 km/h (1 Bft) O-SO 112 ° 0 min 0 W/m² 1,0 °C 2,2 °C 6,4 km/h (2 Bft)
06.12.2023 00:32 21,7 °C 2,2 °C 47 % 92 % 1008,5 hPa 0,0 l/m² 3,5 km/h (1 Bft) O-SO 115 ° 0 min 0 W/m² 1,0 °C 2,2 °C 4,8 km/h (1 Bft)
06.12.2023 00:33 21,7 °C 2,2 °C 47 % 92 % 1008,5 hPa 0,0 l/m² 3,4 km/h (1 Bft) O-SO 104 ° 0 min 0 W/m² 1,0 °C 2,2 °C 4,8 km/h (1 Bft)
06.12.2023 00:35 21,7 °C 2,2 °C 47 % 92 % 1008,4 hPa 0,0 l/m² 2,7 km/h (1 Bft) SO 134 ° 0 min 0 W/m² 1,0 °C 2,2 °C 6,4 km/h (2 Bft)
06.12.2023 00:37 21,7 °C 2,2 °C 47 % 92 % 1008,4 hPa 0,0 l/m² 3,6 km/h (1 Bft) O-SO 106 ° 0 min 0 W/m² 1,0 °C 2,2 °C 8,0 km/h (2 Bft)
06.12.2023 00:39 21,7 °C 2,2 °C 47 % 92 % 1008,5 hPa 0,0 l/m² 1,6 km/h (1 Bft) SO 128 ° 0 min 0 W/m² 1,0 °C 2,2 °C 4,8 km/h (1 Bft)
06.12.2023 00:41 21,7 °C 2,2 °C 47 % 92 % 1008,4 hPa 0,0 l/m² 3,3 km/h (1 Bft) SO 125 ° 0 min 0 W/m² 1,0 °C 2,2 °C 6,4 km/h (2 Bft)
06.12.2023 00:42 21,7 °C 2,2 °C 47 % 92 % 1008,5 hPa 0,0 l/m² 2,5 km/h (1 Bft) O-SO 109 ° 0 min 0 W/m² 1,0 °C 2,2 °C 3,2 km/h (1 Bft)
06.12.2023 00:43 21,7 °C 2,2 °C 47 % 92 % 1008,5 hPa 0,0 l/m² 1,7 km/h (1 Bft) O-SO 117 ° 0 min 0 W/m² 1,0 °C 2,2 °C 3,2 km/h (1 Bft)
06.12.2023 00:45 21,7 °C 2,2 °C 47 % 92 % 1008,4 hPa 0,0 l/m² 2,5 km/h (1 Bft) O 101 ° 0 min 0 W/m² 1,0 °C 2,2 °C 4,8 km/h (1 Bft)
06.12.2023 00:47 21,7 °C 2,2 °C 47 % 92 % 1008,4 hPa 0,0 l/m² 0,7 km/h (0 Bft) O-SO 120 ° 0 min 0 W/m² 1,0 °C 2,2 °C 3,2 km/h (1 Bft)
06.12.2023 00:48 21,7 °C 2,2 °C 47 % 92 % 1008,5 hPa 0,0 l/m² 1,6 km/h (1 Bft) O-SO 117 ° 0 min 0 W/m² 1,0 °C 2,2 °C 3,2 km/h (1 Bft)
06.12.2023 00:50 21,7 °C 2,2 °C 47 % 92 % 1008,4 hPa 0,0 l/m² 0,9 km/h (0 Bft) O-SO 116 ° 0 min 0 W/m² 1,0 °C 2,2 °C 3,2 km/h (1 Bft)
06.12.2023 00:52 21,7 °C 2,3 °C 47 % 92 % 1008,4 hPa 0,0 l/m² 1,3 km/h (1 Bft) O 94 ° 0 min 0 W/m² 1,1 °C 2,3 °C 4,8 km/h (1 Bft)
06.12.2023 00:53 21,7 °C 2,3 °C 47 % 92 % 1008,4 hPa 0,0 l/m² 0,0 km/h (0 Bft) O 94 ° 0 min 0 W/m² 1,1 °C 2,3 °C 0,0 km/h (0 Bft)
06.12.2023 00:54 21,7 °C 2,3 °C 47 % 92 % 1008,5 hPa 0,0 l/m² 0,0 km/h (0 Bft) O 94 ° 0 min 0 W/m² 1,1 °C 2,3 °C 0,0 km/h (0 Bft)
06.12.2023 00:56 21,8 °C 2,3 °C 47 % 92 % 1008,4 hPa 0,0 l/m² 0,1 km/h (0 Bft) NO 41 ° 0 min 0 W/m² 1,1 °C 2,3 °C 1,6 km/h (1 Bft)
06.12.2023 00:58 21,7 °C 2,3 °C 47 % 92 % 1008,4 hPa 0,0 l/m² 0,8 km/h (0 Bft) NO 39 ° 0 min 0 W/m² 1,1 °C 2,3 °C 3,2 km/h (1 Bft)
06.12.2023 01:00 21,7 °C 2,3 °C 47 % 92 % 1008,5 hPa 0,0 l/m² 0,0 km/h (0 Bft) NO 39 ° 0 min 0 W/m² 1,1 °C 2,3 °C 0,0 km/h (0 Bft)
06.12.2023 01:02 21,7 °C 2,3 °C 47 % 92 % 1008,5 hPa 0,0 l/m² 0,0 km/h (0 Bft) NO 39 ° 0 min 0 W/m² 1,1 °C 2,3 °C 0,0 km/h (0 Bft)
06.12.2023 01:03 21,7 °C 2,3 °C 47 % 92 % 1008,5 hPa 0,0 l/m² 0,0 km/h (0 Bft) NO 39 ° 0 min 0 W/m² 1,1 °C 2,3 °C 0,0 km/h (0 Bft)
06.12.2023 01:04 21,7 °C 2,3 °C 47 % 92 % 1008,5 hPa 0,0 l/m² 0,0 km/h (0 Bft) NO 39 ° 0 min 0 W/m² 1,1 °C 2,3 °C 0,0 km/h (0 Bft)
06.12.2023 01:06 21,7 °C 2,3 °C 47 % 92 % 1008,4 hPa 0,0 l/m² 0,0 km/h (0 Bft) NO 39 ° 0 min 0 W/m² 1,1 °C 2,3 °C 0,0 km/h (0 Bft)
06.12.2023 01:08 21,7 °C 2,3 °C 47 % 92 % 1008,5 hPa 0,0 l/m² 0,4 km/h (0 Bft) NO 49 ° 0 min 0 W/m² 1,1 °C 2,3 °C 3,2 km/h (1 Bft)
06.12.2023 01:10 21,7 °C 2,3 °C 47 % 92 % 1008,4 hPa 0,2 l/m² 0,0 km/h (0 Bft) NO 49 ° 0 min 0 W/m² 1,1 °C 2,3 °C 1,6 km/h (1 Bft)
06.12.2023 01:12 21,7 °C 2,3 °C 47 % 92 % 1008,5 hPa 0,0 l/m² 0,0 km/h (0 Bft) NO 49 ° 0 min 0 W/m² 1,1 °C 2,3 °C 0,0 km/h (0 Bft)
06.12.2023 01:13 21,7 °C 2,2 °C 47 % 92 % 1008,5 hPa 0,0 l/m² 0,0 km/h (0 Bft) NO 49 ° 0 min 0 W/m² 1,0 °C 2,2 °C 0,0 km/h (0 Bft)
06.12.2023 01:14 21,7 °C 2,3 °C 47 % 92 % 1008,5 hPa 0,0 l/m² 0,0 km/h (0 Bft) NO 49 ° 0 min 0 W/m² 1,1 °C 2,3 °C 0,0 km/h (0 Bft)
06.12.2023 01:16 21,7 °C 2,3 °C 47 % 92 % 1008,5 hPa 0,0 l/m² 0,0 km/h (0 Bft) NO 49 ° 0 min 0 W/m² 1,1 °C 2,3 °C 0,0 km/h (0 Bft)
06.12.2023 01:18 21,7 °C 2,3 °C 47 % 92 % 1008,5 hPa 0,0 l/m² 0,0 km/h (0 Bft) NO 49 ° 0 min 0 W/m² 1,1 °C 2,3 °C 0,0 km/h (0 Bft)
06.12.2023 01:20 21,7 °C 2,2 °C 47 % 92 % 1008,5 hPa 0,0 l/m² 0,2 km/h (0 Bft) NO 49 ° 0 min 0 W/m² 1,0 °C 2,2 °C 1,6 km/h (1 Bft)
06.12.2023 01:22 21,7 °C 2,2 °C 47 % 92 % 1008,5 hPa 0,0 l/m² 0,2 km/h (0 Bft) NO 49 ° 0 min 0 W/m² 1,0 °C 2,2 °C 1,6 km/h (1 Bft)
06.12.2023 01:23 21,7 °C 2,2 °C 47 % 92 % 1008,5 hPa 0,0 l/m² 0,7 km/h (0 Bft) NO 49 ° 0 min 0 W/m² 1,0 °C 2,2 °C 1,6 km/h (1 Bft)
06.12.2023 01:24 21,7 °C 2,2 °C 47 % 92 % 1008,5 hPa 0,0 l/m² 0,1 km/h (0 Bft) NO 49 ° 0 min 0 W/m² 1,0 °C 2,2 °C 1,6 km/h (1 Bft)
06.12.2023 01:26 21,8 °C 2,2 °C 47 % 92 % 1008,5 hPa 0,0 l/m² 0,3 km/h (0 Bft) NO 49 ° 0 min 0 W/m² 1,0 °C 2,2 °C 1,6 km/h (1 Bft)
06.12.2023 01:28 21,7 °C 2,2 °C 47 % 92 % 1008,5 hPa 0,0 l/m² 0,5 km/h (0 Bft) NO 49 ° 0 min 0 W/m² 1,0 °C 2,2 °C 1,6 km/h (1 Bft)
06.12.2023 01:30 21,8 °C 2,2 °C 47 % 92 % 1008,5 hPa 0,0 l/m² 0,0 km/h (0 Bft) NO 49 ° 0 min 0 W/m² 1,0 °C 2,2 °C 0,0 km/h (0 Bft)
06.12.2023 01:32 21,7 °C 2,2 °C 47 % 92 % 1008,5 hPa 0,0 l/m² 0,0 km/h (0 Bft) NO 49 ° 0 min 0 W/m² 1,0 °C 2,2 °C 0,0 km/h (0 Bft)
06.12.2023 01:33 21,7 °C 2,2 °C 47 % 92 % 1008,5 hPa 0,0 l/m² 0,0 km/h (0 Bft) NO 49 ° 0 min 0 W/m² 1,0 °C 2,2 °C 0,0 km/h (0 Bft)
06.12.2023 01:34 21,7 °C 2,2 °C 47 % 92 % 1008,4 hPa 0,0 l/m² 0,9 km/h (0 Bft) NO 49 ° 0 min 0 W/m² 1,0 °C 2,2 °C 1,6 km/h (1 Bft)
06.12.2023 01:36 21,7 °C 2,2 °C 47 % 92 % 1008,5 hPa 0,0 l/m² 1,8 km/h (1 Bft) O 79 ° 0 min 0 W/m² 1,0 °C 2,2 °C 3,2 km/h (1 Bft)
06.12.2023 01:38 21,7 °C 2,2 °C 47 % 92 % 1008,4 hPa 0,0 l/m² 0,7 km/h (0 Bft) O 79 ° 0 min 0 W/m² 1,0 °C 2,2 °C 3,2 km/h (1 Bft)
06.12.2023 01:40 21,7 °C 2,2 °C 47 % 92 % 1008,4 hPa 0,0 l/m² 1,2 km/h (1 Bft) O-NO 61 ° 0 min 0 W/m² 1,0 °C 2,2 °C 3,2 km/h (1 Bft)
06.12.2023 01:42 21,7 °C 2,2 °C 47 % 92 % 1008,5 hPa 0,0 l/m² 1,1 km/h (1 Bft) O-NO 63 ° 0 min 0 W/m² 1,0 °C 2,2 °C 3,2 km/h (1 Bft)
06.12.2023 01:43 21,7 °C 2,1 °C 47 % 92 % 1008,5 hPa 0,0 l/m² 0,8 km/h (0 Bft) O-NO 63 ° 0 min 0 W/m² 0,9 °C 2,1 °C 1,6 km/h (1 Bft)
06.12.2023 01:44 21,7 °C 2,2 °C 47 % 92 % 1008,5 hPa 0,0 l/m² 0,2 km/h (0 Bft) O-NO 63 ° 0 min 0 W/m² 1,0 °C 2,2 °C 1,6 km/h (1 Bft)
06.12.2023 01:46 21,8 °C 2,1 °C 47 % 92 % 1008,4 hPa 0,0 l/m² 0,6 km/h (0 Bft) O-NO 63 ° 0 min 0 W/m² 0,9 °C 2,1 °C 1,6 km/h (1 Bft)
06.12.2023 01:48 21,7 °C 2,1 °C 47 % 92 % 1008,5 hPa 0,0 l/m² 0,5 km/h (0 Bft) O-NO 63 ° 0 min 0 W/m² 0,9 °C 2,1 °C 3,2 km/h (1 Bft)
06.12.2023 01:50 21,7 °C 2,1 °C 47 % 92 % 1008,6 hPa 0,0 l/m² 0,6 km/h (0 Bft) O-NO 63 ° 0 min 0 W/m² 0,9 °C 2,1 °C 3,2 km/h (1 Bft)
06.12.2023 01:52 21,7 °C 2,1 °C 47 % 92 % 1008,4 hPa 0,0 l/m² 0,8 km/h (0 Bft) O-NO 63 ° 0 min 0 W/m² 0,9 °C 2,1 °C 1,6 km/h (1 Bft)
06.12.2023 01:53 21,7 °C 2,1 °C 47 % 92 % 1008,4 hPa 0,0 l/m² 0,6 km/h (0 Bft) O-NO 63 ° 0 min 0 W/m² 0,9 °C 2,1 °C 1,6 km/h (1 Bft)
06.12.2023 01:54 21,7 °C 2,1 °C 47 % 92 % 1008,6 hPa 0,0 l/m² 2,0 km/h (1 Bft) O-NO 63 ° 0 min 0 W/m² 0,9 °C 2,1 °C 3,2 km/h (1 Bft)
06.12.2023 01:56 21,7 °C 2,1 °C 47 % 92 % 1008,5 hPa 0,2 l/m² 1,2 km/h (1 Bft) O-NO 61 ° 0 min 0 W/m² 0,9 °C 2,1 °C 4,8 km/h (1 Bft)
06.12.2023 01:58 21,7 °C 2,1 °C 47 % 92 % 1008,5 hPa 0,0 l/m² 0,0 km/h (0 Bft) O-NO 61 ° 0 min 0 W/m² 0,9 °C 2,1 °C 0,0 km/h (0 Bft)
06.12.2023 02:00 21,7 °C 2,1 °C 47 % 92 % 1008,5 hPa 0,0 l/m² 0,0 km/h (0 Bft) O-NO 61 ° 0 min 0 W/m² 0,9 °C 2,1 °C 0,0 km/h (0 Bft)
06.12.2023 02:02 21,7 °C 2,1 °C 47 % 92 % 1008,6 hPa 0,0 l/m² 0,0 km/h (0 Bft) O-NO 61 ° 0 min 0 W/m² 0,9 °C 2,1 °C 0,0 km/h (0 Bft)
06.12.2023 02:03 21,7 °C 2,1 °C 47 % 92 % 1008,6 hPa 0,0 l/m² 0,0 km/h (0 Bft) O-NO 61 ° 0 min 0 W/m² 0,9 °C 2,1 °C 0,0 km/h (0 Bft)
06.12.2023 02:04 21,7 °C 2,1 °C 47 % 92 % 1008,6 hPa 0,0 l/m² 0,0 km/h (0 Bft) O-NO 61 ° 0 min 0 W/m² 0,9 °C 2,1 °C 0,0 km/h (0 Bft)
06.12.2023 02:06 21,7 °C 2,1 °C 47 % 92 % 1008,6 hPa 0,0 l/m² 0,0 km/h (0 Bft) NO 54 ° 0 min 0 W/m² 0,9 °C 2,1 °C 0,0 km/h (0 Bft)
06.12.2023 02:08 21,7 °C 2,1 °C 47 % 92 % 1008,7 hPa 0,0 l/m² 0,0 km/h (0 Bft) N-NO 27 ° 0 min 0 W/m² 0,9 °C 2,1 °C 0,0 km/h (0 Bft)
06.12.2023 02:10 21,7 °C 2,1 °C 47 % 92 % 1008,7 hPa 0,0 l/m² 0,0 km/h (0 Bft) N-NO 27 ° 0 min 0 W/m² 0,9 °C 2,1 °C 0,0 km/h (0 Bft)
06.12.2023 02:12 21,7 °C 2,1 °C 47 % 92 % 1008,7 hPa 0,0 l/m² 0,0 km/h (0 Bft) N-NO 27 ° 0 min 0 W/m² 0,9 °C 2,1 °C 0,0 km/h (0 Bft)
06.12.2023 02:13 21,7 °C 2,1 °C 47 % 92 % 1008,7 hPa 0,0 l/m² 0,0 km/h (0 Bft) N-NO 27 ° 0 min 0 W/m² 0,9 °C 2,1 °C 0,0 km/h (0 Bft)
06.12.2023 02:14 21,7 °C 2,0 °C 47 % 92 % 1008,8 hPa 0,0 l/m² 0,0 km/h (0 Bft) N-NO 27 ° 0 min 0 W/m² 0,8 °C 2,0 °C 0,0 km/h (0 Bft)
06.12.2023 02:16 21,7 °C 2,1 °C 47 % 93 % 1008,7 hPa 0,0 l/m² 0,0 km/h (0 Bft) N-NO 27 ° 0 min 0 W/m² 1,1 °C 2,1 °C 0,0 km/h (0 Bft)
06.12.2023 02:18 21,7 °C 2,0 °C 47 % 93 % 1008,7 hPa 0,0 l/m² 0,0 km/h (0 Bft) N-NO 30 ° 0 min 0 W/m² 1,0 °C 2,0 °C 0,0 km/h (0 Bft)
06.12.2023 02:20 21,7 °C 2,1 °C 47 % 93 % 1008,8 hPa 0,0 l/m² 0,0 km/h (0 Bft) N-NO 29 ° 0 min 0 W/m² 1,1 °C 2,1 °C 0,0 km/h (0 Bft)
06.12.2023 02:22 21,7 °C 2,1 °C 47 % 93 % 1008,9 hPa 0,0 l/m² 0,0 km/h (0 Bft) N-NO 30 ° 0 min 0 W/m² 1,1 °C 2,1 °C 0,0 km/h (0 Bft)
06.12.2023 02:23 21,7 °C 2,0 °C 47 % 93 % 1008,9 hPa 0,0 l/m² 0,0 km/h (0 Bft) N-NO 30 ° 0 min 0 W/m² 1,0 °C 2,0 °C 0,0 km/h (0 Bft)
06.12.2023 02:24 21,7 °C 2,1 °C 47 % 93 % 1008,8 hPa 0,0 l/m² 0,0 km/h (0 Bft) N-NO 30 ° 0 min 0 W/m² 1,1 °C 2,1 °C 0,0 km/h (0 Bft)
06.12.2023 02:26 21,7 °C 2,1 °C 47 % 93 % 1008,8 hPa 0,0 l/m² 0,0 km/h (0 Bft) NO 38 ° 0 min 0 W/m² 1,1 °C 2,1 °C 0,0 km/h (0 Bft)
06.12.2023 02:28 21,7 °C 2,1 °C 47 % 93 % 1008,8 hPa 0,0 l/m² 0,0 km/h (0 Bft) NO 44 ° 0 min 0 W/m² 1,1 °C 2,1 °C 0,0 km/h (0 Bft)
06.12.2023 02:30 21,7 °C 2,0 °C 47 % 93 % 1008,8 hPa 0,0 l/m² 0,0 km/h (0 Bft) NO 44 ° 0 min 0 W/m² 1,0 °C 2,0 °C 0,0 km/h (0 Bft)
06.12.2023 02:32 21,7 °C 2,1 °C 47 % 93 % 1008,8 hPa 0,0 l/m² 0,0 km/h (0 Bft) NO 44 ° 0 min 0 W/m² 1,1 °C 2,1 °C 0,0 km/h (0 Bft)
06.12.2023 02:33 21,7 °C 2,0 °C 47 % 93 % 1008,8 hPa 0,2 l/m² 0,0 km/h (0 Bft) NO 44 ° 0 min 0 W/m² 1,0 °C 2,0 °C 0,0 km/h (0 Bft)
06.12.2023 02:34 21,7 °C 2,0 °C 47 % 93 % 1008,8 hPa 0,0 l/m² 0,0 km/h (0 Bft) NO 44 ° 0 min 0 W/m² 1,0 °C 2,0 °C 0,0 km/h (0 Bft)
06.12.2023 02:36 21,7 °C 2,0 °C 47 % 93 % 1008,8 hPa 0,0 l/m² 0,0 km/h (0 Bft) NO 44 ° 0 min 0 W/m² 1,0 °C 2,0 °C 0,0 km/h (0 Bft)
06.12.2023 02:38 21,7 °C 2,0 °C 47 % 93 % 1008,8 hPa 0,0 l/m² 0,0 km/h (0 Bft) NO 44 ° 0 min 0 W/m² 1,0 °C 2,0 °C 0,0 km/h (0 Bft)
06.12.2023 02:40 21,7 °C 2,0 °C 47 % 93 % 1008,7 hPa 0,0 l/m² 0,0 km/h (0 Bft) NO 44 ° 0 min 0 W/m² 1,0 °C 2,0 °C 0,0 km/h (0 Bft)
06.12.2023 02:42 21,7 °C 2,0 °C 47 % 93 % 1008,8 hPa 0,0 l/m² 0,0 km/h (0 Bft) NO 54 ° 0 min 0 W/m² 1,0 °C 2,0 °C 0,0 km/h (0 Bft)
06.12.2023 02:43 21,7 °C 1,9 °C 47 % 93 % 1008,8 hPa 0,0 l/m² 0,0 km/h (0 Bft) O-NO 68 ° 0 min 0 W/m² 0,9 °C 1,9 °C 0,0 km/h (0 Bft)
06.12.2023 02:44 21,7 °C 1,9 °C 47 % 93 % 1008,8 hPa 0,0 l/m² 0,0 km/h (0 Bft) O-NO 68 ° 0 min 0 W/m² 0,9 °C 1,9 °C 0,0 km/h (0 Bft)
06.12.2023 02:46 21,7 °C 1,9 °C 47 % 93 % 1008,8 hPa 0,0 l/m² 0,0 km/h (0 Bft) O-NO 68 ° 0 min 0 W/m² 0,9 °C 1,9 °C 0,0 km/h (0 Bft)
06.12.2023 02:48 21,7 °C 1,9 °C 47 % 93 % 1008,8 hPa 0,0 l/m² 0,0 km/h (0 Bft) O-NO 69 ° 0 min 0 W/m² 0,9 °C 1,9 °C 0,0 km/h (0 Bft)
06.12.2023 02:50 21,7 °C 1,9 °C 47 % 93 % 1008,7 hPa 0,0 l/m² 0,0 km/h (0 Bft) O-NO 70 ° 0 min 0 W/m² 0,9 °C 1,9 °C 0,0 km/h (0 Bft)
06.12.2023 02:52 21,7 °C 1,9 °C 47 % 93 % 1008,8 hPa 0,0 l/m² 0,0 km/h (0 Bft) O-NO 69 ° 0 min 0 W/m² 0,9 °C 1,9 °C 0,0 km/h (0 Bft)
06.12.2023 02:53 21,7 °C 1,9 °C 47 % 93 % 1008,8 hPa 0,0 l/m² 0,0 km/h (0 Bft) O-NO 69 ° 0 min 0 W/m² 0,9 °C 1,9 °C 0,0 km/h (0 Bft)
06.12.2023 02:54 21,7 °C 1,9 °C 47 % 93 % 1008,8 hPa 0,0 l/m² 0,0 km/h (0 Bft) O-NO 69 ° 0 min 0 W/m² 0,9 °C 1,9 °C 0,0 km/h (0 Bft)
06.12.2023 02:56 21,7 °C 1,9 °C 47 % 93 % 1008,8 hPa 0,0 l/m² 0,0 km/h (0 Bft) O-NO 69 ° 0 min 0 W/m² 0,9 °C 1,9 °C 0,0 km/h (0 Bft)
06.12.2023 02:58 21,7 °C 1,9 °C 47 % 93 % 1008,8 hPa 0,0 l/m² 0,0 km/h (0 Bft) O-NO 69 ° 0 min 0 W/m² 0,9 °C 1,9 °C 0,0 km/h (0 Bft)
06.12.2023 03:00 21,7 °C 1,9 °C 47 % 93 % 1008,8 hPa 0,0 l/m² 0,0 km/h (0 Bft) O-NO 68 ° 0 min 0 W/m² 0,9 °C 1,9 °C 0,0 km/h (0 Bft)
06.12.2023 03:01 21,7 °C 1,9 °C 47 % 93 % 1008,8 hPa 0,0 l/m² 0,0 km/h (0 Bft) N 0 ° 0 min 0 W/m² 0,9 °C 1,9 °C 0,0 km/h (0 Bft)
06.12.2023 03:07 21,7 °C 1,9 °C 47 % 93 % 1008,9 hPa 0,0 l/m² 0,0 km/h (0 Bft) NO 46 ° 0 min 0 W/m² 0,9 °C 1,9 °C 0,0 km/h (0 Bft)
06.12.2023 03:09 21,7 °C 1,9 °C 47 % 93 % 1008,9 hPa 0,0 l/m² 0,0 km/h (0 Bft) NO 51 ° 0 min 0 W/m² 0,9 °C 1,9 °C 0,0 km/h (0 Bft)
06.12.2023 03:10 21,6 °C 1,9 °C 47 % 93 % 1008,8 hPa 0,0 l/m² 0,0 km/h (0 Bft) NO 51 ° 0 min 0 W/m² 0,9 °C 1,9 °C 0,0 km/h (0 Bft)
06.12.2023 03:12 21,6 °C 1,9 °C 47 % 93 % 1008,7 hPa 0,0 l/m² 0,0 km/h (0 Bft) NO 51 ° 0 min 0 W/m² 0,9 °C 1,9 °C 0,0 km/h (0 Bft)
06.12.2023 03:13 21,7 °C 1,9 °C 47 % 93 % 1008,8 hPa 0,0 l/m² 0,0 km/h (0 Bft) NO 50 ° 0 min 0 W/m² 0,9 °C 1,9 °C 0,0 km/h (0 Bft)
06.12.2023 03:15 21,7 °C 1,9 °C 47 % 93 % 1008,8 hPa 0,0 l/m² 0,0 km/h (0 Bft) NO 40 ° 0 min 0 W/m² 0,9 °C 1,9 °C 0,0 km/h (0 Bft)
06.12.2023 03:17 21,6 °C 1,9 °C 47 % 93 % 1008,7 hPa 0,0 l/m² 0,0 km/h (0 Bft) NO 36 ° 0 min 0 W/m² 0,9 °C 1,9 °C 0,0 km/h (0 Bft)
06.12.2023 03:19 21,6 °C 1,9 °C 47 % 93 % 1008,7 hPa 0,0 l/m² 0,0 km/h (0 Bft) N-NO 26 ° 0 min 0 W/m² 0,9 °C 1,9 °C 0,0 km/h (0 Bft)
06.12.2023 03:20 21,6 °C 1,9 °C 47 % 93 % 1008,7 hPa 0,2 l/m² 0,0 km/h (0 Bft) N-NO 24 ° 0 min 0 W/m² 0,9 °C 1,9 °C 0,0 km/h (0 Bft)
06.12.2023 03:22 21,6 °C 1,9 °C 47 % 93 % 1008,8 hPa 0,0 l/m² 0,0 km/h (0 Bft) N-NO 24 ° 0 min 0 W/m² 0,9 °C 1,9 °C 0,0 km/h (0 Bft)
06.12.2023 03:23 21,6 °C 1,9 °C 47 % 93 % 1008,8 hPa 0,0 l/m² 0,0 km/h (0 Bft) N-NO 24 ° 0 min 0 W/m² 0,9 °C 1,9 °C 0,0 km/h (0 Bft)
06.12.2023 03:25 21,6 °C 1,9 °C 47 % 93 % 1008,8 hPa 0,0 l/m² 0,0 km/h (0 Bft) NO 47 ° 0 min 0 W/m² 0,9 °C 1,9 °C 0,0 km/h (0 Bft)
06.12.2023 03:27 21,6 °C 2,0 °C 47 % 93 % 1008,8 hPa 0,0 l/m² 0,0 km/h (0 Bft) NO 48 ° 0 min 0 W/m² 1,0 °C 2,0 °C 0,0 km/h (0 Bft)
06.12.2023 03:29 21,6 °C 2,0 °C 47 % 93 % 1008,8 hPa 0,0 l/m² 0,0 km/h (0 Bft) O-NO 66 ° 0 min 0 W/m² 1,0 °C 2,0 °C 0,0 km/h (0 Bft)
06.12.2023 03:30 21,6 °C 2,0 °C 47 % 93 % 1008,8 hPa 0,0 l/m² 0,0 km/h (0 Bft) O-NO 66 ° 0 min 0 W/m² 1,0 °C 2,0 °C 0,0 km/h (0 Bft)
06.12.2023 03:32 21,6 °C 1,9 °C 47 % 93 % 1008,7 hPa 0,0 l/m² 0,0 km/h (0 Bft) O-NO 67 ° 0 min 0 W/m² 0,9 °C 1,9 °C 0,0 km/h (0 Bft)
06.12.2023 03:33 21,6 °C 1,9 °C 47 % 93 % 1008,7 hPa 0,0 l/m² 0,0 km/h (0 Bft) O-NO 76 ° 0 min 0 W/m² 0,9 °C 1,9 °C 0,0 km/h (0 Bft)
06.12.2023 03:35 21,6 °C 1,8 °C 47 % 93 % 1008,8 hPa 0,0 l/m² 0,0 km/h (0 Bft) O-NO 78 ° 0 min 0 W/m² 0,8 °C 1,8 °C 0,0 km/h (0 Bft)
06.12.2023 03:37 21,6 °C 1,8 °C 47 % 93 % 1008,8 hPa 0,0 l/m² 0,0 km/h (0 Bft) O-NO 78 ° 0 min 0 W/m² 0,8 °C 1,8 °C 0,0 km/h (0 Bft)
06.12.2023 03:39 21,6 °C 1,7 °C 47 % 93 % 1008,8 hPa 0,0 l/m² 0,0 km/h (0 Bft) O-NO 78 ° 0 min 0 W/m² 0,7 °C 1,7 °C 0,0 km/h (0 Bft)
06.12.2023 03:40 21,6 °C 1,7 °C 47 % 93 % 1008,8 hPa 0,0 l/m² 0,0 km/h (0 Bft) O-NO 78 ° 0 min 0 W/m² 0,7 °C 1,7 °C 0,0 km/h (0 Bft)
06.12.2023 03:42 21,6 °C 1,7 °C 47 % 93 % 1008,8 hPa 0,0 l/m² 0,0 km/h (0 Bft) O-NO 78 ° 0 min 0 W/m² 0,7 °C 1,7 °C 0,0 km/h (0 Bft)
06.12.2023 03:43 21,6 °C 1,8 °C 47 % 93 % 1008,8 hPa 0,0 l/m² 0,0 km/h (0 Bft) O-NO 78 ° 0 min 0 W/m² 0,8 °C 1,8 °C 0,0 km/h (0 Bft)
06.12.2023 03:45 21,6 °C 1,7 °C 47 % 93 % 1008,8 hPa 0,0 l/m² 0,0 km/h (0 Bft) O-NO 78 ° 0 min 0 W/m² 0,7 °C 1,7 °C 0,0 km/h (0 Bft)
06.12.2023 03:46 21,6 °C 1,7 °C 47 % 93 % 1008,8 hPa 0,0 l/m² 0,0 km/h (0 Bft) O-NO 78 ° 0 min 0 W/m² 0,7 °C 1,7 °C 0,0 km/h (0 Bft)
06.12.2023 03:47 21,6 °C 1,7 °C 47 % 93 % 1008,8 hPa 0,0 l/m² 0,0 km/h (0 Bft) O-NO 78 ° 0 min 0 W/m² 0,7 °C 1,7 °C 0,0 km/h (0 Bft)
06.12.2023 03:48 21,6 °C 1,7 °C 47 % 93 % 1008,8 hPa 0,0 l/m² 0,0 km/h (0 Bft) O-NO 78 ° 0 min 0 W/m² 0,7 °C 1,7 °C 0,0 km/h (0 Bft)
06.12.2023 03:50 21,6 °C 1,7 °C 47 % 93 % 1008,8 hPa 0,0 l/m² 0,0 km/h (0 Bft) O-NO 78 ° 0 min 0 W/m² 0,7 °C 1,7 °C 0,0 km/h (0 Bft)
06.12.2023 03:51 21,6 °C 1,7 °C 47 % 93 % 1008,8 hPa 0,0 l/m² 0,0 km/h (0 Bft) O-NO 78 ° 0 min 0 W/m² 0,7 °C 1,7 °C 0,0 km/h (0 Bft)
06.12.2023 03:52 21,6 °C 1,7 °C 47 % 93 % 1008,8 hPa 0,0 l/m² 0,0 km/h (0 Bft) O-NO 78 ° 0 min 0 W/m² 0,7 °C 1,7 °C 0,0 km/h (0 Bft)
06.12.2023 03:54 21,6 °C 1,8 °C 47 % 93 % 1008,9 hPa 0,0 l/m² 0,0 km/h (0 Bft) O-NO 78 ° 0 min 0 W/m² 0,8 °C 1,8 °C 0,0 km/h (0 Bft)
06.12.2023 03:56 21,6 °C 1,8 °C 47 % 93 % 1008,8 hPa 0,0 l/m² 0,0 km/h (0 Bft) O-NO 78 ° 0 min 0 W/m² 0,8 °C 1,8 °C 0,0 km/h (0 Bft)
06.12.2023 03:58 21,6 °C 1,8 °C 47 % 93 % 1008,9 hPa 0,0 l/m² 0,0 km/h (0 Bft) O-NO 78 ° 0 min 0 W/m² 0,8 °C 1,8 °C 0,0 km/h (0 Bft)
06.12.2023 04:00 21,6 °C 1,8 °C 47 % 93 % 1008,8 hPa 0,0 l/m² 0,0 km/h (0 Bft) O-NO 78 ° 0 min 0 W/m² 0,8 °C 1,8 °C 0,0 km/h (0 Bft)
06.12.2023 04:01 21,6 °C 1,8 °C 47 % 93 % 1008,9 hPa 0,0 l/m² 0,0 km/h (0 Bft) O-NO 78 ° 0 min 0 W/m² 0,8 °C 1,8 °C 0,0 km/h (0 Bft)
06.12.2023 04:02 21,6 °C 1,8 °C 47 % 93 % 1008,8 hPa 0,0 l/m² 0,0 km/h (0 Bft) O-NO 78 ° 0 min 0 W/m² 0,8 °C 1,8 °C 0,0 km/h (0 Bft)
06.12.2023 04:03 21,6 °C 1,8 °C 47 % 93 % 1008,9 hPa 0,0 l/m² 0,0 km/h (0 Bft) O-NO 78 ° 0 min 0 W/m² 0,8 °C 1,8 °C 0,0 km/h (0 Bft)
06.12.2023 04:04 21,6 °C 1,8 °C 47 % 93 % 1008,8 hPa 0,0 l/m² 0,0 km/h (0 Bft) O-NO 78 ° 0 min 0 W/m² 0,8 °C 1,8 °C 0,0 km/h (0 Bft)
06.12.2023 04:06 21,6 °C 1,8 °C 47 % 93 % 1008,8 hPa 0,0 l/m² 0,0 km/h (0 Bft) O-NO 78 ° 0 min 0 W/m² 0,8 °C 1,8 °C 0,0 km/h (0 Bft)
06.12.2023 04:08 21,6 °C 1,8 °C 47 % 93 % 1008,8 hPa 0,0 l/m² 0,0 km/h (0 Bft) O-NO 78 ° 0 min 0 W/m² 0,8 °C 1,8 °C 0,0 km/h (0 Bft)
06.12.2023 04:10 21,6 °C 1,8 °C 47 % 93 % 1008,8 hPa 0,0 l/m² 0,0 km/h (0 Bft) O-NO 78 ° 0 min 0 W/m² 0,8 °C 1,8 °C 0,0 km/h (0 Bft)
06.12.2023 04:11 21,6 °C 1,8 °C 47 % 93 % 1008,8 hPa 0,0 l/m² 0,0 km/h (0 Bft) O-NO 78 ° 0 min 0 W/m² 0,8 °C 1,8 °C 0,0 km/h (0 Bft)
06.12.2023 04:12 21,6 °C 1,8 °C 47 % 93 % 1008,8 hPa 0,0 l/m² 0,0 km/h (0 Bft) O-NO 78 ° 0 min 0 W/m² 0,8 °C 1,8 °C 0,0 km/h (0 Bft)
06.12.2023 04:14 21,6 °C 1,8 °C 47 % 93 % 1008,8 hPa 0,0 l/m² 0,0 km/h (0 Bft) O-NO 78 ° 0 min 0 W/m² 0,8 °C 1,8 °C 0,0 km/h (0 Bft)
06.12.2023 04:16 21,6 °C 1,8 °C 47 % 93 % 1008,7 hPa 0,0 l/m² 0,0 km/h (0 Bft) O-NO 78 ° 0 min 0 W/m² 0,8 °C 1,8 °C 0,0 km/h (0 Bft)
06.12.2023 04:18 21,6 °C 1,8 °C 47 % 93 % 1008,7 hPa 0,0 l/m² 0,0 km/h (0 Bft) O-NO 78 ° 0 min 0 W/m² 0,8 °C 1,8 °C 0,0 km/h (0 Bft)
06.12.2023 04:20 21,6 °C 1,8 °C 47 % 93 % 1008,7 hPa 0,0 l/m² 0,0 km/h (0 Bft) O-NO 78 ° 0 min 0 W/m² 0,8 °C 1,8 °C 0,0 km/h (0 Bft)
06.12.2023 04:21 21,6 °C 1,8 °C 47 % 93 % 1008,7 hPa 0,2 l/m² 0,0 km/h (0 Bft) O-NO 78 ° 0 min 0 W/m² 0,8 °C 1,8 °C 0,0 km/h (0 Bft)
06.12.2023 04:22 21,6 °C 1,8 °C 47 % 93 % 1008,8 hPa 0,0 l/m² 0,0 km/h (0 Bft) O-NO 78 ° 0 min 0 W/m² 0,8 °C 1,8 °C 0,0 km/h (0 Bft)
06.12.2023 04:24 21,6 °C 1,8 °C 47 % 93 % 1008,7 hPa 0,0 l/m² 0,0 km/h (0 Bft) O-NO 78 ° 0 min 0 W/m² 0,8 °C 1,8 °C 0,0 km/h (0 Bft)
06.12.2023 04:26 21,6 °C 1,8 °C 47 % 93 % 1008,7 hPa 0,0 l/m² 0,0 km/h (0 Bft) O-NO 78 ° 0 min 0 W/m² 0,8 °C 1,8 °C 0,0 km/h (0 Bft)
06.12.2023 04:28 21,6 °C 1,8 °C 47 % 93 % 1008,7 hPa 0,0 l/m² 0,0 km/h (0 Bft) O-NO 78 ° 0 min 0 W/m² 0,8 °C 1,8 °C 0,0 km/h (0 Bft)
06.12.2023 04:30 21,6 °C 1,8 °C 47 % 93 % 1008,7 hPa 0,0 l/m² 0,0 km/h (0 Bft) O-NO 78 ° 0 min 0 W/m² 0,8 °C 1,8 °C 0,0 km/h (0 Bft)
06.12.2023 04:31 21,6 °C 1,8 °C 47 % 93 % 1008,7 hPa 0,0 l/m² 0,0 km/h (0 Bft) O-NO 78 ° 0 min 0 W/m² 0,8 °C 1,8 °C 0,0 km/h (0 Bft)
06.12.2023 04:32 21,6 °C 1,8 °C 47 % 93 % 1008,7 hPa 0,0 l/m² 0,0 km/h (0 Bft) O-NO 78 ° 0 min 0 W/m² 0,8 °C 1,8 °C 0,0 km/h (0 Bft)
06.12.2023 04:34 21,6 °C 1,8 °C 47 % 93 % 1008,7 hPa 0,0 l/m² 0,0 km/h (0 Bft) O-NO 78 ° 0 min 0 W/m² 0,8 °C 1,8 °C 0,0 km/h (0 Bft)
06.12.2023 04:36 21,6 °C 1,8 °C 47 % 93 % 1008,7 hPa 0,0 l/m² 0,0 km/h (0 Bft) O-NO 78 ° 0 min 0 W/m² 0,8 °C 1,8 °C 0,0 km/h (0 Bft)
06.12.2023 04:38 21,6 °C 1,8 °C 47 % 93 % 1008,7 hPa 0,0 l/m² 0,0 km/h (0 Bft) O-NO 78 ° 0 min 0 W/m² 0,8 °C 1,8 °C 0,0 km/h (0 Bft)
06.12.2023 04:40 21,6 °C 1,8 °C 47 % 93 % 1008,7 hPa 0,0 l/m² 0,0 km/h (0 Bft) O-NO 78 ° 0 min 0 W/m² 0,8 °C 1,8 °C 0,0 km/h (0 Bft)
06.12.2023 04:41 21,6 °C 1,8 °C 47 % 93 % 1008,7 hPa 0,0 l/m² 0,0 km/h (0 Bft) O-NO 78 ° 0 min 0 W/m² 0,8 °C 1,8 °C 0,0 km/h (0 Bft)
06.12.2023 04:42 21,6 °C 1,8 °C 47 % 93 % 1008,7 hPa 0,0 l/m² 0,0 km/h (0 Bft) O-NO 78 ° 0 min 0 W/m² 0,8 °C 1,8 °C 0,0 km/h (0 Bft)
06.12.2023 04:44 21,6 °C 1,8 °C 47 % 93 % 1008,7 hPa 0,0 l/m² 0,0 km/h (0 Bft) O-NO 78 ° 0 min 0 W/m² 0,8 °C 1,8 °C 0,0 km/h (0 Bft)
06.12.2023 04:46 21,6 °C 1,8 °C 47 % 93 % 1008,7 hPa 0,0 l/m² 0,0 km/h (0 Bft) O-NO 78 ° 0 min 0 W/m² 0,8 °C 1,8 °C 0,0 km/h (0 Bft)
06.12.2023 04:48 21,6 °C 1,8 °C 47 % 93 % 1008,8 hPa 0,0 l/m² 0,0 km/h (0 Bft) O-NO 78 ° 0 min 0 W/m² 0,8 °C 1,8 °C 0,0 km/h (0 Bft)
06.12.2023 04:50 21,6 °C 1,8 °C 47 % 93 % 1008,8 hPa 0,0 l/m² 0,0 km/h (0 Bft) O-NO 78 ° 0 min 0 W/m² 0,8 °C 1,8 °C 0,0 km/h (0 Bft)
06.12.2023 04:51 21,6 °C 1,8 °C 47 % 93 % 1008,8 hPa 0,0 l/m² 0,0 km/h (0 Bft) O-NO 78 ° 0 min 0 W/m² 0,8 °C 1,8 °C 0,0 km/h (0 Bft)
06.12.2023 04:52 21,6 °C 1,8 °C 47 % 93 % 1008,8 hPa 0,0 l/m² 0,0 km/h (0 Bft) O-NO 78 ° 0 min 0 W/m² 0,8 °C 1,8 °C 0,0 km/h (0 Bft)
06.12.2023 04:53 21,6 °C 1,8 °C 47 % 93 % 1008,8 hPa 0,0 l/m² 0,0 km/h (0 Bft) O-NO 78 ° 0 min 0 W/m² 0,8 °C 1,8 °C 0,0 km/h (0 Bft)
06.12.2023 04:54 21,6 °C 1,8 °C 47 % 93 % 1008,8 hPa 0,0 l/m² 0,0 km/h (0 Bft) O-NO 78 ° 0 min 0 W/m² 0,8 °C 1,8 °C 0,0 km/h (0 Bft)
06.12.2023 04:55 21,6 °C 1,7 °C 47 % 93 % 1008,8 hPa 0,0 l/m² 0,0 km/h (0 Bft) O-NO 78 ° 0 min 0 W/m² 0,7 °C 1,7 °C 0,0 km/h (0 Bft)
06.12.2023 04:57 21,6 °C 1,7 °C 47 % 93 % 1008,7 hPa 0,0 l/m² 0,0 km/h (0 Bft) O-NO 78 ° 0 min 0 W/m² 0,7 °C 1,7 °C 0,0 km/h (0 Bft)
06.12.2023 04:59 21,6 °C 1,7 °C 47 % 93 % 1008,7 hPa 0,0 l/m² 0,0 km/h (0 Bft) O-NO 78 ° 0 min 0 W/m² 0,7 °C 1,7 °C 0,0 km/h (0 Bft)
06.12.2023 05:00 21,6 °C 1,7 °C 47 % 93 % 1008,7 hPa 0,0 l/m² 0,0 km/h (0 Bft) O-NO 78 ° 0 min 0 W/m² 0,7 °C 1,7 °C 0,0 km/h (0 Bft)
06.12.2023 05:02 21,6 °C 1,7 °C 47 % 93 % 1008,8 hPa 0,2 l/m² 0,0 km/h (0 Bft) O-NO 78 ° 0 min 0 W/m² 0,7 °C 1,7 °C 0,0 km/h (0 Bft)
06.12.2023 05:03 21,6 °C 1,7 °C 47 % 93 % 1008,8 hPa 0,0 l/m² 0,0 km/h (0 Bft) O-NO 78 ° 0 min 0 W/m² 0,7 °C 1,7 °C 0,0 km/h (0 Bft)
06.12.2023 05:05 21,6 °C 1,7 °C 47 % 93 % 1008,8 hPa 0,0 l/m² 0,0 km/h (0 Bft) O-NO 78 ° 0 min 0 W/m² 0,7 °C 1,7 °C 0,0 km/h (0 Bft)
06.12.2023 05:06 21,6 °C 1,7 °C 47 % 93 % 1008,8 hPa 0,0 l/m² 0,0 km/h (0 Bft) O-NO 78 ° 0 min 0 W/m² 0,7 °C 1,7 °C 0,0 km/h (0 Bft)
06.12.2023 05:08 21,6 °C 1,7 °C 47 % 93 % 1008,8 hPa 0,0 l/m² 0,0 km/h (0 Bft) O-NO 78 ° 0 min 0 W/m² 0,7 °C 1,7 °C 0,0 km/h (0 Bft)
06.12.2023 05:10 21,6 °C 1,7 °C 47 % 93 % 1008,8 hPa 0,0 l/m² 0,0 km/h (0 Bft) O-NO 78 ° 0 min 0 W/m² 0,7 °C 1,7 °C 0,0 km/h (0 Bft)
06.12.2023 05:11 21,6 °C 1,7 °C 47 % 93 % 1008,8 hPa 0,0 l/m² 0,0 km/h (0 Bft) O-NO 78 ° 0 min 0 W/m² 0,7 °C 1,7 °C 0,0 km/h (0 Bft)
06.12.2023 05:12 21,6 °C 1,7 °C 47 % 93 % 1008,8 hPa 0,0 l/m² 0,0 km/h (0 Bft) O-NO 78 ° 0 min 0 W/m² 0,7 °C 1,7 °C 0,0 km/h (0 Bft)
06.12.2023 05:14 21,6 °C 1,7 °C 47 % 93 % 1008,8 hPa 0,0 l/m² 0,0 km/h (0 Bft) O-NO 78 ° 0 min 0 W/m² 0,7 °C 1,7 °C 0,0 km/h (0 Bft)
06.12.2023 05:16 21,6 °C 1,7 °C 47 % 94 % 1008,8 hPa 0,0 l/m² 0,0 km/h (0 Bft) O-NO 78 ° 0 min 0 W/m² 0,8 °C 1,7 °C 0,0 km/h (0 Bft)
06.12.2023 05:18 21,7 °C 1,7 °C 47 % 93 % 1008,9 hPa 0,0 l/m² 0,0 km/h (0 Bft) O-NO 78 ° 0 min 0 W/m² 0,7 °C 1,7 °C 0,0 km/h (0 Bft)
06.12.2023 05:20 21,6 °C 1,7 °C 47 % 93 % 1008,9 hPa 0,0 l/m² 0,0 km/h (0 Bft) O-NO 78 ° 0 min 0 W/m² 0,7 °C 1,7 °C 0,0 km/h (0 Bft)
06.12.2023 05:21 21,6 °C 1,7 °C 47 % 93 % 1008,9 hPa 0,0 l/m² 0,0 km/h (0 Bft) O-NO 78 ° 0 min 0 W/m² 0,7 °C 1,7 °C 0,0 km/h (0 Bft)
06.12.2023 05:22 21,6 °C 1,7 °C 47 % 93 % 1008,9 hPa 0,0 l/m² 0,0 km/h (0 Bft) O-NO 78 ° 0 min 0 W/m² 0,7 °C 1,7 °C 0,0 km/h (0 Bft)
06.12.2023 05:23 21,6 °C 1,7 °C 47 % 93 % 1008,9 hPa 0,0 l/m² 0,0 km/h (0 Bft) O-NO 78 ° 0 min 0 W/m² 0,7 °C 1,7 °C 0,0 km/h (0 Bft)
06.12.2023 05:24 21,6 °C 1,7 °C 47 % 93 % 1008,9 hPa 0,0 l/m² 0,0 km/h (0 Bft) O-NO 78 ° 0 min 0 W/m² 0,7 °C 1,7 °C 0,0 km/h (0 Bft)
06.12.2023 05:26 21,6 °C 1,7 °C 47 % 94 % 1009,0 hPa 0,0 l/m² 0,0 km/h (0 Bft) O-NO 78 ° 0 min 0 W/m² 0,8 °C 1,7 °C 0,0 km/h (0 Bft)
06.12.2023 05:28 21,6 °C 1,7 °C 47 % 94 % 1008,9 hPa 0,0 l/m² 0,0 km/h (0 Bft) O-NO 78 ° 0 min 0 W/m² 0,8 °C 1,7 °C 0,0 km/h (0 Bft)
06.12.2023 05:30 21,6 °C 1,7 °C 47 % 94 % 1008,9 hPa 0,0 l/m² 0,0 km/h (0 Bft) O-NO 78 ° 0 min 0 W/m² 0,8 °C 1,7 °C 0,0 km/h (0 Bft)
06.12.2023 05:31 21,6 °C 1,7 °C 47 % 93 % 1008,9 hPa 0,0 l/m² 0,0 km/h (0 Bft) O-NO 78 ° 0 min 0 W/m² 0,7 °C 1,7 °C 0,0 km/h (0 Bft)
06.12.2023 05:32 21,6 °C 1,7 °C 47 % 94 % 1008,9 hPa 0,0 l/m² 0,0 km/h (0 Bft) O-NO 78 ° 0 min 0 W/m² 0,8 °C 1,7 °C 0,0 km/h (0 Bft)
06.12.2023 05:34 21,6 °C 1,7 °C 47 % 94 % 1008,9 hPa 0,0 l/m² 0,0 km/h (0 Bft) O-NO 78 ° 0 min 0 W/m² 0,8 °C 1,7 °C 0,0 km/h (0 Bft)
06.12.2023 05:35 21,6 °C 1,7 °C 47 % 94 % 1008,9 hPa 0,0 l/m² 0,0 km/h (0 Bft) O-NO 78 ° 0 min 0 W/m² 0,8 °C 1,7 °C 0,0 km/h (0 Bft)
06.12.2023 05:37 21,6 °C 1,7 °C 47 % 94 % 1008,9 hPa 0,0 l/m² 0,0 km/h (0 Bft) O-NO 78 ° 0 min 0 W/m² 0,8 °C 1,7 °C 0,0 km/h (0 Bft)
06.12.2023 05:39 21,6 °C 1,7 °C 47 % 94 % 1009,0 hPa 0,0 l/m² 0,0 km/h (0 Bft) O-NO 78 ° 0 min 0 W/m² 0,8 °C 1,7 °C 0,0 km/h (0 Bft)
06.12.2023 05:40 21,6 °C 1,7 °C 47 % 94 % 1009,0 hPa 0,0 l/m² 0,0 km/h (0 Bft) O-NO 78 ° 0 min 0 W/m² 0,8 °C 1,7 °C 0,0 km/h (0 Bft)
06.12.2023 05:42 21,6 °C 1,7 °C 47 % 94 % 1009,0 hPa 0,0 l/m² 0,0 km/h (0 Bft) O-NO 78 ° 0 min 0 W/m² 0,8 °C 1,7 °C 0,0 km/h (0 Bft)
06.12.2023 05:43 21,6 °C 1,7 °C 47 % 94 % 1009,0 hPa 0,0 l/m² 0,0 km/h (0 Bft) O-NO 78 ° 0 min 0 W/m² 0,8 °C 1,7 °C 0,0 km/h (0 Bft)
06.12.2023 05:45 21,6 °C 1,7 °C 47 % 94 % 1009,1 hPa 0,0 l/m² 0,0 km/h (0 Bft) O-NO 78 ° 0 min 0 W/m² 0,8 °C 1,7 °C 0,0 km/h (0 Bft)
06.12.2023 05:47 21,6 °C 1,7 °C 47 % 94 % 1009,1 hPa 0,0 l/m² 0,0 km/h (0 Bft) O-NO 78 ° 0 min 0 W/m² 0,8 °C 1,7 °C 0,0 km/h (0 Bft)
06.12.2023 05:49 21,6 °C 1,7 °C 47 % 94 % 1009,1 hPa 0,2 l/m² 0,0 km/h (0 Bft) O-NO 78 ° 0 min 0 W/m² 0,8 °C 1,7 °C 0,0 km/h (0 Bft)
06.12.2023 05:50 21,6 °C 1,7 °C 47 % 94 % 1009,1 hPa 0,0 l/m² 0,0 km/h (0 Bft) O-NO 78 ° 0 min 0 W/m² 0,8 °C 1,7 °C 0,0 km/h (0 Bft)
06.12.2023 05:52 21,6 °C 1,7 °C 47 % 94 % 1009,1 hPa 0,0 l/m² 0,0 km/h (0 Bft) O-NO 78 ° 0 min 0 W/m² 0,8 °C 1,7 °C 0,0 km/h (0 Bft)
06.12.2023 05:53 21,6 °C 1,7 °C 47 % 94 % 1009,1 hPa 0,0 l/m² 0,0 km/h (0 Bft) O-NO 78 ° 0 min 0 W/m² 0,8 °C 1,7 °C 0,0 km/h (0 Bft)
06.12.2023 05:55 21,6 °C 1,8 °C 47 % 94 % 1009,1 hPa 0,0 l/m² 0,0 km/h (0 Bft) O-NO 78 ° 0 min 0 W/m² 0,9 °C 1,8 °C 0,0 km/h (0 Bft)
06.12.2023 05:57 21,6 °C 1,8 °C 47 % 94 % 1009,1 hPa 0,0 l/m² 0,0 km/h (0 Bft) O-NO 78 ° 0 min 0 W/m² 0,9 °C 1,8 °C 0,0 km/h (0 Bft)
06.12.2023 05:59 21,6 °C 1,8 °C 47 % 94 % 1009,0 hPa 0,0 l/m² 0,0 km/h (0 Bft) O-NO 78 ° 0 min 0 W/m² 0,9 °C 1,8 °C 0,0 km/h (0 Bft)
06.12.2023 06:00 21,6 °C 1,8 °C 47 % 94 % 1009,1 hPa 0,0 l/m² 0,0 km/h (0 Bft) O-NO 78 ° 0 min 0 W/m² 0,9 °C 1,8 °C 0,0 km/h (0 Bft)
06.12.2023 06:02 21,6 °C 1,8 °C 47 % 94 % 1009,1 hPa 0,0 l/m² 0,0 km/h (0 Bft) O-NO 78 ° 0 min 0 W/m² 0,9 °C 1,8 °C 0,0 km/h (0 Bft)
06.12.2023 06:04 21,6 °C 1,8 °C 47 % 94 % 1009,1 hPa 0,0 l/m² 0,0 km/h (0 Bft) O-NO 78 ° 0 min 0 W/m² 0,9 °C 1,8 °C 0,0 km/h (0 Bft)
06.12.2023 06:06 21,6 °C 1,8 °C 47 % 94 % 1009,1 hPa 0,0 l/m² 0,0 km/h (0 Bft) O 96 ° 0 min 0 W/m² 0,9 °C 1,8 °C 0,0 km/h (0 Bft)
06.12.2023 06:08 21,6 °C 1,8 °C 47 % 94 % 1009,0 hPa 0,0 l/m² 0,0 km/h (0 Bft) O-SO 116 ° 0 min 0 W/m² 0,9 °C 1,8 °C 0,0 km/h (0 Bft)
06.12.2023 06:10 21,6 °C 1,8 °C 47 % 94 % 1009,1 hPa 0,0 l/m² 0,0 km/h (0 Bft) O-SO 116 ° 0 min 0 W/m² 0,9 °C 1,8 °C 0,0 km/h (0 Bft)
06.12.2023 06:11 21,6 °C 1,8 °C 47 % 94 % 1009,1 hPa 0,0 l/m² 0,0 km/h (0 Bft) O-SO 117 ° 0 min 0 W/m² 0,9 °C 1,8 °C 0,0 km/h (0 Bft)
06.12.2023 06:12 21,6 °C 1,8 °C 47 % 94 % 1009,1 hPa 0,0 l/m² 0,0 km/h (0 Bft) O-SO 116 ° 0 min 0 W/m² 0,9 °C 1,8 °C 0,0 km/h (0 Bft)
06.12.2023 06:13 21,6 °C 1,8 °C 47 % 94 % 1009,2 hPa 0,0 l/m² 0,0 km/h (0 Bft) O-SO 122 ° 0 min 0 W/m² 0,9 °C 1,8 °C 0,0 km/h (0 Bft)
06.12.2023 06:15 21,6 °C 1,8 °C 47 % 94 % 1009,1 hPa 0,0 l/m² 0,0 km/h (0 Bft) SO 142 ° 0 min 0 W/m² 0,9 °C 1,8 °C 0,0 km/h (0 Bft)
06.12.2023 06:17 21,6 °C 1,8 °C 47 % 94 % 1009,1 hPa 0,0 l/m² 0,0 km/h (0 Bft) SO 142 ° 0 min 0 W/m² 0,9 °C 1,8 °C 0,0 km/h (0 Bft)
06.12.2023 06:19 21,6 °C 1,8 °C 47 % 94 % 1009,1 hPa 0,2 l/m² 0,0 km/h (0 Bft) SO 142 ° 0 min 0 W/m² 0,9 °C 1,8 °C 0,0 km/h (0 Bft)
06.12.2023 06:21 21,6 °C 1,8 °C 47 % 94 % 1009,1 hPa 0,0 l/m² 0,0 km/h (0 Bft) SO 142 ° 0 min 0 W/m² 0,9 °C 1,8 °C 0,0 km/h (0 Bft)
06.12.2023 06:23 21,6 °C 1,8 °C 47 % 94 % 1009,1 hPa 0,0 l/m² 0,0 km/h (0 Bft) S-SO 168 ° 0 min 0 W/m² 0,9 °C 1,8 °C 0,0 km/h (0 Bft)
06.12.2023 06:25 21,6 °C 1,8 °C 47 % 94 % 1009,2 hPa 0,0 l/m² 0,0 km/h (0 Bft) S-SO 168 ° 0 min 0 W/m² 0,9 °C 1,8 °C 0,0 km/h (0 Bft)
06.12.2023 06:27 21,6 °C 1,8 °C 47 % 94 % 1009,1 hPa 0,0 l/m² 0,0 km/h (0 Bft) S 174 ° 0 min 0 W/m² 0,9 °C 1,8 °C 0,0 km/h (0 Bft)
06.12.2023 06:29 21,6 °C 1,8 °C 47 % 94 % 1009,3 hPa 0,0 l/m² 0,0 km/h (0 Bft) S 171 ° 0 min 0 W/m² 0,9 °C 1,8 °C 0,0 km/h (0 Bft)
06.12.2023 06:31 21,6 °C 1,8 °C 47 % 94 % 1009,3 hPa 0,0 l/m² 0,0 km/h (0 Bft) S 173 ° 0 min 0 W/m² 0,9 °C 1,8 °C 0,0 km/h (0 Bft)
06.12.2023 06:33 21,6 °C 1,8 °C 47 % 94 % 1009,3 hPa 0,0 l/m² 0,0 km/h (0 Bft) S 170 ° 0 min 0 W/m² 0,9 °C 1,8 °C 0,0 km/h (0 Bft)
06.12.2023 06:35 21,6 °C 1,8 °C 47 % 94 % 1009,3 hPa 0,0 l/m² 0,0 km/h (0 Bft) S 171 ° 0 min 0 W/m² 0,9 °C 1,8 °C 0,0 km/h (0 Bft)
06.12.2023 06:37 21,6 °C 1,9 °C 47 % 94 % 1009,3 hPa 0,0 l/m² 0,0 km/h (0 Bft) S 171 ° 0 min 0 W/m² 1,0 °C 1,9 °C 0,0 km/h (0 Bft)
06.12.2023 06:39 21,6 °C 1,9 °C 47 % 94 % 1009,4 hPa 0,0 l/m² 0,0 km/h (0 Bft) S 171 ° 0 min 0 W/m² 1,0 °C 1,9 °C 0,0 km/h (0 Bft)
06.12.2023 06:41 21,6 °C 1,8 °C 47 % 94 % 1009,4 hPa 0,0 l/m² 0,0 km/h (0 Bft) S 171 ° 0 min 0 W/m² 0,9 °C 1,8 °C 0,0 km/h (0 Bft)
06.12.2023 06:43 21,6 °C 1,8 °C 47 % 94 % 1009,3 hPa 0,0 l/m² 0,0 km/h (0 Bft) S 171 ° 0 min 0 W/m² 0,9 °C 1,8 °C 0,0 km/h (0 Bft)
06.12.2023 06:45 21,6 °C 1,9 °C 47 % 94 % 1009,5 hPa 0,2 l/m² 0,0 km/h (0 Bft) S 171 ° 0 min 0 W/m² 1,0 °C 1,9 °C 0,0 km/h (0 Bft)
06.12.2023 06:46 21,6 °C 1,8 °C 47 % 94 % 1009,4 hPa 0,0 l/m² 0,0 km/h (0 Bft) S 171 ° 0 min 0 W/m² 0,9 °C 1,8 °C 0,0 km/h (0 Bft)
06.12.2023 06:47 21,6 °C 1,8 °C 47 % 94 % 1009,4 hPa 0,0 l/m² 0,0 km/h (0 Bft) S 171 ° 0 min 0 W/m² 0,9 °C 1,8 °C 0,0 km/h (0 Bft)
06.12.2023 06:48 21,6 °C 1,8 °C 47 % 94 % 1009,4 hPa 0,0 l/m² 0,0 km/h (0 Bft) S 171 ° 0 min 0 W/m² 0,9 °C 1,8 °C 0,0 km/h (0 Bft)
06.12.2023 06:50 21,6 °C 1,8 °C 47 % 94 % 1009,4 hPa 0,0 l/m² 0,0 km/h (0 Bft) S 171 ° 0 min 0 W/m² 0,9 °C 1,8 °C 0,0 km/h (0 Bft)
06.12.2023 06:52 21,6 °C 1,8 °C 47 % 94 % 1009,4 hPa 0,0 l/m² 0,0 km/h (0 Bft) S 172 ° 0 min 0 W/m² 0,9 °C 1,8 °C 0,0 km/h (0 Bft)
06.12.2023 06:54 21,6 °C 1,9 °C 47 % 94 % 1009,4 hPa 0,0 l/m² 0,0 km/h (0 Bft) S 172 ° 0 min 0 W/m² 1,0 °C 1,9 °C 0,0 km/h (0 Bft)
06.12.2023 06:56 21,6 °C 1,9 °C 47 % 94 % 1009,4 hPa 0,0 l/m² 0,0 km/h (0 Bft) S 172 ° 0 min 0 W/m² 1,0 °C 1,9 °C 0,0 km/h (0 Bft)
06.12.2023 06:58 21,5 °C 1,9 °C 47 % 94 % 1009,4 hPa 0,0 l/m² 0,0 km/h (0 Bft) S 172 ° 0 min 0 W/m² 1,0 °C 1,9 °C 0,0 km/h (0 Bft)
06.12.2023 07:00 21,6 °C 1,8 °C 47 % 94 % 1009,4 hPa 0,0 l/m² 0,0 km/h (0 Bft) S 172 ° 0 min 0 W/m² 0,9 °C 1,8 °C 0,0 km/h (0 Bft)
06.12.2023 07:02 21,6 °C 1,9 °C 47 % 94 % 1009,4 hPa 0,0 l/m² 0,0 km/h (0 Bft) S 172 ° 0 min 0 W/m² 1,0 °C 1,9 °C 0,0 km/h (0 Bft)
06.12.2023 07:04 21,6 °C 1,8 °C 47 % 94 % 1009,4 hPa 0,0 l/m² 0,0 km/h (0 Bft) S 172 ° 0 min 0 W/m² 0,9 °C 1,8 °C 0,0 km/h (0 Bft)
06.12.2023 07:06 21,5 °C 1,8 °C 47 % 94 % 1009,4 hPa 0,0 l/m² 0,0 km/h (0 Bft) S 171 ° 0 min 0 W/m² 0,9 °C 1,8 °C 0,0 km/h (0 Bft)
06.12.2023 07:08 21,5 °C 1,8 °C 47 % 94 % 1009,5 hPa 0,0 l/m² 0,0 km/h (0 Bft) S 172 ° 0 min 0 W/m² 0,9 °C 1,8 °C 0,0 km/h (0 Bft)
06.12.2023 07:10 21,5 °C 1,8 °C 47 % 94 % 1009,5 hPa 0,0 l/m² 0,0 km/h (0 Bft) S 171 ° 0 min 0 W/m² 0,9 °C 1,8 °C 0,0 km/h (0 Bft)
06.12.2023 07:12 21,5 °C 1,8 °C 47 % 94 % 1009,5 hPa 0,0 l/m² 0,0 km/h (0 Bft) S 171 ° 0 min 0 W/m² 0,9 °C 1,8 °C 0,0 km/h (0 Bft)
06.12.2023 07:14 21,5 °C 1,8 °C 47 % 94 % 1009,5 hPa 0,0 l/m² 0,0 km/h (0 Bft) S 172 ° 0 min 0 W/m² 0,9 °C 1,8 °C 0,0 km/h (0 Bft)
06.12.2023 07:16 21,5 °C 1,8 °C 47 % 94 % 1009,5 hPa 0,0 l/m² 0,0 km/h (0 Bft) S 171 ° 0 min 0 W/m² 0,9 °C 1,8 °C 0,0 km/h (0 Bft)
06.12.2023 07:18 21,5 °C 1,8 °C 47 % 94 % 1009,5 hPa 0,2 l/m² 0,0 km/h (0 Bft) S 171 ° 0 min 0 W/m² 0,9 °C 1,8 °C 0,0 km/h (0 Bft)
06.12.2023 07:20 21,5 °C 1,8 °C 47 % 94 % 1009,5 hPa 0,0 l/m² 0,0 km/h (0 Bft) S 171 ° 0 min 0 W/m² 0,9 °C 1,8 °C 0,0 km/h (0 Bft)
06.12.2023 07:22 21,5 °C 1,8 °C 47 % 94 % 1009,5 hPa 0,0 l/m² 0,0 km/h (0 Bft) S 171 ° 0 min 0 W/m² 0,9 °C 1,8 °C 0,0 km/h (0 Bft)
06.12.2023 07:24 21,5 °C 1,8 °C 47 % 94 % 1009,5 hPa 0,0 l/m² 0,0 km/h (0 Bft) S 171 ° 0 min 0 W/m² 0,9 °C 1,8 °C 0,0 km/h (0 Bft)
06.12.2023 07:26 21,5 °C 1,8 °C 47 % 94 % 1009,5 hPa 0,0 l/m² 0,0 km/h (0 Bft) S 171 ° 0 min 0 W/m² 0,9 °C 1,8 °C 0,0 km/h (0 Bft)
06.12.2023 07:28 21,5 °C 1,8 °C 47 % 94 % 1009,5 hPa 0,0 l/m² 0,0 km/h (0 Bft) S 171 ° 0 min 0 W/m² 0,9 °C 1,8 °C 0,0 km/h (0 Bft)
06.12.2023 07:30 21,5 °C 1,8 °C 47 % 94 % 1009,5 hPa 0,0 l/m² 0,0 km/h (0 Bft) S 171 ° 0 min 0 W/m² 0,9 °C 1,8 °C 0,0 km/h (0 Bft)
06.12.2023 07:31 21,4 °C 1,8 °C 47 % 94 % 1009,5 hPa 0,0 l/m² 0,0 km/h (0 Bft) S 171 ° 0 min 0 W/m² 0,9 °C 1,8 °C 0,0 km/h (0 Bft)
06.12.2023 07:32 21,5 °C 1,8 °C 47 % 94 % 1009,6 hPa 0,0 l/m² 0,0 km/h (0 Bft) S 171 ° 0 min 0 W/m² 0,9 °C 1,8 °C 0,0 km/h (0 Bft)
06.12.2023 07:33 21,5 °C 1,8 °C 47 % 94 % 1009,5 hPa 0,0 l/m² 0,0 km/h (0 Bft) S 171 ° 0 min 0 W/m² 0,9 °C 1,8 °C 0,0 km/h (0 Bft)
06.12.2023 07:35 21,5 °C 1,8 °C 47 % 94 % 1009,5 hPa 0,0 l/m² 0,0 km/h (0 Bft) S 171 ° 0 min 0 W/m² 0,9 °C 1,8 °C 0,0 km/h (0 Bft)
06.12.2023 07:37 21,5 °C 1,7 °C 47 % 94 % 1009,6 hPa 0,0 l/m² 0,0 km/h (0 Bft) S 171 ° 0 min 0 W/m² 0,8 °C 1,7 °C 0,0 km/h (0 Bft)
06.12.2023 07:38 21,5 °C 1,8 °C 47 % 94 % 1009,7 hPa 0,0 l/m² 0,0 km/h (0 Bft) S 171 ° 0 min 0 W/m² 0,9 °C 1,8 °C 0,0 km/h (0 Bft)
06.12.2023 07:39 21,5 °C 1,7 °C 47 % 94 % 1009,7 hPa 0,0 l/m² 0,0 km/h (0 Bft) S 171 ° 0 min 0 W/m² 0,8 °C 1,7 °C 0,0 km/h (0 Bft)
06.12.2023 07:41 21,5 °C 1,7 °C 47 % 94 % 1009,6 hPa 0,2 l/m² 0,0 km/h (0 Bft) S 171 ° 0 min 0 W/m² 0,8 °C 1,7 °C 0,0 km/h (0 Bft)
06.12.2023 07:43 21,5 °C 1,7 °C 47 % 94 % 1009,7 hPa 0,0 l/m² 0,0 km/h (0 Bft) S 172 ° 0 min 0 W/m² 0,8 °C 1,7 °C 0,0 km/h (0 Bft)
06.12.2023 07:45 21,5 °C 1,7 °C 47 % 94 % 1009,6 hPa 0,0 l/m² 0,0 km/h (0 Bft) S 175 ° 0 min 0 W/m² 0,8 °C 1,7 °C 0,0 km/h (0 Bft)
06.12.2023 07:47 21,5 °C 1,7 °C 47 % 94 % 1009,7 hPa 0,0 l/m² 1,5 km/h (1 Bft) S-SW 203 ° 0 min 0 W/m² 0,8 °C 1,7 °C 6,4 km/h (2 Bft)
06.12.2023 07:49 21,5 °C 1,7 °C 47 % 94 % 1009,7 hPa 0,0 l/m² 3,8 km/h (1 Bft) S-SW 203 ° 0 min 0 W/m² 0,8 °C 1,7 °C 4,8 km/h (1 Bft)
06.12.2023 07:51 21,5 °C 1,7 °C 47 % 94 % 1009,8 hPa 0,0 l/m² 4,0 km/h (1 Bft) S-SW 206 ° 0 min 0 W/m² 0,8 °C 1,7 °C 6,4 km/h (2 Bft)
06.12.2023 07:53 21,5 °C 1,7 °C 47 % 94 % 1009,8 hPa 0,0 l/m² 3,9 km/h (1 Bft) S-SW 211 ° 0 min 0 W/m² 0,8 °C 1,7 °C 6,4 km/h (2 Bft)
06.12.2023 07:55 21,5 °C 1,7 °C 47 % 94 % 1009,8 hPa 0,0 l/m² 5,4 km/h (2 Bft) S-SW 212 ° 0 min 0 W/m² 0,8 °C 1,7 °C 8,0 km/h (2 Bft)
06.12.2023 07:57 21,5 °C 1,7 °C 47 % 94 % 1009,8 hPa 0,0 l/m² 4,8 km/h (1 Bft) SW 215 ° 0 min 0 W/m² 0,8 °C 1,7 °C 8,0 km/h (2 Bft)
06.12.2023 07:59 21,5 °C 1,7 °C 47 % 94 % 1009,8 hPa 0,0 l/m² 7,0 km/h (2 Bft) SW 221 ° 0 min 0 W/m² 0,8 °C 1,1 °C 9,7 km/h (2 Bft)
06.12.2023 08:01 21,5 °C 1,7 °C 47 % 94 % 1009,8 hPa 0,0 l/m² 6,6 km/h (2 Bft) S-SW 209 ° 0 min 0 W/m² 0,8 °C 1,5 °C 11,3 km/h (2 Bft)
06.12.2023 08:03 21,6 °C 1,7 °C 47 % 94 % 1009,8 hPa 0,0 l/m² 7,9 km/h (2 Bft) S-SW 211 ° 0 min 0 W/m² 0,8 °C 0,2 °C 11,3 km/h (2 Bft)
06.12.2023 08:05 21,5 °C 1,7 °C 47 % 94 % 1009,8 hPa 0,0 l/m² 7,3 km/h (2 Bft) S-SW 211 ° 0 min 0 W/m² 0,8 °C 0,8 °C 11,3 km/h (2 Bft)
06.12.2023 08:07 21,6 °C 1,7 °C 47 % 94 % 1009,8 hPa 0,0 l/m² 6,3 km/h (2 Bft) S-SW 210 ° 0 min 5 W/m² 0,8 °C 1,7 °C 11,3 km/h (2 Bft)
06.12.2023 08:09 21,6 °C 1,7 °C 47 % 94 % 1009,9 hPa 0,2 l/m² 7,3 km/h (2 Bft) S-SW 206 ° 0 min 5 W/m² 0,8 °C 0,8 °C 9,7 km/h (2 Bft)
06.12.2023 08:11 21,6 °C 1,7 °C 47 % 94 % 1009,9 hPa 0,0 l/m² 7,3 km/h (2 Bft) S-SW 207 ° 0 min 7 W/m² 0,8 °C 0,8 °C 9,7 km/h (2 Bft)
06.12.2023 08:13 21,6 °C 1,7 °C 47 % 94 % 1009,9 hPa 0,0 l/m² 6,2 km/h (2 Bft) S-SW 207 ° 0 min 9 W/m² 0,8 °C 1,7 °C 8,0 km/h (2 Bft)
06.12.2023 08:15 21,6 °C 1,7 °C 47 % 94 % 1010,0 hPa 0,0 l/m² 8,4 km/h (2 Bft) S-SW 207 ° 0 min 9 W/m² 0,8 °C -0,2 °C 11,3 km/h (2 Bft)
06.12.2023 08:17 21,6 °C 1,7 °C 47 % 94 % 1009,9 hPa 0,0 l/m² 8,9 km/h (2 Bft) S-SW 205 ° 0 min 11 W/m² 0,8 °C -0,7 °C 11,3 km/h (2 Bft)
06.12.2023 08:19 21,6 °C 1,7 °C 47 % 94 % 1010,1 hPa 0,0 l/m² 8,4 km/h (2 Bft) S-SW 207 ° 0 min 11 W/m² 0,8 °C -0,2 °C 11,3 km/h (2 Bft)
06.12.2023 08:21 21,6 °C 1,7 °C 47 % 94 % 1010,1 hPa 0,0 l/m² 8,4 km/h (2 Bft) SW 217 ° 0 min 12 W/m² 0,8 °C -0,2 °C 9,7 km/h (2 Bft)
06.12.2023 08:23 21,6 °C 1,7 °C 47 % 94 % 1010,1 hPa 0,0 l/m² 8,2 km/h (2 Bft) S-SW 205 ° 0 min 14 W/m² 0,8 °C -0,0 °C 11,3 km/h (2 Bft)
06.12.2023 08:25 21,6 °C 1,7 °C 47 % 94 % 1010,1 hPa 0,0 l/m² 7,9 km/h (2 Bft) SW 216 ° 0 min 16 W/m² 0,8 °C 0,2 °C 9,7 km/h (2 Bft)
06.12.2023 08:27 21,6 °C 1,7 °C 47 % 94 % 1010,3 hPa 0,0 l/m² 7,7 km/h (2 Bft) S-SW 213 ° 0 min 18 W/m² 0,8 °C 0,4 °C 9,7 km/h (2 Bft)
06.12.2023 08:29 21,6 °C 1,7 °C 47 % 94 % 1010,2 hPa 0,0 l/m² 6,4 km/h (2 Bft) SW 216 ° 0 min 19 W/m² 0,8 °C 1,7 °C 9,7 km/h (2 Bft)
06.12.2023 08:31 21,6 °C 1,7 °C 47 % 94 % 1010,2 hPa 0,0 l/m² 6,2 km/h (2 Bft) S-SW 206 ° 0 min 21 W/m² 0,8 °C 1,7 °C 8,0 km/h (2 Bft)
06.12.2023 08:33 21,6 °C 1,7 °C 47 % 94 % 1010,2 hPa 0,2 l/m² 7,1 km/h (2 Bft) SW 214 ° 0 min 21 W/m² 0,8 °C 1,0 °C 9,7 km/h (2 Bft)
06.12.2023 08:35 21,6 °C 1,7 °C 47 % 94 % 1010,2 hPa 0,0 l/m² 6,8 km/h (2 Bft) SW 219 ° 0 min 23 W/m² 0,8 °C 1,3 °C 9,7 km/h (2 Bft)
06.12.2023 08:37 21,6 °C 1,7 °C 47 % 94 % 1010,2 hPa 0,0 l/m² 6,9 km/h (2 Bft) S-SW 209 ° 0 min 23 W/m² 0,8 °C 1,2 °C 8,0 km/h (2 Bft)
06.12.2023 08:39 21,6 °C 1,7 °C 47 % 94 % 1010,2 hPa 0,0 l/m² 7,6 km/h (2 Bft) SW 221 ° 0 min 21 W/m² 0,8 °C 0,5 °C 9,7 km/h (2 Bft)
06.12.2023 08:41 21,6 °C 1,7 °C 47 % 94 % 1010,3 hPa 0,0 l/m² 8,0 km/h (2 Bft) S-SW 207 ° 0 min 21 W/m² 0,8 °C 0,1 °C 11,3 km/h (2 Bft)
06.12.2023 08:43 21,6 °C 1,7 °C 47 % 94 % 1010,3 hPa 0,0 l/m² 8,4 km/h (2 Bft) SW 226 ° 0 min 19 W/m² 0,8 °C -0,2 °C 11,3 km/h (2 Bft)
06.12.2023 08:45 21,6 °C 1,7 °C 47 % 94 % 1010,3 hPa 0,0 l/m² 8,9 km/h (2 Bft) SW 215 ° 0 min 19 W/m² 0,8 °C -0,7 °C 12,9 km/h (3 Bft)
06.12.2023 08:47 21,6 °C 1,7 °C 47 % 94 % 1010,2 hPa 0,0 l/m² 9,9 km/h (2 Bft) SW 217 ° 0 min 19 W/m² 0,8 °C -1,5 °C 14,5 km/h (3 Bft)
06.12.2023 08:49 21,6 °C 1,7 °C 47 % 94 % 1010,3 hPa 0,0 l/m² 9,3 km/h (2 Bft) S-SW 204 ° 0 min 19 W/m² 0,8 °C -1,0 °C 12,9 km/h (3 Bft)
06.12.2023 08:51 21,6 °C 1,7 °C 47 % 94 % 1010,2 hPa 0,0 l/m² 8,5 km/h (2 Bft) SW 216 ° 0 min 21 W/m² 0,8 °C -0,3 °C 12,9 km/h (3 Bft)
06.12.2023 08:53 21,6 °C 1,7 °C 47 % 94 % 1010,3 hPa 0,0 l/m² 9,0 km/h (2 Bft) S-SW 211 ° 0 min 23 W/m² 0,8 °C -0,8 °C 14,5 km/h (3 Bft)
06.12.2023 08:55 21,6 °C 1,7 °C 47 % 94 % 1010,3 hPa 0,0 l/m² 8,3 km/h (2 Bft) SW 219 ° 0 min 25 W/m² 0,8 °C -0,1 °C 12,9 km/h (3 Bft)
06.12.2023 08:57 21,6 °C 1,7 °C 47 % 94 % 1010,4 hPa 0,0 l/m² 5,6 km/h (2 Bft) SW 221 ° 0 min 25 W/m² 0,8 °C 1,7 °C 9,7 km/h (2 Bft)
06.12.2023 08:59 21,6 °C 1,7 °C 47 % 94 % 1010,4 hPa 0,2 l/m² 5,6 km/h (2 Bft) SW 227 ° 0 min 26 W/m² 0,8 °C 1,7 °C 9,7 km/h (2 Bft)
06.12.2023 09:01 21,6 °C 1,7 °C 47 % 94 % 1010,4 hPa 0,0 l/m² 7,2 km/h (2 Bft) SW 215 ° 0 min 28 W/m² 0,8 °C 0,9 °C 11,3 km/h (2 Bft)
06.12.2023 09:03 21,5 °C 1,7 °C 47 % 94 % 1010,4 hPa 0,0 l/m² 5,0 km/h (1 Bft) SW 219 ° 0 min 28 W/m² 0,8 °C 1,7 °C 8,0 km/h (2 Bft)
06.12.2023 09:05 21,6 °C 1,7 °C 47 % 94 % 1010,4 hPa 0,0 l/m² 4,8 km/h (1 Bft) SW 229 ° 0 min 33 W/m² 0,8 °C 1,7 °C 8,0 km/h (2 Bft)
06.12.2023 09:07 21,6 °C 1,7 °C 47 % 94 % 1010,4 hPa 0,0 l/m² 4,2 km/h (1 Bft) SW 232 ° 0 min 37 W/m² 0,8 °C 1,7 °C 6,4 km/h (2 Bft)
06.12.2023 09:09 21,6 °C 1,7 °C 47 % 94 % 1010,4 hPa 0,0 l/m² 5,4 km/h (2 Bft) SW 227 ° 0 min 42 W/m² 0,8 °C 1,7 °C 8,0 km/h (2 Bft)
06.12.2023 09:11 21,6 °C 1,7 °C 47 % 94 % 1010,5 hPa 0,0 l/m² 6,2 km/h (2 Bft) SW 226 ° 0 min 51 W/m² 0,8 °C 1,7 °C 9,7 km/h (2 Bft)
06.12.2023 09:13 21,6 °C 1,7 °C 47 % 94 % 1010,5 hPa 0,0 l/m² 6,7 km/h (2 Bft) SW 226 ° 2 min 54 W/m² 0,8 °C 1,4 °C 9,7 km/h (2 Bft)
06.12.2023 09:15 21,6 °C 1,7 °C 47 % 94 % 1010,6 hPa 0,0 l/m² 6,9 km/h (2 Bft) SW 221 ° 2 min 58 W/m² 0,8 °C 1,2 °C 11,3 km/h (2 Bft)
06.12.2023 09:17 21,6 °C 1,7 °C 47 % 94 % 1010,5 hPa 0,0 l/m² 7,8 km/h (2 Bft) SW 215 ° 2 min 60 W/m² 0,8 °C 0,3 °C 12,9 km/h (3 Bft)
06.12.2023 09:19 21,6 °C 1,7 °C 47 % 94 % 1010,6 hPa 0,0 l/m² 6,3 km/h (2 Bft) SW 218 ° 2 min 62 W/m² 0,8 °C 1,7 °C 9,7 km/h (2 Bft)
06.12.2023 09:21 21,6 °C 1,7 °C 47 % 94 % 1010,6 hPa 0,0 l/m² 5,4 km/h (2 Bft) SW 229 ° 2 min 67 W/m² 0,8 °C 1,7 °C 8,0 km/h (2 Bft)
06.12.2023 09:23 21,6 °C 1,7 °C 47 % 94 % 1010,6 hPa 0,0 l/m² 3,2 km/h (1 Bft) SW 226 ° 2 min 69 W/m² 0,8 °C 1,7 °C 8,0 km/h (2 Bft)
06.12.2023 09:25 21,6 °C 1,8 °C 47 % 94 % 1010,6 hPa 0,0 l/m² 4,7 km/h (1 Bft) SW 227 ° 2 min 69 W/m² 0,9 °C 1,8 °C 8,0 km/h (2 Bft)
06.12.2023 09:27 21,6 °C 1,8 °C 47 % 94 % 1010,6 hPa 0,0 l/m² 4,2 km/h (1 Bft) SW 219 ° 2 min 69 W/m² 0,9 °C 1,8 °C 8,0 km/h (2 Bft)
06.12.2023 09:29 21,6 °C 1,8 °C 47 % 94 % 1010,6 hPa 0,0 l/m² 3,5 km/h (1 Bft) SW 224 ° 2 min 70 W/m² 0,9 °C 1,8 °C 8,0 km/h (2 Bft)
06.12.2023 09:31 21,6 °C 1,8 °C 48 % 94 % 1010,7 hPa 0,0 l/m² 4,0 km/h (1 Bft) SW 223 ° 2 min 70 W/m² 0,9 °C 1,8 °C 6,4 km/h (2 Bft)
06.12.2023 09:33 21,6 °C 1,8 °C 48 % 94 % 1010,7 hPa 0,0 l/m² 4,3 km/h (1 Bft) SW 219 ° 2 min 63 W/m² 0,9 °C 1,8 °C 11,3 km/h (2 Bft)
06.12.2023 09:35 21,6 °C 1,8 °C 48 % 94 % 1010,8 hPa 0,2 l/m² 3,0 km/h (1 Bft) SW 219 ° 2 min 60 W/m² 0,9 °C 1,8 °C 8,0 km/h (2 Bft)
06.12.2023 09:37 21,6 °C 1,8 °C 47 % 94 % 1010,8 hPa 0,0 l/m² 3,2 km/h (1 Bft) W-SW 242 ° 2 min 58 W/m² 0,9 °C 1,8 °C 8,0 km/h (2 Bft)
06.12.2023 09:39 21,6 °C 1,8 °C 47 % 94 % 1010,8 hPa 0,0 l/m² 1,3 km/h (1 Bft) W-SW 240 ° 2 min 58 W/m² 0,9 °C 1,8 °C 4,8 km/h (1 Bft)
06.12.2023 09:41 21,6 °C 1,8 °C 47 % 94 % 1010,8 hPa 0,0 l/m² 2,7 km/h (1 Bft) SW 223 ° 2 min 58 W/m² 0,9 °C 1,8 °C 6,4 km/h (2 Bft)
06.12.2023 09:43 21,6 °C 1,8 °C 47 % 94 % 1010,8 hPa 0,0 l/m² 2,8 km/h (1 Bft) SW 230 ° 2 min 60 W/m² 0,9 °C 1,8 °C 8,0 km/h (2 Bft)
06.12.2023 09:45 21,6 °C 1,9 °C 47 % 94 % 1010,8 hPa 0,0 l/m² 4,6 km/h (1 Bft) SW 234 ° 2 min 60 W/m² 1,0 °C 1,9 °C 8,0 km/h (2 Bft)
06.12.2023 09:46 21,6 °C 1,9 °C 47 % 94 % 1010,8 hPa 0,0 l/m² 4,8 km/h (1 Bft) SW 217 ° 1 min 60 W/m² 1,0 °C 1,9 °C 8,0 km/h (2 Bft)
06.12.2023 09:47 21,6 °C 1,9 °C 47 % 94 % 1010,8 hPa 0,0 l/m² 5,3 km/h (1 Bft) SW 223 ° 1 min 58 W/m² 1,0 °C 1,9 °C 8,0 km/h (2 Bft)
06.12.2023 09:48 21,6 °C 1,9 °C 47 % 94 % 1010,8 hPa 0,0 l/m² 3,5 km/h (1 Bft) SW 224 ° 1 min 58 W/m² 1,0 °C 1,9 °C 6,4 km/h (2 Bft)
06.12.2023 09:50 21,6 °C 1,9 °C 47 % 94 % 1010,8 hPa 0,0 l/m² 3,2 km/h (1 Bft) SW 232 ° 2 min 56 W/m² 1,0 °C 1,9 °C 4,8 km/h (1 Bft)
06.12.2023 09:52 21,6 °C 1,9 °C 47 % 94 % 1010,9 hPa 0,0 l/m² 2,8 km/h (1 Bft) SW 216 ° 2 min 58 W/m² 1,0 °C 1,9 °C 4,8 km/h (1 Bft)
06.12.2023 09:53 21,6 °C 1,9 °C 47 % 94 % 1010,8 hPa 0,0 l/m² 2,1 km/h (1 Bft) SW 234 ° 1 min 62 W/m² 1,0 °C 1,9 °C 4,8 km/h (1 Bft)
06.12.2023 09:54 21,6 °C 1,9 °C 47 % 94 % 1010,8 hPa 0,0 l/m² 2,3 km/h (1 Bft) W-SW 238 ° 1 min 69 W/m² 1,0 °C 1,9 °C 4,8 km/h (1 Bft)
06.12.2023 09:56 21,7 °C 1,9 °C 47 % 94 % 1010,9 hPa 0,0 l/m² 6,9 km/h (2 Bft) S-SW 204 ° 2 min 84 W/m² 1,0 °C 1,4 °C 11,3 km/h (2 Bft)
06.12.2023 09:58 21,6 °C 1,9 °C 47 % 94 % 1011,0 hPa 0,0 l/m² 7,0 km/h (2 Bft) SW 214 ° 2 min 88 W/m² 1,0 °C 1,3 °C 12,9 km/h (3 Bft)
06.12.2023 09:59 21,6 °C 1,9 °C 47 % 94 % 1010,9 hPa 0,0 l/m² 6,2 km/h (2 Bft) S-SW 210 ° 1 min 88 W/m² 1,0 °C 1,9 °C 8,0 km/h (2 Bft)
06.12.2023 10:00 21,6 °C 1,9 °C 47 % 94 % 1010,9 hPa 0,2 l/m² 7,7 km/h (2 Bft) S-SW 212 ° 1 min 88 W/m² 1,0 °C 0,6 °C 9,7 km/h (2 Bft)
06.12.2023 10:02 21,6 °C 1,9 °C 47 % 94 % 1011,0 hPa 0,0 l/m² 9,1 km/h (2 Bft) SW 229 ° 2 min 84 W/m² 1,0 °C -0,6 °C 14,5 km/h (3 Bft)
06.12.2023 10:03 21,6 °C 1,9 °C 47 % 94 % 1011,0 hPa 0,0 l/m² 9,6 km/h (2 Bft) SW 219 ° 1 min 83 W/m² 1,0 °C -1,0 °C 12,9 km/h (3 Bft)
06.12.2023 10:05 21,7 °C 1,9 °C 47 % 94 % 1011,1 hPa 0,0 l/m² 8,0 km/h (2 Bft) SW 218 ° 2 min 83 W/m² 1,0 °C 0,3 °C 11,3 km/h (2 Bft)
06.12.2023 10:07 21,6 °C 1,9 °C 47 % 94 % 1010,9 hPa 0,0 l/m² 7,1 km/h (2 Bft) SW 220 ° 2 min 83 W/m² 1,0 °C 1,2 °C 11,3 km/h (2 Bft)
06.12.2023 10:09 21,6 °C 2,0 °C 47 % 94 % 1011,1 hPa 0,0 l/m² 4,3 km/h (1 Bft) W-SW 238 ° 2 min 79 W/m² 1,1 °C 2,0 °C 9,7 km/h (2 Bft)
06.12.2023 10:11 21,6 °C 2,0 °C 47 % 94 % 1011,0 hPa 0,0 l/m² 6,0 km/h (2 Bft) SW 222 ° 2 min 76 W/m² 1,1 °C 2,0 °C 11,3 km/h (2 Bft)
06.12.2023 10:13 21,6 °C 2,1 °C 47 % 94 % 1011,1 hPa 0,0 l/m² 4,1 km/h (1 Bft) SW 216 ° 2 min 74 W/m² 1,2 °C 2,1 °C 8,0 km/h (2 Bft)
06.12.2023 10:15 21,6 °C 2,0 °C 47 % 94 % 1011,1 hPa 0,0 l/m² 4,5 km/h (1 Bft) SW 220 ° 2 min 69 W/m² 1,1 °C 2,0 °C 8,0 km/h (2 Bft)
06.12.2023 10:17 21,6 °C 2,0 °C 47 % 94 % 1011,1 hPa 0,0 l/m² 5,3 km/h (1 Bft) SW 234 ° 2 min 69 W/m² 1,1 °C 2,0 °C 9,7 km/h (2 Bft)
06.12.2023 10:19 21,6 °C 2,1 °C 47 % 94 % 1011,2 hPa 0,0 l/m² 6,1 km/h (2 Bft) SW 221 ° 2 min 72 W/m² 1,2 °C 2,1 °C 9,7 km/h (2 Bft)
06.12.2023 10:20 21,6 °C 2,1 °C 47 % 94 % 1011,1 hPa 0,0 l/m² 5,8 km/h (2 Bft) SW 219 ° 1 min 76 W/m² 1,2 °C 2,1 °C 8,0 km/h (2 Bft)
06.12.2023 10:21 21,6 °C 2,1 °C 47 % 94 % 1011,1 hPa 0,0 l/m² 4,1 km/h (1 Bft) SW 231 ° 1 min 77 W/m² 1,2 °C 2,1 °C 6,4 km/h (2 Bft)
06.12.2023 10:23 21,6 °C 2,1 °C 47 % 94 % 1011,1 hPa 0,0 l/m² 4,4 km/h (1 Bft) SW 223 ° 2 min 77 W/m² 1,2 °C 2,1 °C 8,0 km/h (2 Bft)
06.12.2023 10:25 21,6 °C 2,1 °C 47 % 94 % 1011,1 hPa 0,0 l/m² 6,0 km/h (2 Bft) SW 227 ° 2 min 76 W/m² 1,2 °C 2,1 °C 11,3 km/h (2 Bft)
06.12.2023 10:27 21,6 °C 2,1 °C 46 % 94 % 1011,2 hPa 0,2 l/m² 7,6 km/h (2 Bft) SW 233 ° 2 min 76 W/m² 1,2 °C 0,9 °C 12,9 km/h (3 Bft)
06.12.2023 10:29 21,6 °C 2,1 °C 46 % 94 % 1011,2 hPa 0,0 l/m² 5,4 km/h (2 Bft) W-SW 242 ° 2 min 77 W/m² 1,2 °C 2,1 °C 9,7 km/h (2 Bft)
06.12.2023 10:31 21,6 °C 2,1 °C 46 % 94 % 1011,2 hPa 0,0 l/m² 5,9 km/h (2 Bft) W-SW 250 ° 2 min 77 W/m² 1,2 °C 2,1 °C 8,0 km/h (2 Bft)
06.12.2023 10:33 21,6 °C 2,1 °C 46 % 94 % 1011,2 hPa 0,0 l/m² 4,3 km/h (1 Bft) SW 229 ° 2 min 74 W/m² 1,2 °C 2,1 °C 8,0 km/h (2 Bft)
06.12.2023 10:35 21,6 °C 2,1 °C 46 % 94 % 1011,2 hPa 0,0 l/m² 5,6 km/h (2 Bft) SW 236 ° 2 min 74 W/m² 1,2 °C 2,1 °C 8,0 km/h (2 Bft)
06.12.2023 10:37 21,6 °C 2,1 °C 46 % 94 % 1011,2 hPa 0,0 l/m² 4,5 km/h (1 Bft) SW 227 ° 2 min 79 W/m² 1,2 °C 2,1 °C 8,0 km/h (2 Bft)
06.12.2023 10:39 21,6 °C 2,1 °C 46 % 94 % 1011,3 hPa 0,0 l/m² 5,7 km/h (2 Bft) SW 226 ° 2 min 83 W/m² 1,2 °C 2,1 °C 8,0 km/h (2 Bft)
06.12.2023 10:41 21,6 °C 2,1 °C 46 % 94 % 1011,2 hPa 0,0 l/m² 6,1 km/h (2 Bft) SW 219 ° 2 min 84 W/m² 1,2 °C 2,1 °C 11,3 km/h (2 Bft)
06.12.2023 10:43 21,6 °C 2,1 °C 46 % 94 % 1011,2 hPa 0,0 l/m² 6,9 km/h (2 Bft) SW 219 ° 2 min 84 W/m² 1,2 °C 1,6 °C 11,3 km/h (2 Bft)
06.12.2023 10:45 21,6 °C 2,1 °C 46 % 94 % 1011,3 hPa 0,0 l/m² 6,1 km/h (2 Bft) S-SW 211 ° 2 min 83 W/m² 1,2 °C 2,1 °C 9,7 km/h (2 Bft)
06.12.2023 10:47 21,6 °C 2,1 °C 46 % 93 % 1011,3 hPa 0,0 l/m² 7,6 km/h (2 Bft) S-SW 211 ° 2 min 83 W/m² 1,1 °C 0,9 °C 9,7 km/h (2 Bft)
06.12.2023 10:49 21,6 °C 2,1 °C 46 % 93 % 1011,4 hPa 0,0 l/m² 6,9 km/h (2 Bft) SW 215 ° 2 min 81 W/m² 1,1 °C 1,6 °C 9,7 km/h (2 Bft)
06.12.2023 10:51 21,6 °C 2,1 °C 46 % 93 % 1011,3 hPa 0,0 l/m² 6,7 km/h (2 Bft) SW 223 ° 2 min 81 W/m² 1,1 °C 1,8 °C 9,7 km/h (2 Bft)
06.12.2023 10:53 21,6 °C 2,1 °C 46 % 93 % 1011,4 hPa 0,2 l/m² 5,7 km/h (2 Bft) SW 217 ° 2 min 81 W/m² 1,1 °C 2,1 °C 9,7 km/h (2 Bft)
06.12.2023 10:55 21,6 °C 2,1 °C 46 % 93 % 1011,4 hPa 0,0 l/m² 4,9 km/h (1 Bft) SW 219 ° 2 min 81 W/m² 1,1 °C 2,1 °C 8,0 km/h (2 Bft)
06.12.2023 10:57 21,6 °C 2,1 °C 46 % 93 % 1011,4 hPa 0,0 l/m² 4,5 km/h (1 Bft) S-SW 205 ° 2 min 79 W/m² 1,1 °C 2,1 °C 8,0 km/h (2 Bft)
06.12.2023 10:59 21,6 °C 2,1 °C 46 % 93 % 1011,4 hPa 0,0 l/m² 7,2 km/h (2 Bft) SW 219 ° 2 min 77 W/m² 1,1 °C 1,3 °C 9,7 km/h (2 Bft)
06.12.2023 11:01 21,6 °C 2,1 °C 46 % 93 % 1011,4 hPa 0,0 l/m² 7,5 km/h (2 Bft) S-SW 213 ° 2 min 76 W/m² 1,1 °C 1,0 °C 11,3 km/h (2 Bft)
06.12.2023 11:03 21,6 °C 2,1 °C 46 % 93 % 1011,4 hPa 0,0 l/m² 7,2 km/h (2 Bft) SW 217 ° 2 min 76 W/m² 1,1 °C 1,3 °C 9,7 km/h (2 Bft)
06.12.2023 11:05 21,6 °C 2,1 °C 46 % 93 % 1011,4 hPa 0,0 l/m² 7,2 km/h (2 Bft) SW 215 ° 2 min 76 W/m² 1,1 °C 1,3 °C 9,7 km/h (2 Bft)
06.12.2023 11:06 21,6 °C 2,1 °C 46 % 93 % 1011,5 hPa 0,0 l/m² 5,8 km/h (2 Bft) S-SW 208 ° 1 min 76 W/m² 1,1 °C 2,1 °C 8,0 km/h (2 Bft)
06.12.2023 11:08 21,6 °C 2,1 °C 46 % 93 % 1011,4 hPa 0,0 l/m² 7,1 km/h (2 Bft) SW 218 ° 2 min 77 W/m² 1,1 °C 1,4 °C 9,7 km/h (2 Bft)
06.12.2023 11:10 21,6 °C 2,1 °C 46 % 93 % 1011,5 hPa 0,0 l/m² 5,9 km/h (2 Bft) SW 216 ° 2 min 79 W/m² 1,1 °C 2,1 °C 8,0 km/h (2 Bft)
06.12.2023 11:12 21,6 °C 2,1 °C 46 % 93 % 1011,5 hPa 0,0 l/m² 6,9 km/h (2 Bft) SW 223 ° 2 min 83 W/m² 1,1 °C 1,6 °C 11,3 km/h (2 Bft)
06.12.2023 11:14 21,6 °C 2,1 °C 46 % 93 % 1011,5 hPa 0,0 l/m² 5,7 km/h (2 Bft) S-SW 206 ° 2 min 84 W/m² 1,1 °C 2,1 °C 9,7 km/h (2 Bft)
06.12.2023 11:16 21,6 °C 2,1 °C 46 % 93 % 1011,5 hPa 0,0 l/m² 6,0 km/h (2 Bft) S-SW 211 ° 2 min 84 W/m² 1,1 °C 2,1 °C 8,0 km/h (2 Bft)
06.12.2023 11:18 21,6 °C 2,1 °C 46 % 93 % 1011,4 hPa 0,0 l/m² 5,5 km/h (2 Bft) S-SW 207 ° 2 min 90 W/m² 1,1 °C 2,1 °C 9,7 km/h (2 Bft)
06.12.2023 11:20 21,6 °C 2,1 °C 46 % 93 % 1011,5 hPa 0,0 l/m² 4,0 km/h (1 Bft) S-SW 211 ° 2 min 93 W/m² 1,1 °C 2,1 °C 6,4 km/h (2 Bft)
06.12.2023 11:22 21,6 °C 2,2 °C 46 % 93 % 1011,4 hPa 0,2 l/m² 5,2 km/h (1 Bft) S-SW 205 ° 2 min 98 W/m² 1,2 °C 2,2 °C 8,0 km/h (2 Bft)
06.12.2023 11:23 21,6 °C 2,2 °C 46 % 93 % 1011,5 hPa 0,0 l/m² 5,0 km/h (1 Bft) SW 230 ° 1 min 100 W/m² 1,2 °C 2,2 °C 8,0 km/h (2 Bft)
06.12.2023 11:24 21,6 °C 2,2 °C 46 % 93 % 1011,5 hPa 0,0 l/m² 6,9 km/h (2 Bft) S-SW 212 ° 1 min 102 W/m² 1,2 °C 1,7 °C 9,7 km/h (2 Bft)
06.12.2023 11:26 21,6 °C 2,2 °C 46 % 93 % 1011,4 hPa 0,0 l/m² 6,2 km/h (2 Bft) S-SW 206 ° 2 min 100 W/m² 1,2 °C 2,2 °C 9,7 km/h (2 Bft)
06.12.2023 11:28 21,6 °C 2,2 °C 46 % 93 % 1011,4 hPa 0,0 l/m² 8,1 km/h (2 Bft) SW 215 ° 2 min 98 W/m² 1,2 °C 0,6 °C 11,3 km/h (2 Bft)
06.12.2023 11:30 21,6 °C 2,2 °C 46 % 93 % 1011,4 hPa 0,0 l/m² 7,1 km/h (2 Bft) S-SW 207 ° 2 min 93 W/m² 1,2 °C 1,5 °C 8,0 km/h (2 Bft)
06.12.2023 11:32 21,6 °C 2,2 °C 46 % 93 % 1011,5 hPa 0,0 l/m² 8,9 km/h (2 Bft) S-SW 202 ° 2 min 90 W/m² 1,2 °C -0,1 °C 12,9 km/h (3 Bft)
06.12.2023 11:33 21,6 °C 2,2 °C 46 % 93 % 1011,4 hPa 0,0 l/m² 10,7 km/h (2 Bft) S-SW 193 ° 1 min 86 W/m² 1,2 °C -1,6 °C 12,9 km/h (3 Bft)
06.12.2023 11:34 21,6 °C 2,2 °C 46 % 93 % 1011,4 hPa 0,0 l/m² 11,4 km/h (2 Bft) S-SW 200 ° 1 min 84 W/m² 1,2 °C -2,1 °C 14,5 km/h (3 Bft)
06.12.2023 11:36 21,6 °C 2,2 °C 46 % 93 % 1011,5 hPa 0,0 l/m² 10,4 km/h (2 Bft) S-SW 202 ° 2 min 83 W/m² 1,2 °C -1,3 °C 14,5 km/h (3 Bft)
06.12.2023 11:38 21,6 °C 2,2 °C 46 % 93 % 1011,4 hPa 0,0 l/m² 10,8 km/h (2 Bft) S-SW 196 ° 2 min 83 W/m² 1,2 °C -1,6 °C 14,5 km/h (3 Bft)
06.12.2023 11:40 21,6 °C 2,2 °C 46 % 93 % 1011,4 hPa 0,0 l/m² 12,0 km/h (2 Bft) S-SW 199 ° 2 min 83 W/m² 1,2 °C -2,5 °C 14,5 km/h (3 Bft)
06.12.2023 11:42 21,6 °C 2,2 °C 46 % 93 % 1011,5 hPa 0,2 l/m² 10,7 km/h (2 Bft) S-SW 196 ° 2 min 81 W/m² 1,2 °C -1,6 °C 14,5 km/h (3 Bft)
06.12.2023 11:43 21,6 °C 2,2 °C 46 % 93 % 1011,5 hPa 0,0 l/m² 11,8 km/h (2 Bft) S-SW 202 ° 1 min 81 W/m² 1,2 °C -2,3 °C 14,5 km/h (3 Bft)
06.12.2023 11:44 21,6 °C 2,2 °C 46 % 93 % 1011,5 hPa 0,0 l/m² 12,2 km/h (2 Bft) S-SW 201 ° 1 min 81 W/m² 1,2 °C -2,6 °C 14,5 km/h (3 Bft)
06.12.2023 11:46 21,6 °C 2,2 °C 46 % 93 % 1011,7 hPa 0,0 l/m² 11,0 km/h (2 Bft) S-SW 205 ° 2 min 83 W/m² 1,2 °C -1,8 °C 14,5 km/h (3 Bft)
06.12.2023 11:48 21,6 °C 2,2 °C 46 % 93 % 1011,6 hPa 0,0 l/m² 11,4 km/h (2 Bft) S-SW 213 ° 2 min 86 W/m² 1,2 °C -2,1 °C 14,5 km/h (3 Bft)
06.12.2023 11:50 21,6 °C 2,2 °C 46 % 93 % 1011,6 hPa 0,0 l/m² 9,0 km/h (2 Bft) S-SW 196 ° 2 min 86 W/m² 1,2 °C -0,2 °C 11,3 km/h (2 Bft)
06.12.2023 11:52 21,6 °C 2,2 °C 46 % 93 % 1011,5 hPa 0,0 l/m² 9,6 km/h (2 Bft) S-SW 209 ° 2 min 88 W/m² 1,2 °C -0,7 °C 12,9 km/h (3 Bft)
06.12.2023 11:54 21,6 °C 2,2 °C 46 % 93 % 1011,5 hPa 0,0 l/m² 8,2 km/h (2 Bft) S-SW 209 ° 2 min 86 W/m² 1,2 °C 0,5 °C 9,7 km/h (2 Bft)
06.12.2023 11:56 21,6 °C 2,2 °C 46 % 93 % 1011,6 hPa 0,0 l/m² 7,6 km/h (2 Bft) SW 216 ° 2 min 86 W/m² 1,2 °C 1,0 °C 9,7 km/h (2 Bft)
06.12.2023 11:58 21,6 °C 2,2 °C 46 % 93 % 1011,4 hPa 0,0 l/m² 6,1 km/h (2 Bft) S-SW 209 ° 2 min 86 W/m² 1,2 °C 2,2 °C 8,0 km/h (2 Bft)
06.12.2023 12:00 21,6 °C 2,3 °C 46 % 93 % 1011,5 hPa 0,0 l/m² 7,0 km/h (2 Bft) S-SW 208 ° 2 min 90 W/m² 1,3 °C 1,7 °C 9,7 km/h (2 Bft)
06.12.2023 12:02 21,6 °C 2,2 °C 46 % 93 % 1011,5 hPa 0,2 l/m² 6,9 km/h (2 Bft) S-SW 213 ° 2 min 90 W/m² 1,2 °C 1,7 °C 9,7 km/h (2 Bft)
06.12.2023 12:03 21,6 °C 2,2 °C 46 % 93 % 1011,5 hPa 0,0 l/m² 8,2 km/h (2 Bft) S 187 ° 1 min 90 W/m² 1,2 °C 0,5 °C 11,3 km/h (2 Bft)
06.12.2023 12:04 21,6 °C 2,2 °C 46 % 93 % 1011,5 hPa 0,0 l/m² 8,3 km/h (2 Bft) S-SW 200 ° 1 min 90 W/m² 1,2 °C 0,4 °C 11,3 km/h (2 Bft)
06.12.2023 12:06 21,6 °C 2,2 °C 46 % 93 % 1011,5 hPa 0,0 l/m² 7,7 km/h (2 Bft) S-SW 196 ° 2 min 88 W/m² 1,2 °C 0,9 °C 9,7 km/h (2 Bft)
06.12.2023 12:08 21,6 °C 2,2 °C 46 % 93 % 1011,5 hPa 0,0 l/m² 7,2 km/h (2 Bft) S-SW 196 ° 2 min 86 W/m² 1,2 °C 1,4 °C 9,7 km/h (2 Bft)
06.12.2023 12:10 21,6 °C 2,3 °C 46 % 93 % 1011,5 hPa 0,0 l/m² 9,4 km/h (2 Bft) S-SW 198 ° 2 min 86 W/m² 1,3 °C -0,4 °C 12,9 km/h (3 Bft)
06.12.2023 12:12 21,6 °C 2,2 °C 46 % 93 % 1011,5 hPa 0,0 l/m² 8,9 km/h (2 Bft) S-SW 209 ° 2 min 86 W/m² 1,2 °C -0,1 °C 11,3 km/h (2 Bft)
06.12.2023 12:13 21,6 °C 2,3 °C 46 % 93 % 1011,4 hPa 0,0 l/m² 8,6 km/h (2 Bft) S-SW 199 ° 1 min 86 W/m² 1,3 °C 0,2 °C 12,9 km/h (3 Bft)
06.12.2023 12:14 21,6 °C 2,3 °C 46 % 93 % 1011,4 hPa 0,0 l/m² 7,6 km/h (2 Bft) SW 223 ° 1 min 86 W/m² 1,3 °C 1,1 °C 8,0 km/h (2 Bft)
06.12.2023 12:16 21,6 °C 2,3 °C 46 % 93 % 1011,5 hPa 0,0 l/m² 8,5 km/h (2 Bft) S-SW 202 ° 2 min 84 W/m² 1,3 °C 0,3 °C 11,3 km/h (2 Bft)
06.12.2023 12:18 21,6 °C 2,3 °C 46 % 93 % 1011,5 hPa 0,0 l/m² 7,0 km/h (2 Bft) S-SW 210 ° 2 min 83 W/m² 1,3 °C 1,7 °C 9,7 km/h (2 Bft)
06.12.2023 12:20 21,6 °C 2,3 °C 46 % 93 % 1011,5 hPa 0,0 l/m² 9,4 km/h (2 Bft) S-SW 204 ° 2 min 81 W/m² 1,3 °C -0,4 °C 12,9 km/h (3 Bft)
06.12.2023 12:22 21,6 °C 2,2 °C 46 % 93 % 1011,5 hPa 0,0 l/m² 9,6 km/h (2 Bft) S-SW 211 ° 2 min 79 W/m² 1,2 °C -0,7 °C 12,9 km/h (3 Bft)
06.12.2023 12:24 21,6 °C 2,3 °C 46 % 93 % 1011,5 hPa 0,0 l/m² 10,2 km/h (2 Bft) S-SW 194 ° 2 min 79 W/m² 1,3 °C -1,1 °C 14,5 km/h (3 Bft)
06.12.2023 12:26 21,6 °C 2,3 °C 46 % 93 % 1011,5 hPa 0,0 l/m² 9,8 km/h (2 Bft) S-SW 210 ° 2 min 81 W/m² 1,3 °C -0,8 °C 12,9 km/h (3 Bft)
06.12.2023 12:28 21,6 °C 2,3 °C 46 % 93 % 1011,5 hPa 0,0 l/m² 10,5 km/h (2 Bft) S-SW 196 ° 2 min 83 W/m² 1,3 °C -1,3 °C 14,5 km/h (3 Bft)
06.12.2023 12:30 21,6 °C 2,3 °C 46 % 93 % 1011,5 hPa 0,0 l/m² 10,1 km/h (2 Bft) S-SW 206 ° 2 min 83 W/m² 1,3 °C -1,0 °C 16,1 km/h (3 Bft)
06.12.2023 12:32 21,6 °C 2,3 °C 46 % 93 % 1011,5 hPa 0,2 l/m² 11,3 km/h (2 Bft) S-SW 204 ° 2 min 83 W/m² 1,3 °C -1,9 °C 12,9 km/h (3 Bft)
06.12.2023 12:34 21,6 °C 2,3 °C 46 % 93 % 1011,6 hPa 0,0 l/m² 10,9 km/h (2 Bft) S-SW 200 ° 2 min 81 W/m² 1,3 °C -1,6 °C 14,5 km/h (3 Bft)
06.12.2023 12:36 21,6 °C 2,3 °C 46 % 93 % 1011,6 hPa 0,0 l/m² 9,8 km/h (2 Bft) S-SW 205 ° 2 min 79 W/m² 1,3 °C -0,8 °C 14,5 km/h (3 Bft)
06.12.2023 12:38 21,6 °C 2,3 °C 46 % 93 % 1011,6 hPa 0,0 l/m² 10,3 km/h (2 Bft) S-SW 200 ° 2 min 79 W/m² 1,3 °C -1,1 °C 12,9 km/h (3 Bft)
06.12.2023 12:40 21,6 °C 2,3 °C 46 % 93 % 1011,5 hPa 0,0 l/m² 9,3 km/h (2 Bft) S-SW 203 ° 2 min 81 W/m² 1,3 °C -0,4 °C 11,3 km/h (2 Bft)
06.12.2023 12:42 21,6 °C 2,3 °C 46 % 93 % 1011,5 hPa 0,0 l/m² 9,0 km/h (2 Bft) S-SW 202 ° 2 min 83 W/m² 1,3 °C -0,1 °C 11,3 km/h (2 Bft)
06.12.2023 12:43 21,6 °C 2,3 °C 46 % 93 % 1011,6 hPa 0,0 l/m² 10,8 km/h (2 Bft) S-SW 199 ° 1 min 84 W/m² 1,3 °C -1,5 °C 12,9 km/h (3 Bft)
06.12.2023 12:44 21,6 °C 2,3 °C 46 % 93 % 1011,6 hPa 0,0 l/m² 11,3 km/h (2 Bft) S-SW 209 ° 1 min 84 W/m² 1,3 °C -1,9 °C 12,9 km/h (3 Bft)
06.12.2023 12:45 21,6 °C 2,3 °C 46 % 93 % 1011,5 hPa 0,0 l/m² 10,7 km/h (2 Bft) S-SW 206 ° 1 min 86 W/m² 1,3 °C -1,4 °C 12,9 km/h (3 Bft)
06.12.2023 12:47 21,6 °C 2,3 °C 46 % 93 % 1011,6 hPa 0,0 l/m² 10,4 km/h (2 Bft) S-SW 209 ° 2 min 91 W/m² 1,3 °C -1,2 °C 12,9 km/h (3 Bft)
06.12.2023 12:48 21,6 °C 2,3 °C 46 % 93 % 1011,6 hPa 0,0 l/m² 8,0 km/h (2 Bft) S-SW 202 ° 1 min 93 W/m² 1,3 °C 0,8 °C 9,7 km/h (2 Bft)
06.12.2023 12:50 21,6 °C 2,3 °C 46 % 93 % 1011,6 hPa 0,0 l/m² 8,6 km/h (2 Bft) S-SW 207 ° 2 min 100 W/m² 1,3 °C 0,2 °C 11,3 km/h (2 Bft)
06.12.2023 12:52 21,6 °C 2,3 °C 46 % 93 % 1011,4 hPa 0,0 l/m² 10,2 km/h (2 Bft) S-SW 204 ° 2 min 109 W/m² 1,3 °C -1,1 °C 12,9 km/h (3 Bft)
06.12.2023 12:53 21,6 °C 2,3 °C 46 % 93 % 1011,5 hPa 0,0 l/m² 8,0 km/h (2 Bft) SW 216 ° 1 min 111 W/m² 1,3 °C 0,8 °C 9,7 km/h (2 Bft)
06.12.2023 12:54 21,7 °C 2,3 °C 46 % 93 % 1011,5 hPa 0,0 l/m² 6,7 km/h (2 Bft) S-SW 205 ° 1 min 113 W/m² 1,3 °C 2,0 °C 9,7 km/h (2 Bft)
06.12.2023 12:55 21,7 °C 2,3 °C 46 % 93 % 1011,5 hPa 0,0 l/m² 8,5 km/h (2 Bft) S-SW 209 ° 1 min 114 W/m² 1,3 °C 0,3 °C 9,7 km/h (2 Bft)
06.12.2023 12:57 21,7 °C 2,3 °C 46 % 92 % 1011,4 hPa 0,0 l/m² 9,3 km/h (2 Bft) S-SW 200 ° 2 min 116 W/m² 1,1 °C -0,4 °C 12,9 km/h (3 Bft)
06.12.2023 12:59 21,7 °C 2,3 °C 46 % 92 % 1011,5 hPa 0,0 l/m² 9,0 km/h (2 Bft) S-SW 210 ° 2 min 114 W/m² 1,1 °C -0,1 °C 12,9 km/h (3 Bft)
06.12.2023 13:01 21,7 °C 2,4 °C 47 % 92 % 1011,5 hPa 0,0 l/m² 8,7 km/h (2 Bft) SW 219 ° 2 min 114 W/m² 1,2 °C 0,3 °C 11,3 km/h (2 Bft)
06.12.2023 13:03 21,7 °C 2,4 °C 47 % 92 % 1011,5 hPa 0,0 l/m² 9,5 km/h (2 Bft) SW 227 ° 2 min 114 W/m² 1,2 °C -0,4 °C 12,9 km/h (3 Bft)
06.12.2023 13:05 21,7 °C 2,4 °C 47 % 92 % 1011,6 hPa 0,0 l/m² 6,8 km/h (2 Bft) SW 224 ° 2 min 114 W/m² 1,2 °C 2,0 °C 9,7 km/h (2 Bft)
06.12.2023 13:07 21,7 °C 2,4 °C 47 % 92 % 1011,5 hPa 0,0 l/m² 5,7 km/h (2 Bft) SW 221 ° 2 min 111 W/m² 1,2 °C 2,4 °C 8,0 km/h (2 Bft)
06.12.2023 13:09 21,7 °C 2,4 °C 47 % 92 % 1011,5 hPa 0,0 l/m² 8,7 km/h (2 Bft) SW 220 ° 2 min 107 W/m² 1,2 °C 0,3 °C 11,3 km/h (2 Bft)
06.12.2023 13:11 21,7 °C 2,4 °C 47 % 92 % 1011,5 hPa 0,0 l/m² 6,2 km/h (2 Bft) SW 220 ° 2 min 102 W/m² 1,2 °C 2,4 °C 9,7 km/h (2 Bft)
06.12.2023 13:13 21,7 °C 2,4 °C 47 % 92 % 1011,6 hPa 0,0 l/m² 6,0 km/h (2 Bft) S-SW 207 ° 2 min 100 W/m² 1,2 °C 2,4 °C 8,0 km/h (2 Bft)
06.12.2023 13:15 21,7 °C 2,4 °C 47 % 92 % 1011,6 hPa 0,0 l/m² 8,9 km/h (2 Bft) SW 218 ° 2 min 98 W/m² 1,2 °C 0,1 °C 11,3 km/h (2 Bft)
06.12.2023 13:17 21,7 °C 2,4 °C 47 % 92 % 1011,6 hPa 0,2 l/m² 6,8 km/h (2 Bft) SW 221 ° 2 min 97 W/m² 1,2 °C 2,0 °C 9,7 km/h (2 Bft)
06.12.2023 13:19 21,7 °C 2,4 °C 47 % 92 % 1011,6 hPa 0,0 l/m² 4,9 km/h (1 Bft) SW 223 ° 2 min 95 W/m² 1,2 °C 2,4 °C 8,0 km/h (2 Bft)
06.12.2023 13:21 21,7 °C 2,4 °C 47 % 92 % 1011,5 hPa 0,0 l/m² 6,2 km/h (2 Bft) S-SW 213 ° 2 min 93 W/m² 1,2 °C 2,4 °C 9,7 km/h (2 Bft)
06.12.2023 13:23 21,7 °C 2,4 °C 47 % 92 % 1011,5 hPa 0,0 l/m² 7,1 km/h (2 Bft) SW 217 ° 2 min 91 W/m² 1,2 °C 1,7 °C 9,7 km/h (2 Bft)
06.12.2023 13:25 21,7 °C 2,4 °C 47 % 92 % 1011,5 hPa 0,0 l/m² 8,0 km/h (2 Bft) SW 218 ° 2 min 90 W/m² 1,2 °C 0,9 °C 11,3 km/h (2 Bft)
06.12.2023 13:27 21,7 °C 2,4 °C 47 % 92 % 1011,6 hPa 0,0 l/m² 7,2 km/h (2 Bft) S-SW 213 ° 2 min 88 W/m² 1,2 °C 1,6 °C 9,7 km/h (2 Bft)
06.12.2023 13:28 21,7 °C 2,4 °C 47 % 92 % 1011,5 hPa 0,0 l/m² 7,4 km/h (2 Bft) S-SW 211 ° 1 min 88 W/m² 1,2 °C 1,4 °C 9,7 km/h (2 Bft)
06.12.2023 13:29 21,7 °C 2,4 °C 47 % 92 % 1011,6 hPa 0,0 l/m² 7,9 km/h (2 Bft) S-SW 213 ° 1 min 86 W/m² 1,2 °C 1,0 °C 9,7 km/h (2 Bft)
06.12.2023 13:30 21,7 °C 2,4 °C 47 % 92 % 1011,6 hPa 0,0 l/m² 8,6 km/h (2 Bft) SW 215 ° 1 min 86 W/m² 1,2 °C 0,3 °C 9,7 km/h (2 Bft)
06.12.2023 13:32 21,8 °C 2,4 °C 47 % 92 % 1011,6 hPa 0,0 l/m² 9,9 km/h (2 Bft) S-SW 211 ° 2 min 84 W/m² 1,2 °C -0,7 °C 14,5 km/h (3 Bft)
06.12.2023 13:34 21,8 °C 2,4 °C 47 % 92 % 1011,6 hPa 0,0 l/m² 10,6 km/h (2 Bft) S-SW 211 ° 2 min 83 W/m² 1,2 °C -1,3 °C 12,9 km/h (3 Bft)
06.12.2023 13:36 21,8 °C 2,4 °C 47 % 92 % 1011,6 hPa 0,0 l/m² 9,1 km/h (2 Bft) SW 222 ° 2 min 79 W/m² 1,2 °C -0,1 °C 12,9 km/h (3 Bft)
06.12.2023 13:38 21,8 °C 2,3 °C 47 % 92 % 1011,7 hPa 0,0 l/m² 9,8 km/h (2 Bft) S-SW 211 ° 2 min 74 W/m² 1,1 °C -0,8 °C 12,9 km/h (3 Bft)
06.12.2023 13:40 21,8 °C 2,3 °C 47 % 92 % 1011,7 hPa 0,0 l/m² 8,3 km/h (2 Bft) SW 215 ° 2 min 67 W/m² 1,1 °C 0,5 °C 11,3 km/h (2 Bft)
06.12.2023 13:42 21,8 °C 2,3 °C 47 % 92 % 1011,8 hPa 0,0 l/m² 9,0 km/h (2 Bft) S-SW 213 ° 2 min 63 W/m² 1,1 °C -0,1 °C 12,9 km/h (3 Bft)
06.12.2023 13:43 21,8 °C 2,3 °C 47 % 92 % 1011,8 hPa 0,0 l/m² 12,2 km/h (2 Bft) S-SW 212 ° 1 min 63 W/m² 1,1 °C -2,5 °C 14,5 km/h (3 Bft)
06.12.2023 13:44 21,8 °C 2,3 °C 47 % 92 % 1011,8 hPa 0,0 l/m² 10,5 km/h (2 Bft) S-SW 211 ° 1 min 62 W/m² 1,1 °C -1,3 °C 12,9 km/h (3 Bft)
06.12.2023 13:46 21,8 °C 2,3 °C 47 % 92 % 1011,8 hPa 0,0 l/m² 8,3 km/h (2 Bft) SW 217 ° 2 min 63 W/m² 1,1 °C 0,5 °C 11,3 km/h (2 Bft)
06.12.2023 13:48 21,8 °C 2,3 °C 47 % 92 % 1011,8 hPa 0,0 l/m² 8,6 km/h (2 Bft) S-SW 213 ° 2 min 63 W/m² 1,1 °C 0,2 °C 9,7 km/h (2 Bft)
06.12.2023 13:50 21,8 °C 2,3 °C 47 % 91 % 1011,7 hPa 0,0 l/m² 9,3 km/h (2 Bft) SW 217 ° 2 min 65 W/m² 1,0 °C -0,4 °C 14,5 km/h (3 Bft)
06.12.2023 13:52 21,8 °C 2,3 °C 47 % 92 % 1011,8 hPa 0,0 l/m² 11,0 km/h (2 Bft) SW 217 ° 2 min 65 W/m² 1,1 °C -1,7 °C 12,9 km/h (3 Bft)
06.12.2023 13:54 21,8 °C 2,3 °C 47 % 91 % 1011,9 hPa 0,0 l/m² 9,4 km/h (2 Bft) SW 223 ° 2 min 67 W/m² 1,0 °C -0,4 °C 11,3 km/h (2 Bft)
06.12.2023 13:56 21,8 °C 2,3 °C 47 % 91 % 1011,9 hPa 0,0 l/m² 10,3 km/h (2 Bft) SW 222 ° 2 min 70 W/m² 1,0 °C -1,1 °C 14,5 km/h (3 Bft)
06.12.2023 13:58 21,8 °C 2,3 °C 47 % 91 % 1011,9 hPa 0,0 l/m² 8,9 km/h (2 Bft) S-SW 200 ° 2 min 72 W/m² 1,0 °C -0,0 °C 12,9 km/h (3 Bft)
06.12.2023 14:00 21,8 °C 2,3 °C 47 % 91 % 1012,0 hPa 0,0 l/m² 10,9 km/h (2 Bft) SW 219 ° 2 min 72 W/m² 1,0 °C -1,6 °C 14,5 km/h (3 Bft)
06.12.2023 14:02 21,8 °C 2,3 °C 47 % 91 % 1012,0 hPa 0,0 l/m² 12,1 km/h (2 Bft) W-SW 239 ° 2 min 69 W/m² 1,0 °C -2,4 °C 16,1 km/h (3 Bft)
06.12.2023 14:04 21,8 °C 2,2 °C 47 % 91 % 1012,0 hPa 0,0 l/m² 15,0 km/h (3 Bft) SW 236 ° 2 min 69 W/m² 0,9 °C -4,3 °C 22,5 km/h (4 Bft)
06.12.2023 14:06 21,8 °C 2,2 °C 47 % 91 % 1012,0 hPa 0,0 l/m² 12,1 km/h (2 Bft) SW 236 ° 2 min 67 W/m² 0,9 °C -2,5 °C 19,3 km/h (3 Bft)
06.12.2023 14:08 21,8 °C 2,2 °C 47 % 91 % 1012,0 hPa 0,0 l/m² 14,1 km/h (3 Bft) W-SW 250 ° 2 min 62 W/m² 0,9 °C -3,8 °C 20,9 km/h (4 Bft)
06.12.2023 14:10 21,8 °C 2,2 °C 47 % 91 % 1012,0 hPa 0,0 l/m² 10,4 km/h (2 Bft) W-SW 240 ° 2 min 58 W/m² 0,9 °C -1,3 °C 16,1 km/h (3 Bft)
06.12.2023 14:12 21,8 °C 2,2 °C 47 % 91 % 1012,0 hPa 0,0 l/m² 9,5 km/h (2 Bft) SW 218 ° 2 min 58 W/m² 0,9 °C -0,6 °C 14,5 km/h (3 Bft)
06.12.2023 14:14 21,8 °C 2,1 °C 47 % 91 % 1012,1 hPa 0,0 l/m² 7,0 km/h (2 Bft) SW 219 ° 2 min 56 W/m² 0,8 °C 1,5 °C 11,3 km/h (2 Bft)
06.12.2023 14:16 21,8 °C 2,1 °C 47 % 91 % 1012,1 hPa 0,0 l/m² 7,4 km/h (2 Bft) SW 220 ° 2 min 56 W/m² 0,8 °C 1,1 °C 11,3 km/h (2 Bft)
06.12.2023 14:18 21,8 °C 2,1 °C 47 % 91 % 1012,1 hPa 0,0 l/m² 6,1 km/h (2 Bft) SW 215 ° 2 min 60 W/m² 0,8 °C 2,1 °C 8,0 km/h (2 Bft)
06.12.2023 14:20 21,8 °C 2,1 °C 47 % 91 % 1012,1 hPa 0,0 l/m² 5,6 km/h (2 Bft) S-SW 209 ° 2 min 65 W/m² 0,8 °C 2,1 °C 6,4 km/h (2 Bft)
06.12.2023 14:22 21,8 °C 2,1 °C 47 % 91 % 1012,0 hPa 0,2 l/m² 6,5 km/h (2 Bft) SW 217 ° 2 min 69 W/m² 0,8 °C 2,0 °C 8,0 km/h (2 Bft)
06.12.2023 14:24 21,8 °C 2,1 °C 47 % 91 % 1012,1 hPa 0,0 l/m² 5,2 km/h (1 Bft) SW 217 ° 2 min 69 W/m² 0,8 °C 2,1 °C 6,4 km/h (2 Bft)
06.12.2023 14:26 21,8 °C 2,1 °C 47 % 91 % 1012,2 hPa 0,0 l/m² 6,2 km/h (2 Bft) SW 217 ° 2 min 70 W/m² 0,8 °C 2,1 °C 8,0 km/h (2 Bft)
06.12.2023 14:28 21,8 °C 2,1 °C 47 % 91 % 1012,2 hPa 0,0 l/m² 5,0 km/h (1 Bft) S-SW 209 ° 2 min 70 W/m² 0,8 °C 2,1 °C 8,0 km/h (2 Bft)
06.12.2023 14:30 21,9 °C 2,1 °C 47 % 91 % 1012,2 hPa 0,0 l/m² 6,9 km/h (2 Bft) S-SW 213 ° 2 min 67 W/m² 0,8 °C 1,6 °C 9,7 km/h (2 Bft)
06.12.2023 14:32 21,8 °C 2,1 °C 47 % 91 % 1012,3 hPa 0,0 l/m² 7,3 km/h (2 Bft) S-SW 209 ° 2 min 60 W/m² 0,8 °C 1,2 °C 11,3 km/h (2 Bft)
06.12.2023 14:34 21,8 °C 2,1 °C 47 % 91 % 1012,2 hPa 0,0 l/m² 6,1 km/h (2 Bft) S-SW 213 ° 2 min 56 W/m² 0,8 °C 2,1 °C 8,0 km/h (2 Bft)
06.12.2023 14:36 21,8 °C 2,1 °C 47 % 91 % 1012,3 hPa 0,0 l/m² 4,9 km/h (1 Bft) S-SW 207 ° 2 min 56 W/m² 0,8 °C 2,1 °C 8,0 km/h (2 Bft)
06.12.2023 14:38 21,8 °C 2,1 °C 47 % 91 % 1012,3 hPa 0,0 l/m² 6,5 km/h (2 Bft) S-SW 213 ° 2 min 54 W/m² 0,8 °C 2,0 °C 9,7 km/h (2 Bft)
06.12.2023 14:40 21,8 °C 2,1 °C 47 % 91 % 1012,3 hPa 0,0 l/m² 7,5 km/h (2 Bft) S-SW 211 ° 2 min 53 W/m² 0,8 °C 1,0 °C 11,3 km/h (2 Bft)
06.12.2023 14:42 21,9 °C 2,1 °C 47 % 91 % 1012,2 hPa 0,0 l/m² 7,5 km/h (2 Bft) SW 219 ° 0 min 51 W/m² 0,8 °C 1,0 °C 11,3 km/h (2 Bft)
06.12.2023 14:44 21,8 °C 2,0 °C 47 % 91 % 1012,2 hPa 0,0 l/m² 6,7 km/h (2 Bft) SW 219 ° 0 min 47 W/m² 0,7 °C 1,7 °C 9,7 km/h (2 Bft)
06.12.2023 14:46 21,9 °C 2,0 °C 47 % 91 % 1012,3 hPa 0,0 l/m² 7,9 km/h (2 Bft) SW 225 ° 0 min 46 W/m² 0,7 °C 0,5 °C 11,3 km/h (2 Bft)
06.12.2023 14:48 21,9 °C 2,1 °C 47 % 91 % 1012,2 hPa 0,0 l/m² 6,6 km/h (2 Bft) S-SW 207 ° 0 min 42 W/m² 0,8 °C 1,9 °C 9,7 km/h (2 Bft)
06.12.2023 14:50 21,9 °C 2,1 °C 47 % 91 % 1012,3 hPa 0,0 l/m² 7,6 km/h (2 Bft) S-SW 207 ° 0 min 37 W/m² 0,8 °C 0,9 °C 9,7 km/h (2 Bft)
06.12.2023 14:52 21,9 °C 2,0 °C 47 % 91 % 1012,4 hPa 0,0 l/m² 7,7 km/h (2 Bft) S-SW 209 ° 0 min 35 W/m² 0,7 °C 0,7 °C 9,7 km/h (2 Bft)
06.12.2023 14:54 21,9 °C 2,1 °C 47 % 91 % 1012,4 hPa 0,0 l/m² 6,5 km/h (2 Bft) S-SW 210 ° 0 min 35 W/m² 0,8 °C 2,0 °C 8,0 km/h (2 Bft)
06.12.2023 14:56 21,9 °C 2,1 °C 47 % 91 % 1012,4 hPa 0,0 l/m² 7,2 km/h (2 Bft) S-SW 212 ° 0 min 33 W/m² 0,8 °C 1,3 °C 9,7 km/h (2 Bft)
06.12.2023 14:58 21,9 °C 2,1 °C 47 % 91 % 1012,4 hPa 0,0 l/m² 5,1 km/h (1 Bft) S-SW 211 ° 0 min 32 W/m² 0,8 °C 2,1 °C 8,0 km/h (2 Bft)
06.12.2023 15:00 21,8 °C 2,0 °C 47 % 91 % 1012,4 hPa 0,0 l/m² 6,1 km/h (2 Bft) S-SW 207 ° 0 min 30 W/m² 0,7 °C 2,0 °C 9,7 km/h (2 Bft)
06.12.2023 15:02 21,9 °C 2,0 °C 47 % 91 % 1012,4 hPa 0,0 l/m² 6,4 km/h (2 Bft) S-SW 213 ° 0 min 28 W/m² 0,7 °C 2,0 °C 8,0 km/h (2 Bft)
06.12.2023 15:04 21,9 °C 2,0 °C 47 % 91 % 1012,4 hPa 0,0 l/m² 7,9 km/h (2 Bft) SW 217 ° 0 min 28 W/m² 0,7 °C 0,5 °C 9,7 km/h (2 Bft)
06.12.2023 15:06 21,9 °C 2,0 °C 47 % 91 % 1012,4 hPa 0,0 l/m² 7,2 km/h (2 Bft) S-SW 212 ° 0 min 26 W/m² 0,7 °C 1,2 °C 11,3 km/h (2 Bft)
06.12.2023 15:08 21,8 °C 2,0 °C 47 % 91 % 1012,4 hPa 0,0 l/m² 8,1 km/h (2 Bft) S-SW 211 ° 0 min 26 W/m² 0,7 °C 0,4 °C 9,7 km/h (2 Bft)
06.12.2023 15:10 21,9 °C 2,0 °C 47 % 91 % 1012,5 hPa 0,0 l/m² 7,4 km/h (2 Bft) SW 218 ° 0 min 26 W/m² 0,7 °C 1,0 °C 9,7 km/h (2 Bft)
06.12.2023 15:12 21,8 °C 2,0 °C 47 % 91 % 1012,5 hPa 0,0 l/m² 5,9 km/h (2 Bft) S-SW 213 ° 0 min 26 W/m² 0,7 °C 2,0 °C 8,0 km/h (2 Bft)
06.12.2023 15:14 21,9 °C 2,0 °C 47 % 91 % 1012,5 hPa 0,0 l/m² 7,9 km/h (2 Bft) SW 216 ° 0 min 25 W/m² 0,7 °C 0,5 °C 11,3 km/h (2 Bft)
06.12.2023 15:16 21,9 °C 1,9 °C 47 % 91 % 1012,5 hPa 0,0 l/m² 6,3 km/h (2 Bft) SW 217 ° 0 min 23 W/m² 0,6 °C 1,9 °C 9,7 km/h (2 Bft)
06.12.2023 15:18 21,8 °C 1,9 °C 47 % 91 % 1012,5 hPa 0,0 l/m² 8,1 km/h (2 Bft) SW 227 ° 0 min 21 W/m² 0,6 °C 0,3 °C 12,9 km/h (3 Bft)
06.12.2023 15:20 21,8 °C 1,9 °C 47 % 91 % 1012,6 hPa 0,0 l/m² 9,1 km/h (2 Bft) SW 217 ° 0 min 19 W/m² 0,6 °C -0,6 °C 11,3 km/h (2 Bft)
06.12.2023 15:22 21,9 °C 1,9 °C 47 % 91 % 1012,5 hPa 0,0 l/m² 8,1 km/h (2 Bft) S-SW 213 ° 0 min 19 W/m² 0,6 °C 0,3 °C 11,3 km/h (2 Bft)
06.12.2023 15:24 21,9 °C 1,9 °C 47 % 91 % 1012,5 hPa 0,0 l/m² 9,8 km/h (2 Bft) S-SW 212 ° 0 min 18 W/m² 0,6 °C -1,2 °C 12,9 km/h (3 Bft)
06.12.2023 15:26 21,8 °C 1,9 °C 47 % 91 % 1012,6 hPa 0,0 l/m² 9,1 km/h (2 Bft) S-SW 209 ° 0 min 16 W/m² 0,6 °C -0,6 °C 12,9 km/h (3 Bft)
06.12.2023 15:28 21,8 °C 1,9 °C 47 % 91 % 1012,6 hPa 0,0 l/m² 8,5 km/h (2 Bft) SW 215 ° 0 min 16 W/m² 0,6 °C -0,1 °C 11,3 km/h (2 Bft)
06.12.2023 15:30 21,8 °C 1,9 °C 47 % 91 % 1012,7 hPa 0,0 l/m² 6,9 km/h (2 Bft) SW 217 ° 0 min 14 W/m² 0,6 °C 1,4 °C 8,0 km/h (2 Bft)
06.12.2023 15:32 21,8 °C 1,9 °C 47 % 91 % 1012,7 hPa 0,0 l/m² 6,7 km/h (2 Bft) SW 215 ° 0 min 14 W/m² 0,6 °C 1,6 °C 9,7 km/h (2 Bft)
06.12.2023 15:34 21,8 °C 1,9 °C 47 % 91 % 1012,7 hPa 0,0 l/m² 7,3 km/h (2 Bft) SW 225 ° 0 min 14 W/m² 0,6 °C 1,0 °C 11,3 km/h (2 Bft)
06.12.2023 15:36 21,8 °C 1,9 °C 47 % 91 % 1012,7 hPa 0,0 l/m² 7,5 km/h (2 Bft) SW 230 ° 0 min 12 W/m² 0,6 °C 0,8 °C 11,3 km/h (2 Bft)
06.12.2023 15:38 21,8 °C 1,9 °C 47 % 91 % 1012,7 hPa 0,0 l/m² 8,2 km/h (2 Bft) SW 226 ° 0 min 11 W/m² 0,6 °C 0,2 °C 11,3 km/h (2 Bft)
06.12.2023 15:40 21,8 °C 1,9 °C 47 % 91 % 1012,7 hPa 0,0 l/m² 7,6 km/h (2 Bft) SW 223 ° 0 min 9 W/m² 0,6 °C 0,7 °C 11,3 km/h (2 Bft)
06.12.2023 15:42 21,8 °C 1,9 °C 47 % 91 % 1012,7 hPa 0,0 l/m² 9,1 km/h (2 Bft) SW 232 ° 0 min 7 W/m² 0,6 °C -0,6 °C 12,9 km/h (3 Bft)
06.12.2023 15:44 21,8 °C 1,9 °C 47 % 91 % 1012,8 hPa 0,0 l/m² 9,4 km/h (2 Bft) SW 218 ° 0 min 7 W/m² 0,6 °C -0,9 °C 12,9 km/h (3 Bft)
06.12.2023 15:46 21,8 °C 1,9 °C 47 % 91 % 1012,8 hPa 0,0 l/m² 7,4 km/h (2 Bft) SW 230 ° 0 min 5 W/m² 0,6 °C 0,9 °C 12,9 km/h (3 Bft)
06.12.2023 15:47 21,8 °C 1,9 °C 47 % 91 % 1012,8 hPa 0,0 l/m² 7,9 km/h (2 Bft) W-SW 247 ° 0 min 5 W/m² 0,6 °C 0,4 °C 11,3 km/h (2 Bft)
06.12.2023 15:48 21,8 °C 1,9 °C 47 % 91 % 1012,8 hPa 0,0 l/m² 7,2 km/h (2 Bft) W-SW 248 ° 0 min 5 W/m² 0,6 °C 1,1 °C 9,7 km/h (2 Bft)
06.12.2023 15:50 21,8 °C 1,9 °C 47 % 91 % 1012,8 hPa 0,0 l/m² 6,0 km/h (2 Bft) SW 226 ° 0 min 5 W/m² 0,6 °C 1,9 °C 9,7 km/h (2 Bft)
06.12.2023 15:52 21,8 °C 1,9 °C 47 % 91 % 1012,8 hPa 0,0 l/m² 5,2 km/h (1 Bft) SW 230 ° 0 min 5 W/m² 0,6 °C 1,9 °C 9,7 km/h (2 Bft)
06.12.2023 15:54 21,8 °C 1,8 °C 47 % 91 % 1012,8 hPa 0,0 l/m² 3,6 km/h (1 Bft) SW 227 ° 0 min 5 W/m² 0,5 °C 1,8 °C 6,4 km/h (2 Bft)
06.12.2023 15:56 21,8 °C 1,9 °C 47 % 91 % 1012,8 hPa 0,0 l/m² 4,9 km/h (1 Bft) SW 224 ° 0 min 0 W/m² 0,6 °C 1,9 °C 8,0 km/h (2 Bft)
06.12.2023 15:58 21,8 °C 1,8 °C 47 % 91 % 1012,9 hPa 0,0 l/m² 4,5 km/h (1 Bft) SW 227 ° 0 min 0 W/m² 0,5 °C 1,8 °C 6,4 km/h (2 Bft)
06.12.2023 16:00 21,8 °C 1,8 °C 47 % 91 % 1012,9 hPa 0,0 l/m² 5,0 km/h (1 Bft) SW 217 ° 0 min 0 W/m² 0,5 °C 1,8 °C 9,7 km/h (2 Bft)
06.12.2023 16:02 21,8 °C 1,8 °C 47 % 91 % 1012,9 hPa 0,0 l/m² 5,9 km/h (2 Bft) SW 218 ° 0 min 0 W/m² 0,5 °C 1,8 °C 6,4 km/h (2 Bft)
06.12.2023 16:04 21,8 °C 1,8 °C 48 % 91 % 1012,9 hPa 0,0 l/m² 5,0 km/h (1 Bft) SW 222 ° 0 min 0 W/m² 0,5 °C 1,8 °C 6,4 km/h (2 Bft)
06.12.2023 16:06 21,8 °C 1,8 °C 48 % 91 % 1013,0 hPa 0,0 l/m² 7,1 km/h (2 Bft) SW 234 ° 0 min 0 W/m² 0,5 °C 1,1 °C 9,7 km/h (2 Bft)
06.12.2023 16:08 21,8 °C 1,8 °C 48 % 91 % 1013,0 hPa 0,0 l/m² 6,2 km/h (2 Bft) SW 236 ° 0 min 0 W/m² 0,5 °C 1,8 °C 9,7 km/h (2 Bft)
06.12.2023 16:10 21,8 °C 1,8 °C 48 % 91 % 1013,0 hPa 0,0 l/m² 5,6 km/h (2 Bft) SW 221 ° 0 min 0 W/m² 0,5 °C 1,8 °C 11,3 km/h (2 Bft)
06.12.2023 16:12 21,8 °C 1,8 °C 48 % 91 % 1013,0 hPa 0,0 l/m² 7,0 km/h (2 Bft) SW 229 ° 0 min 0 W/m² 0,5 °C 1,2 °C 12,9 km/h (3 Bft)
06.12.2023 16:14 21,8 °C 1,7 °C 48 % 91 % 1013,0 hPa 0,0 l/m² 6,3 km/h (2 Bft) SW 222 ° 0 min 0 W/m² 0,4 °C 1,7 °C 9,7 km/h (2 Bft)
06.12.2023 16:16 21,8 °C 1,7 °C 48 % 91 % 1013,0 hPa 0,0 l/m² 6,8 km/h (2 Bft) SW 234 ° 0 min 0 W/m² 0,4 °C 1,3 °C 9,7 km/h (2 Bft)
06.12.2023 16:18 21,8 °C 1,7 °C 48 % 91 % 1013,0 hPa 0,0 l/m² 6,4 km/h (2 Bft) SW 233 ° 0 min 0 W/m² 0,4 °C 1,7 °C 11,3 km/h (2 Bft)
06.12.2023 16:20 21,8 °C 1,7 °C 48 % 91 % 1013,0 hPa 0,0 l/m² 8,7 km/h (2 Bft) W-SW 242 ° 0 min 0 W/m² 0,4 °C -0,5 °C 12,9 km/h (3 Bft)
06.12.2023 16:22 21,8 °C 1,7 °C 48 % 91 % 1013,1 hPa 0,0 l/m² 7,9 km/h (2 Bft) W-SW 257 ° 0 min 0 W/m² 0,4 °C 0,2 °C 11,3 km/h (2 Bft)
06.12.2023 16:24 21,9 °C 1,7 °C 48 % 90 % 1013,0 hPa 0,0 l/m² 8,8 km/h (2 Bft) W-SW 246 ° 0 min 0 W/m² 0,2 °C -0,6 °C 11,3 km/h (2 Bft)
06.12.2023 16:26 21,8 °C 1,6 °C 48 % 90 % 1013,1 hPa 0,0 l/m² 7,2 km/h (2 Bft) SW 229 ° 0 min 0 W/m² 0,1 °C 0,8 °C 9,7 km/h (2 Bft)
06.12.2023 16:28 21,8 °C 1,6 °C 48 % 90 % 1013,1 hPa 0,0 l/m² 6,8 km/h (2 Bft) W-SW 241 ° 0 min 0 W/m² 0,1 °C 1,2 °C 9,7 km/h (2 Bft)
06.12.2023 16:30 21,8 °C 1,6 °C 48 % 90 % 1013,2 hPa 0,0 l/m² 4,9 km/h (1 Bft) SW 232 ° 0 min 0 W/m² 0,1 °C 1,6 °C 8,0 km/h (2 Bft)
06.12.2023 16:32 21,8 °C 1,6 °C 48 % 90 % 1013,1 hPa 0,0 l/m² 3,1 km/h (1 Bft) W-SW 237 ° 0 min 0 W/m² 0,1 °C 1,6 °C 6,4 km/h (2 Bft)
06.12.2023 16:34 21,8 °C 1,6 °C 48 % 90 % 1013,2 hPa 0,0 l/m² 4,8 km/h (1 Bft) SW 229 ° 0 min 0 W/m² 0,1 °C 1,6 °C 8,0 km/h (2 Bft)
06.12.2023 16:36 21,9 °C 1,6 °C 48 % 90 % 1013,2 hPa 0,0 l/m² 4,7 km/h (1 Bft) SW 228 ° 0 min 0 W/m² 0,1 °C 1,6 °C 6,4 km/h (2 Bft)
06.12.2023 16:38 21,9 °C 1,6 °C 48 % 90 % 1013,2 hPa 0,0 l/m² 4,5 km/h (1 Bft) W-SW 239 ° 0 min 0 W/m² 0,1 °C 1,6 °C 6,4 km/h (2 Bft)
06.12.2023 16:40 21,9 °C 1,6 °C 48 % 90 % 1013,2 hPa 0,0 l/m² 5,8 km/h (2 Bft) SW 234 ° 0 min 0 W/m² 0,1 °C 1,6 °C 11,3 km/h (2 Bft)
06.12.2023 16:42 21,9 °C 1,6 °C 48 % 90 % 1013,3 hPa 0,0 l/m² 7,1 km/h (2 Bft) SW 223 ° 0 min 0 W/m² 0,1 °C 0,9 °C 11,3 km/h (2 Bft)
06.12.2023 16:44 21,9 °C 1,6 °C 48 % 90 % 1013,3 hPa 0,0 l/m² 4,9 km/h (1 Bft) W-SW 243 ° 0 min 0 W/m² 0,1 °C 1,6 °C 8,0 km/h (2 Bft)
06.12.2023 16:46 21,9 °C 1,6 °C 48 % 90 % 1013,3 hPa 0,0 l/m² 5,4 km/h (2 Bft) W-SW 244 ° 0 min 0 W/m² 0,1 °C 1,6 °C 9,7 km/h (2 Bft)
06.12.2023 16:48 21,9 °C 1,6 °C 48 % 90 % 1013,3 hPa 0,0 l/m² 8,1 km/h (2 Bft) W-SW 240 ° 0 min 0 W/m² 0,1 °C -0,1 °C 14,5 km/h (3 Bft)
06.12.2023 16:50 21,9 °C 1,6 °C 48 % 90 % 1013,4 hPa 0,0 l/m² 5,0 km/h (1 Bft) W-SW 238 ° 0 min 0 W/m² 0,1 °C 1,6 °C 8,0 km/h (2 Bft)
06.12.2023 16:52 21,9 °C 1,6 °C 48 % 90 % 1013,4 hPa 0,0 l/m² 7,3 km/h (2 Bft) SW 222 ° 0 min 0 W/m² 0,1 °C 0,7 °C 12,9 km/h (3 Bft)
06.12.2023 16:54 21,9 °C 1,6 °C 48 % 90 % 1013,4 hPa 0,0 l/m² 7,2 km/h (2 Bft) SW 234 ° 0 min 0 W/m² 0,1 °C 0,8 °C 11,3 km/h (2 Bft)
06.12.2023 16:56 21,9 °C 1,5 °C 48 % 90 % 1013,5 hPa 0,0 l/m² 7,0 km/h (2 Bft) SW 232 ° 0 min 0 W/m² 0,0 °C 0,9 °C 11,3 km/h (2 Bft)
06.12.2023 16:58 21,9 °C 1,5 °C 48 % 90 % 1013,5 hPa 0,0 l/m² 8,2 km/h (2 Bft) W-SW 250 ° 0 min 0 W/m² 0,0 °C -0,3 °C 12,9 km/h (3 Bft)
06.12.2023 17:00 21,9 °C 1,5 °C 48 % 90 % 1013,4 hPa 0,0 l/m² 8,1 km/h (2 Bft) W-SW 242 ° 0 min 0 W/m² 0,0 °C -0,2 °C 12,9 km/h (3 Bft)
06.12.2023 17:02 21,9 °C 1,6 °C 47 % 90 % 1013,5 hPa 0,0 l/m² 7,3 km/h (2 Bft) W-SW 242 ° 0 min 0 W/m² 0,1 °C 0,7 °C 12,9 km/h (3 Bft)
06.12.2023 17:04 21,9 °C 1,5 °C 47 % 90 % 1013,5 hPa 0,0 l/m² 8,7 km/h (2 Bft) SW 228 ° 0 min 0 W/m² 0,0 °C -0,7 °C 12,9 km/h (3 Bft)
06.12.2023 17:06 21,9 °C 1,5 °C 47 % 90 % 1013,6 hPa 0,0 l/m² 6,3 km/h (2 Bft) W-SW 243 ° 0 min 0 W/m² 0,0 °C 1,5 °C 11,3 km/h (2 Bft)
06.12.2023 17:08 21,9 °C 1,5 °C 47 % 90 % 1013,5 hPa 0,0 l/m² 5,9 km/h (2 Bft) SW 229 ° 0 min 0 W/m² 0,0 °C 1,5 °C 11,3 km/h (2 Bft)
06.12.2023 17:10 21,9 °C 1,5 °C 47 % 90 % 1013,6 hPa 0,0 l/m² 4,5 km/h (1 Bft) W-SW 242 ° 0 min 0 W/m² 0,0 °C 1,5 °C 8,0 km/h (2 Bft)
06.12.2023 17:12 21,9 °C 1,5 °C 47 % 90 % 1013,6 hPa 0,0 l/m² 5,1 km/h (1 Bft) SW 229 ° 0 min 0 W/m² 0,0 °C 1,5 °C 8,0 km/h (2 Bft)
06.12.2023 17:14 21,9 °C 1,6 °C 47 % 90 % 1013,6 hPa 0,0 l/m² 3,9 km/h (1 Bft) SW 231 ° 0 min 0 W/m² 0,1 °C 1,6 °C 6,4 km/h (2 Bft)
06.12.2023 17:16 21,9 °C 1,6 °C 47 % 90 % 1013,7 hPa 0,0 l/m² 2,5 km/h (1 Bft) SW 224 ° 0 min 0 W/m² 0,1 °C 1,6 °C 6,4 km/h (2 Bft)
06.12.2023 17:17 21,9 °C 1,5 °C 47 % 90 % 1013,7 hPa 0,0 l/m² 2,1 km/h (1 Bft) SW 224 ° 0 min 0 W/m² 0,0 °C 1,5 °C 3,2 km/h (1 Bft)
06.12.2023 17:18 21,9 °C 1,5 °C 47 % 90 % 1013,7 hPa 0,0 l/m² 0,9 km/h (0 Bft) SW 225 ° 0 min 0 W/m² 0,0 °C 1,5 °C 3,2 km/h (1 Bft)
06.12.2023 17:20 21,9 °C 1,5 °C 47 % 90 % 1013,8 hPa 0,0 l/m² 1,4 km/h (1 Bft) SW 226 ° 0 min 0 W/m² 0,0 °C 1,5 °C 3,2 km/h (1 Bft)
06.12.2023 17:22 21,9 °C 1,5 °C 47 % 90 % 1013,8 hPa 0,0 l/m² 2,1 km/h (1 Bft) W-SW 243 ° 0 min 0 W/m² 0,0 °C 1,5 °C 4,8 km/h (1 Bft)
06.12.2023 17:24 21,9 °C 1,6 °C 47 % 90 % 1013,9 hPa 0,0 l/m² 1,1 km/h (1 Bft) W-SW 238 ° 0 min 0 W/m² 0,1 °C 1,6 °C 4,8 km/h (1 Bft)
06.12.2023 17:26 21,9 °C 1,5 °C 47 % 90 % 1013,9 hPa 0,0 l/m² 0,4 km/h (0 Bft) W-SW 238 ° 0 min 0 W/m² 0,0 °C 1,5 °C 3,2 km/h (1 Bft)
06.12.2023 17:28 21,9 °C 1,5 °C 47 % 90 % 1014,0 hPa 0,0 l/m² 2,3 km/h (1 Bft) W-SW 244 ° 0 min 0 W/m² 0,0 °C 1,5 °C 4,8 km/h (1 Bft)
06.12.2023 17:30 21,9 °C 1,4 °C 47 % 90 % 1014,0 hPa 0,0 l/m² 2,5 km/h (1 Bft) W-SW 243 ° 0 min 0 W/m² -0,1 °C 1,4 °C 6,4 km/h (2 Bft)
06.12.2023 17:32 21,9 °C 1,5 °C 47 % 90 % 1014,0 hPa 0,0 l/m² 0,6 km/h (0 Bft) W-SW 244 ° 0 min 0 W/m² 0,0 °C 1,5 °C 1,6 km/h (1 Bft)
06.12.2023 17:34 21,9 °C 1,4 °C 47 % 90 % 1014,0 hPa 0,0 l/m² 1,6 km/h (1 Bft) W 266 ° 0 min 0 W/m² -0,1 °C 1,4 °C 4,8 km/h (1 Bft)
06.12.2023 17:36 21,9 °C 1,4 °C 47 % 90 % 1014,1 hPa 0,0 l/m² 1,8 km/h (1 Bft) W-SW 252 ° 0 min 0 W/m² -0,1 °C 1,4 °C 6,4 km/h (2 Bft)
06.12.2023 17:38 21,9 °C 1,4 °C 47 % 90 % 1014,1 hPa 0,0 l/m² 4,0 km/h (1 Bft) W 269 ° 0 min 0 W/m² -0,1 °C 1,4 °C 6,4 km/h (2 Bft)
06.12.2023 17:40 21,9 °C 1,4 °C 46 % 90 % 1014,2 hPa 0,0 l/m² 3,4 km/h (1 Bft) W 262 ° 0 min 0 W/m² -0,1 °C 1,4 °C 6,4 km/h (2 Bft)
06.12.2023 17:42 21,9 °C 1,4 °C 46 % 90 % 1014,2 hPa 0,0 l/m² 3,4 km/h (1 Bft) W-SW 257 ° 0 min 0 W/m² -0,1 °C 1,4 °C 6,4 km/h (2 Bft)
06.12.2023 17:44 21,9 °C 1,4 °C 46 % 90 % 1014,3 hPa 0,0 l/m² 4,2 km/h (1 Bft) W 274 ° 0 min 0 W/m² -0,1 °C 1,4 °C 9,7 km/h (2 Bft)
06.12.2023 17:46 21,9 °C 1,4 °C 46 % 90 % 1014,3 hPa 0,0 l/m² 3,7 km/h (1 Bft) W 271 ° 0 min 0 W/m² -0,1 °C 1,4 °C 6,4 km/h (2 Bft)
06.12.2023 17:48 21,9 °C 1,4 °C 46 % 90 % 1014,2 hPa 0,0 l/m² 3,0 km/h (1 Bft) W 269 ° 0 min 0 W/m² -0,1 °C 1,4 °C 4,8 km/h (1 Bft)
06.12.2023 17:50 21,9 °C 1,4 °C 46 % 90 % 1014,3 hPa 0,0 l/m² 3,7 km/h (1 Bft) W 280 ° 0 min 0 W/m² -0,1 °C 1,4 °C 6,4 km/h (2 Bft)
06.12.2023 17:52 21,9 °C 1,4 °C 46 % 90 % 1014,3 hPa 0,0 l/m² 4,4 km/h (1 Bft) W 271 ° 0 min 0 W/m² -0,1 °C 1,4 °C 6,4 km/h (2 Bft)
06.12.2023 17:54 21,9 °C 1,4 °C 46 % 90 % 1014,4 hPa 0,0 l/m² 4,8 km/h (1 Bft) W 270 ° 0 min 0 W/m² -0,1 °C 1,4 °C 6,4 km/h (2 Bft)
06.12.2023 17:56 21,8 °C 1,4 °C 46 % 90 % 1014,4 hPa 0,0 l/m² 6,7 km/h (2 Bft) W 260 ° 0 min 0 W/m² -0,1 °C 1,1 °C 9,7 km/h (2 Bft)
06.12.2023 17:58 21,8 °C 1,4 °C 46 % 90 % 1014,4 hPa 0,0 l/m² 4,4 km/h (1 Bft) W 273 ° 0 min 0 W/m² -0,1 °C 1,4 °C 9,7 km/h (2 Bft)
06.12.2023 18:00 21,9 °C 1,4 °C 46 % 90 % 1014,4 hPa 0,0 l/m² 4,4 km/h (1 Bft) W 271 ° 0 min 0 W/m² -0,1 °C 1,4 °C 6,4 km/h (2 Bft)
06.12.2023 18:02 21,8 °C 1,4 °C 46 % 90 % 1014,5 hPa 0,0 l/m² 4,7 km/h (1 Bft) W 266 ° 0 min 0 W/m² -0,1 °C 1,4 °C 9,7 km/h (2 Bft)
06.12.2023 18:04 21,8 °C 1,4 °C 46 % 90 % 1014,5 hPa 0,0 l/m² 3,4 km/h (1 Bft) W 261 ° 0 min 0 W/m² -0,1 °C 1,4 °C 6,4 km/h (2 Bft)
06.12.2023 18:06 21,9 °C 1,3 °C 46 % 90 % 1014,6 hPa 0,0 l/m² 3,7 km/h (1 Bft) W 259 ° 0 min 0 W/m² -0,2 °C 1,3 °C 6,4 km/h (2 Bft)
06.12.2023 18:08 21,8 °C 1,4 °C 46 % 91 % 1014,6 hPa 0,0 l/m² 4,4 km/h (1 Bft) W-SW 254 ° 0 min 0 W/m² 0,1 °C 1,4 °C 6,4 km/h (2 Bft)
06.12.2023 18:10 21,8 °C 1,3 °C 46 % 91 % 1014,7 hPa 0,0 l/m² 3,8 km/h (1 Bft) W-SW 250 ° 0 min 0 W/m² -0,0 °C 1,3 °C 6,4 km/h (2 Bft)
06.12.2023 18:12 21,8 °C 1,4 °C 46 % 91 % 1014,7 hPa 0,0 l/m² 3,4 km/h (1 Bft) W-SW 250 ° 0 min 0 W/m² 0,1 °C 1,4 °C 4,8 km/h (1 Bft)
06.12.2023 18:14 21,8 °C 1,4 °C 46 % 91 % 1014,7 hPa 0,0 l/m² 2,9 km/h (1 Bft) W-SW 250 ° 0 min 0 W/m² 0,1 °C 1,4 °C 4,8 km/h (1 Bft)
06.12.2023 18:16 21,8 °C 1,4 °C 46 % 91 % 1014,7 hPa 0,0 l/m² 3,2 km/h (1 Bft) W-SW 250 ° 0 min 0 W/m² 0,1 °C 1,4 °C 4,8 km/h (1 Bft)
06.12.2023 18:18 21,8 °C 1,4 °C 46 % 91 % 1014,7 hPa 0,0 l/m² 3,9 km/h (1 Bft) W-SW 250 ° 0 min 0 W/m² 0,1 °C 1,4 °C 4,8 km/h (1 Bft)
06.12.2023 18:20 21,8 °C 1,4 °C 47 % 91 % 1014,8 hPa 0,0 l/m² 3,5 km/h (1 Bft) W-SW 250 ° 0 min 0 W/m² 0,1 °C 1,4 °C 4,8 km/h (1 Bft)
06.12.2023 18:22 21,8 °C 1,3 °C 47 % 91 % 1014,8 hPa 0,0 l/m² 3,1 km/h (1 Bft) W-SW 250 ° 0 min 0 W/m² -0,0 °C 1,3 °C 4,8 km/h (1 Bft)
06.12.2023 18:24 21,8 °C 1,3 °C 47 % 91 % 1014,9 hPa 0,0 l/m² 3,3 km/h (1 Bft) W-SW 250 ° 0 min 0 W/m² -0,0 °C 1,3 °C 4,8 km/h (1 Bft)
06.12.2023 18:26 21,8 °C 1,3 °C 47 % 91 % 1014,8 hPa 0,0 l/m² 2,4 km/h (1 Bft) W-SW 250 ° 0 min 0 W/m² -0,0 °C 1,3 °C 4,8 km/h (1 Bft)
06.12.2023 18:28 21,8 °C 1,3 °C 47 % 91 % 1014,8 hPa 0,0 l/m² 2,3 km/h (1 Bft) W-SW 250 ° 0 min 0 W/m² -0,0 °C 1,3 °C 4,8 km/h (1 Bft)
06.12.2023 18:30 21,8 °C 1,3 °C 47 % 91 % 1014,9 hPa 0,0 l/m² 3,0 km/h (1 Bft) W-SW 250 ° 0 min 0 W/m² -0,0 °C 1,3 °C 4,8 km/h (1 Bft)
06.12.2023 18:32 21,8 °C 1,3 °C 47 % 91 % 1014,9 hPa 0,0 l/m² 1,9 km/h (1 Bft) W-SW 250 ° 0 min 0 W/m² -0,0 °C 1,3 °C 3,2 km/h (1 Bft)
06.12.2023 18:34 21,8 °C 1,3 °C 47 % 91 % 1015,0 hPa 0,0 l/m² 2,3 km/h (1 Bft) W-SW 250 ° 0 min 0 W/m² -0,0 °C 1,3 °C 3,2 km/h (1 Bft)
06.12.2023 18:36 21,8 °C 1,3 °C 47 % 91 % 1015,0 hPa 0,0 l/m² 1,6 km/h (1 Bft) W-SW 250 ° 0 min 0 W/m² -0,0 °C 1,3 °C 4,8 km/h (1 Bft)
06.12.2023 18:38 21,8 °C 1,3 °C 47 % 91 % 1015,0 hPa 0,0 l/m² 0,3 km/h (0 Bft) W-SW 250 ° 0 min 0 W/m² -0,0 °C 1,3 °C 1,6 km/h (1 Bft)
06.12.2023 18:40 21,8 °C 1,3 °C 47 % 91 % 1015,0 hPa 0,0 l/m² 0,3 km/h (0 Bft) W-SW 250 ° 0 min 0 W/m² -0,0 °C 1,3 °C 1,6 km/h (1 Bft)
06.12.2023 18:42 21,8 °C 1,3 °C 47 % 91 % 1015,0 hPa 0,0 l/m² 0,8 km/h (0 Bft) W-SW 250 ° 0 min 0 W/m² -0,0 °C 1,3 °C 1,6 km/h (1 Bft)
06.12.2023 18:44 21,8 °C 1,3 °C 47 % 91 % 1015,1 hPa 0,0 l/m² 0,0 km/h (0 Bft) W-SW 250 ° 0 min 0 W/m² -0,0 °C 1,3 °C 1,6 km/h (1 Bft)
06.12.2023 18:46 21,8 °C 1,2 °C 47 % 91 % 1015,1 hPa 0,0 l/m² 0,0 km/h (0 Bft) W-SW 250 ° 0 min 0 W/m² -0,1 °C 1,2 °C 0,0 km/h (0 Bft)
06.12.2023 18:47 21,8 °C 1,2 °C 47 % 91 % 1015,1 hPa 0,0 l/m² 0,7 km/h (0 Bft) W-SW 250 ° 0 min 0 W/m² -0,1 °C 1,2 °C 1,6 km/h (1 Bft)
06.12.2023 18:48 21,8 °C 1,2 °C 47 % 91 % 1015,1 hPa 0,0 l/m² 0,7 km/h (0 Bft) W-SW 250 ° 0 min 0 W/m² -0,1 °C 1,2 °C 1,6 km/h (1 Bft)
06.12.2023 18:50 21,8 °C 1,2 °C 47 % 91 % 1015,1 hPa 0,0 l/m² 0,5 km/h (0 Bft) W-SW 250 ° 0 min 0 W/m² -0,1 °C 1,2 °C 1,6 km/h (1 Bft)
06.12.2023 18:52 21,8 °C 1,2 °C 47 % 91 % 1015,1 hPa 0,0 l/m² 0,0 km/h (0 Bft) W-SW 250 ° 0 min 0 W/m² -0,1 °C 1,2 °C 0,0 km/h (0 Bft)
06.12.2023 18:54 21,7 °C 1,2 °C 47 % 91 % 1015,1 hPa 0,0 l/m² 0,0 km/h (0 Bft) W-SW 250 ° 0 min 0 W/m² -0,1 °C 1,2 °C 0,0 km/h (0 Bft)
06.12.2023 18:56 21,8 °C 1,2 °C 48 % 92 % 1015,2 hPa 0,0 l/m² 0,0 km/h (0 Bft) W-SW 250 ° 0 min 0 W/m² 0,0 °C 1,2 °C 0,0 km/h (0 Bft)
06.12.2023 18:58 21,8 °C 1,2 °C 48 % 92 % 1015,2 hPa 0,0 l/m² 0,0 km/h (0 Bft) W-SW 250 ° 0 min 0 W/m² 0,0 °C 1,2 °C 0,0 km/h (0 Bft)
06.12.2023 19:00 21,8 °C 1,2 °C 48 % 92 % 1015,3 hPa 0,0 l/m² 0,0 km/h (0 Bft) W-SW 250 ° 0 min 0 W/m² 0,0 °C 1,2 °C 0,0 km/h (0 Bft)
06.12.2023 19:02 21,8 °C 1,2 °C 48 % 91 % 1015,3 hPa 0,0 l/m² 0,0 km/h (0 Bft) W-SW 250 ° 0 min 0 W/m² -0,1 °C 1,2 °C 0,0 km/h (0 Bft)
06.12.2023 19:04 21,8 °C 1,2 °C 48 % 91 % 1015,4 hPa 0,0 l/m² 0,0 km/h (0 Bft) W-SW 250 ° 0 min 0 W/m² -0,1 °C 1,2 °C 0,0 km/h (0 Bft)
06.12.2023 19:06 21,8 °C 1,2 °C 48 % 91 % 1015,4 hPa 0,0 l/m² 0,0 km/h (0 Bft) W-SW 250 ° 0 min 0 W/m² -0,1 °C 1,2 °C 0,0 km/h (0 Bft)
06.12.2023 19:08 21,8 °C 1,2 °C 48 % 92 % 1015,4 hPa 0,0 l/m² 0,0 km/h (0 Bft) W-SW 250 ° 0 min 0 W/m² 0,0 °C 1,2 °C 0,0 km/h (0 Bft)
06.12.2023 19:10 21,8 °C 1,1 °C 48 % 92 % 1015,4 hPa 0,0 l/m² 0,0 km/h (0 Bft) W-SW 250 ° 0 min 0 W/m² -0,1 °C 1,1 °C 0,0 km/h (0 Bft)
06.12.2023 19:12 21,8 °C 1,2 °C 48 % 92 % 1015,5 hPa 0,0 l/m² 0,0 km/h (0 Bft) W-SW 250 ° 0 min 0 W/m² 0,0 °C 1,2 °C 0,0 km/h (0 Bft)
06.12.2023 19:14 21,8 °C 1,1 °C 48 % 92 % 1015,5 hPa 0,0 l/m² 0,0 km/h (0 Bft) W-SW 250 ° 0 min 0 W/m² -0,1 °C 1,1 °C 0,0 km/h (0 Bft)
06.12.2023 19:16 21,8 °C 1,1 °C 48 % 92 % 1015,5 hPa 0,0 l/m² 0,0 km/h (0 Bft) W-SW 250 ° 0 min 0 W/m² -0,1 °C 1,1 °C 0,0 km/h (0 Bft)
06.12.2023 19:18 21,8 °C 1,1 °C 48 % 92 % 1015,5 hPa 0,0 l/m² 0,0 km/h (0 Bft) W-SW 250 ° 0 min 0 W/m² -0,1 °C 1,1 °C 0,0 km/h (0 Bft)
06.12.2023 19:20 21,8 °C 1,1 °C 48 % 92 % 1015,5 hPa 0,0 l/m² 0,0 km/h (0 Bft) W-SW 250 ° 0 min 0 W/m² -0,1 °C 1,1 °C 0,0 km/h (0 Bft)
06.12.2023 19:22 21,8 °C 1,1 °C 48 % 92 % 1015,5 hPa 0,0 l/m² 0,0 km/h (0 Bft) W-SW 250 ° 0 min 0 W/m² -0,1 °C 1,1 °C 0,0 km/h (0 Bft)
06.12.2023 19:24 21,8 °C 1,1 °C 48 % 92 % 1015,6 hPa 0,0 l/m² 0,0 km/h (0 Bft) W-SW 250 ° 0 min 0 W/m² -0,1 °C 1,1 °C 0,0 km/h (0 Bft)
06.12.2023 19:26 21,8 °C 1,1 °C 48 % 92 % 1015,6 hPa 0,0 l/m² 0,0 km/h (0 Bft) W-SW 250 ° 0 min 0 W/m² -0,1 °C 1,1 °C 0,0 km/h (0 Bft)
06.12.2023 19:28 21,8 °C 1,1 °C 48 % 92 % 1015,5 hPa 0,0 l/m² 0,0 km/h (0 Bft) W-SW 250 ° 0 min 0 W/m² -0,1 °C 1,1 °C 0,0 km/h (0 Bft)
06.12.2023 19:30 21,8 °C 1,1 °C 48 % 92 % 1015,6 hPa 0,0 l/m² 0,0 km/h (0 Bft) W-SW 250 ° 0 min 0 W/m² -0,1 °C 1,1 °C 0,0 km/h (0 Bft)
06.12.2023 19:32 21,8 °C 1,1 °C 48 % 92 % 1015,5 hPa 0,0 l/m² 0,0 km/h (0 Bft) W-SW 250 ° 0 min 0 W/m² -0,1 °C 1,1 °C 0,0 km/h (0 Bft)
06.12.2023 19:34 21,8 °C 1,0 °C 48 % 92 % 1015,6 hPa 0,0 l/m² 0,0 km/h (0 Bft) W-SW 250 ° 0 min 0 W/m² -0,2 °C 1,0 °C 0,0 km/h (0 Bft)
06.12.2023 19:36 21,8 °C 1,1 °C 48 % 92 % 1015,7 hPa 0,0 l/m² 0,0 km/h (0 Bft) W-SW 250 ° 0 min 0 W/m² -0,1 °C 1,1 °C 0,0 km/h (0 Bft)
06.12.2023 19:38 21,8 °C 1,1 °C 48 % 92 % 1015,6 hPa 0,0 l/m² 0,0 km/h (0 Bft) W-SW 250 ° 0 min 0 W/m² -0,1 °C 1,1 °C 0,0 km/h (0 Bft)
06.12.2023 19:40 21,8 °C 1,1 °C 48 % 92 % 1015,6 hPa 0,0 l/m² 0,0 km/h (0 Bft) W-SW 250 ° 0 min 0 W/m² -0,1 °C 1,1 °C 0,0 km/h (0 Bft)
06.12.2023 19:42 21,8 °C 1,1 °C 48 % 92 % 1015,7 hPa 0,0 l/m² 0,0 km/h (0 Bft) W-SW 250 ° 0 min 0 W/m² -0,1 °C 1,1 °C 0,0 km/h (0 Bft)
06.12.2023 19:44 21,8 °C 1,1 °C 48 % 92 % 1015,7 hPa 0,0 l/m² 0,0 km/h (0 Bft) W-SW 250 ° 0 min 0 W/m² -0,1 °C 1,1 °C 0,0 km/h (0 Bft)
06.12.2023 19:46 21,8 °C 1,1 °C 48 % 92 % 1015,7 hPa 0,0 l/m² 0,0 km/h (0 Bft) W-SW 250 ° 0 min 0 W/m² -0,1 °C 1,1 °C 0,0 km/h (0 Bft)
06.12.2023 19:48 21,8 °C 1,1 °C 48 % 92 % 1015,6 hPa 0,0 l/m² 0,0 km/h (0 Bft) W-SW 250 ° 0 min 0 W/m² -0,1 °C 1,1 °C 0,0 km/h (0 Bft)
06.12.2023 19:50 21,8 °C 1,1 °C 48 % 92 % 1015,7 hPa 0,0 l/m² 0,0 km/h (0 Bft) W-SW 250 ° 0 min 0 W/m² -0,1 °C 1,1 °C 0,0 km/h (0 Bft)
06.12.2023 19:52 21,8 °C 1,1 °C 48 % 92 % 1015,7 hPa 0,0 l/m² 0,0 km/h (0 Bft) W-SW 250 ° 0 min 0 W/m² -0,1 °C 1,1 °C 0,0 km/h (0 Bft)
06.12.2023 19:54 21,8 °C 1,1 °C 48 % 92 % 1015,6 hPa 0,0 l/m² 0,1 km/h (0 Bft) W-SW 250 ° 0 min 0 W/m² -0,1 °C 1,1 °C 1,6 km/h (1 Bft)
06.12.2023 19:56 21,8 °C 1,1 °C 48 % 92 % 1015,7 hPa 0,0 l/m² 0,9 km/h (0 Bft) W-SW 250 ° 0 min 0 W/m² -0,1 °C 1,1 °C 3,2 km/h (1 Bft)
06.12.2023 19:58 21,8 °C 1,1 °C 48 % 92 % 1015,7 hPa 0,0 l/m² 2,4 km/h (1 Bft) SW 214 ° 0 min 0 W/m² -0,1 °C 1,1 °C 4,8 km/h (1 Bft)
06.12.2023 20:00 21,8 °C 1,1 °C 48 % 92 % 1015,8 hPa 0,0 l/m² 2,0 km/h (1 Bft) SW 214 ° 0 min 0 W/m² -0,1 °C 1,1 °C 4,8 km/h (1 Bft)
06.12.2023 20:02 21,8 °C 1,1 °C 48 % 92 % 1015,8 hPa 0,0 l/m² 2,9 km/h (1 Bft) SW 214 ° 0 min 0 W/m² -0,1 °C 1,1 °C 4,8 km/h (1 Bft)
06.12.2023 20:04 21,8 °C 1,1 °C 48 % 92 % 1015,8 hPa 0,0 l/m² 2,5 km/h (1 Bft) SW 214 ° 0 min 0 W/m² -0,1 °C 1,1 °C 3,2 km/h (1 Bft)
06.12.2023 20:06 21,8 °C 1,0 °C 48 % 92 % 1015,8 hPa 0,0 l/m² 2,0 km/h (1 Bft) SW 214 ° 0 min 0 W/m² -0,2 °C 1,0 °C 3,2 km/h (1 Bft)
06.12.2023 20:08 21,8 °C 1,0 °C 48 % 93 % 1015,8 hPa 0,0 l/m² 1,8 km/h (1 Bft) SW 214 ° 0 min 0 W/m² -0,0 °C 1,0 °C 3,2 km/h (1 Bft)
06.12.2023 20:10 21,8 °C 1,0 °C 48 % 93 % 1015,8 hPa 0,0 l/m² 2,0 km/h (1 Bft) SW 215 ° 0 min 0 W/m² -0,0 °C 1,0 °C 3,2 km/h (1 Bft)
06.12.2023 20:12 21,8 °C 1,1 °C 48 % 93 % 1015,8 hPa 0,0 l/m² 1,2 km/h (1 Bft) SW 215 ° 0 min 0 W/m² 0,1 °C 1,1 °C 3,2 km/h (1 Bft)
06.12.2023 20:14 21,8 °C 1,1 °C 48 % 93 % 1015,8 hPa 0,0 l/m² 0,2 km/h (0 Bft) SW 215 ° 0 min 0 W/m² 0,1 °C 1,1 °C 1,6 km/h (1 Bft)
06.12.2023 20:16 21,8 °C 1,1 °C 48 % 93 % 1015,8 hPa 0,0 l/m² 2,8 km/h (1 Bft) W-SW 247 ° 0 min 0 W/m² 0,1 °C 1,1 °C 4,8 km/h (1 Bft)
06.12.2023 20:18 21,8 °C 1,1 °C 48 % 93 % 1015,8 hPa 0,0 l/m² 1,6 km/h (1 Bft) W-SW 247 ° 0 min 0 W/m² 0,1 °C 1,1 °C 3,2 km/h (1 Bft)
06.12.2023 20:20 21,8 °C 1,1 °C 48 % 93 % 1015,8 hPa 0,0 l/m² 4,5 km/h (1 Bft) W-SW 240 ° 0 min 0 W/m² 0,1 °C 1,1 °C 6,4 km/h (2 Bft)
06.12.2023 20:22 21,8 °C 1,1 °C 48 % 93 % 1015,8 hPa 0,0 l/m² 4,2 km/h (1 Bft) SW 235 ° 0 min 0 W/m² 0,1 °C 1,1 °C 8,0 km/h (2 Bft)
06.12.2023 20:24 21,8 °C 1,1 °C 48 % 93 % 1015,8 hPa 0,0 l/m² 3,8 km/h (1 Bft) W-SW 255 ° 0 min 0 W/m² 0,1 °C 1,1 °C 6,4 km/h (2 Bft)
06.12.2023 20:26 21,8 °C 1,1 °C 48 % 93 % 1015,8 hPa 0,0 l/m² 4,6 km/h (1 Bft) W-SW 237 ° 0 min 0 W/m² 0,1 °C 1,1 °C 8,0 km/h (2 Bft)
06.12.2023 20:28 21,8 °C 1,1 °C 48 % 93 % 1015,9 hPa 0,0 l/m² 4,5 km/h (1 Bft) W-SW 239 ° 0 min 0 W/m² 0,1 °C 1,1 °C 6,4 km/h (2 Bft)
06.12.2023 20:30 21,8 °C 1,1 °C 48 % 93 % 1015,9 hPa 0,0 l/m² 2,1 km/h (1 Bft) W-SW 239 ° 0 min 0 W/m² 0,1 °C 1,1 °C 4,8 km/h (1 Bft)
06.12.2023 20:32 21,8 °C 1,1 °C 48 % 93 % 1015,9 hPa 0,0 l/m² 4,2 km/h (1 Bft) W-SW 250 ° 0 min 0 W/m² 0,1 °C 1,1 °C 6,4 km/h (2 Bft)
06.12.2023 20:34 21,8 °C 1,1 °C 48 % 93 % 1015,8 hPa 0,0 l/m² 3,4 km/h (1 Bft) W-SW 241 ° 0 min 0 W/m² 0,1 °C 1,1 °C 6,4 km/h (2 Bft)
06.12.2023 20:36 21,8 °C 1,1 °C 48 % 93 % 1015,8 hPa 0,0 l/m² 0,8 km/h (0 Bft) W-SW 241 ° 0 min 0 W/m² 0,1 °C 1,1 °C 3,2 km/h (1 Bft)
06.12.2023 20:38 21,8 °C 1,1 °C 48 % 93 % 1015,9 hPa 0,0 l/m² 4,4 km/h (1 Bft) W-SW 238 ° 0 min 0 W/m² 0,1 °C 1,1 °C 8,0 km/h (2 Bft)
06.12.2023 20:40 21,8 °C 1,2 °C 48 % 93 % 1015,9 hPa 0,0 l/m² 3,6 km/h (1 Bft) SW 224 ° 0 min 0 W/m² 0,2 °C 1,2 °C 8,0 km/h (2 Bft)
06.12.2023 20:42 21,8 °C 1,2 °C 48 % 93 % 1015,9 hPa 0,0 l/m² 2,5 km/h (1 Bft) SW 225 ° 0 min 0 W/m² 0,2 °C 1,2 °C 6,4 km/h (2 Bft)
06.12.2023 20:44 21,8 °C 1,2 °C 48 % 93 % 1016,0 hPa 0,0 l/m² 5,7 km/h (2 Bft) SW 222 ° 0 min 0 W/m² 0,2 °C 1,2 °C 11,3 km/h (2 Bft)
06.12.2023 20:46 21,8 °C 1,2 °C 48 % 93 % 1016,0 hPa 0,0 l/m² 4,8 km/h (1 Bft) SW 231 ° 0 min 0 W/m² 0,2 °C 1,2 °C 8,0 km/h (2 Bft)
06.12.2023 20:48 21,8 °C 1,2 °C 48 % 93 % 1016,2 hPa 0,0 l/m² 4,5 km/h (1 Bft) SW 236 ° 0 min 0 W/m² 0,2 °C 1,2 °C 11,3 km/h (2 Bft)
06.12.2023 20:50 21,8 °C 1,2 °C 46 % 93 % 1016,0 hPa 0,0 l/m² 5,4 km/h (2 Bft) SW 232 ° 0 min 0 W/m² 0,2 °C 1,2 °C 11,3 km/h (2 Bft)
06.12.2023 20:52 21,8 °C 1,2 °C 44 % 93 % 1016,0 hPa 0,0 l/m² 7,1 km/h (2 Bft) SW 225 ° 0 min 0 W/m² 0,2 °C 0,5 °C 12,9 km/h (3 Bft)
06.12.2023 20:54 21,8 °C 1,3 °C 44 % 93 % 1016,0 hPa 0,0 l/m² 4,2 km/h (1 Bft) SW 224 ° 0 min 0 W/m² 0,3 °C 1,3 °C 6,4 km/h (2 Bft)
06.12.2023 20:56 21,7 °C 1,3 °C 45 % 93 % 1016,0 hPa 0,0 l/m² 4,4 km/h (1 Bft) SW 236 ° 0 min 0 W/m² 0,3 °C 1,3 °C 8,0 km/h (2 Bft)
06.12.2023 20:58 21,7 °C 1,3 °C 45 % 93 % 1016,0 hPa 0,0 l/m² 4,3 km/h (1 Bft) SW 217 ° 0 min 0 W/m² 0,3 °C 1,3 °C 6,4 km/h (2 Bft)
06.12.2023 21:00 21,7 °C 1,3 °C 45 % 93 % 1016,1 hPa 0,0 l/m² 2,8 km/h (1 Bft) SW 222 ° 0 min 0 W/m² 0,3 °C 1,3 °C 6,4 km/h (2 Bft)
06.12.2023 21:02 21,7 °C 1,3 °C 46 % 93 % 1016,1 hPa 0,0 l/m² 3,2 km/h (1 Bft) W-SW 240 ° 0 min 0 W/m² 0,3 °C 1,3 °C 6,4 km/h (2 Bft)
06.12.2023 21:04 21,7 °C 1,3 °C 46 % 93 % 1016,1 hPa 0,0 l/m² 3,2 km/h (1 Bft) SW 218 ° 0 min 0 W/m² 0,3 °C 1,3 °C 4,8 km/h (1 Bft)
06.12.2023 21:06 21,8 °C 1,3 °C 46 % 93 % 1016,1 hPa 0,0 l/m² 2,0 km/h (1 Bft) SW 235 ° 0 min 0 W/m² 0,3 °C 1,3 °C 4,8 km/h (1 Bft)
06.12.2023 21:08 21,7 °C 1,3 °C 46 % 93 % 1016,1 hPa 0,0 l/m² 4,4 km/h (1 Bft) SW 221 ° 0 min 0 W/m² 0,3 °C 1,3 °C 6,4 km/h (2 Bft)
06.12.2023 21:09 21,8 °C 1,3 °C 46 % 93 % 1016,2 hPa 0,0 l/m² 0,1 km/h (0 Bft) SW 221 ° 0 min 0 W/m² 0,3 °C 1,3 °C 1,6 km/h (1 Bft)
06.12.2023 21:10 21,8 °C 1,3 °C 46 % 93 % 1016,2 hPa 0,0 l/m² 1,6 km/h (1 Bft) SW 221 ° 0 min 0 W/m² 0,3 °C 1,3 °C 4,8 km/h (1 Bft)
06.12.2023 21:12 21,7 °C 1,3 °C 46 % 93 % 1016,1 hPa 0,0 l/m² 0,6 km/h (0 Bft) SW 221 ° 0 min 0 W/m² 0,3 °C 1,3 °C 3,2 km/h (1 Bft)
06.12.2023 21:13 21,8 °C 1,3 °C 46 % 93 % 1016,2 hPa 0,0 l/m² 0,1 km/h (0 Bft) SW 221 ° 0 min 0 W/m² 0,3 °C 1,3 °C 1,6 km/h (1 Bft)
06.12.2023 21:14 21,8 °C 1,3 °C 46 % 93 % 1016,2 hPa 0,0 l/m² 0,0 km/h (0 Bft) SW 221 ° 0 min 0 W/m² 0,3 °C 1,3 °C 0,0 km/h (0 Bft)
06.12.2023 21:16 21,8 °C 1,3 °C 46 % 93 % 1016,2 hPa 0,0 l/m² 0,0 km/h (0 Bft) SW 221 ° 0 min 0 W/m² 0,3 °C 1,3 °C 0,0 km/h (0 Bft)
06.12.2023 21:18 21,8 °C 1,3 °C 46 % 93 % 1016,3 hPa 0,0 l/m² 0,0 km/h (0 Bft) SW 221 ° 0 min 0 W/m² 0,3 °C 1,3 °C 0,0 km/h (0 Bft)
06.12.2023 21:19 21,8 °C 1,4 °C 46 % 93 % 1016,3 hPa 0,0 l/m² 0,0 km/h (0 Bft) SW 221 ° 0 min 0 W/m² 0,4 °C 1,4 °C 0,0 km/h (0 Bft)
06.12.2023 21:21 21,8 °C 1,4 °C 46 % 93 % 1016,2 hPa 0,0 l/m² 0,3 km/h (0 Bft) SW 236 ° 0 min 0 W/m² 0,4 °C 1,4 °C 4,8 km/h (1 Bft)
06.12.2023 21:23 21,8 °C 1,3 °C 46 % 93 % 1016,3 hPa 0,0 l/m² 2,7 km/h (1 Bft) SW 217 ° 0 min 0 W/m² 0,3 °C 1,3 °C 6,4 km/h (2 Bft)
06.12.2023 21:24 21,8 °C 1,4 °C 46 % 93 % 1016,3 hPa 0,0 l/m² 2,0 km/h (1 Bft) W-SW 247 ° 0 min 0 W/m² 0,4 °C 1,4 °C 3,2 km/h (1 Bft)
06.12.2023 21:26 21,8 °C 1,3 °C 46 % 93 % 1016,3 hPa 0,0 l/m² 1,7 km/h (1 Bft) W-SW 238 ° 0 min 0 W/m² 0,3 °C 1,3 °C 4,8 km/h (1 Bft)
06.12.2023 21:28 21,8 °C 1,4 °C 46 % 93 % 1016,4 hPa 0,0 l/m² 1,7 km/h (1 Bft) W-SW 251 ° 0 min 0 W/m² 0,4 °C 1,4 °C 3,2 km/h (1 Bft)
06.12.2023 21:30 21,8 °C 1,4 °C 46 % 93 % 1016,4 hPa 0,0 l/m² 2,5 km/h (1 Bft) W-SW 254 ° 0 min 0 W/m² 0,4 °C 1,4 °C 4,8 km/h (1 Bft)
06.12.2023 21:32 21,8 °C 1,4 °C 46 % 93 % 1016,4 hPa 0,0 l/m² 1,8 km/h (1 Bft) W-SW 239 ° 0 min 0 W/m² 0,4 °C 1,4 °C 4,8 km/h (1 Bft)
06.12.2023 21:33 21,8 °C 1,4 °C 46 % 93 % 1016,4 hPa 0,0 l/m² 1,5 km/h (1 Bft) W-SW 239 ° 0 min 0 W/m² 0,4 °C 1,4 °C 3,2 km/h (1 Bft)
06.12.2023 21:34 21,8 °C 1,4 °C 46 % 93 % 1016,4 hPa 0,0 l/m² 2,5 km/h (1 Bft) W-SW 239 ° 0 min 0 W/m² 0,4 °C 1,4 °C 3,2 km/h (1 Bft)
06.12.2023 21:36 21,8 °C 1,4 °C 46 % 93 % 1016,4 hPa 0,0 l/m² 0,1 km/h (0 Bft) W-SW 239 ° 0 min 0 W/m² 0,4 °C 1,4 °C 1,6 km/h (1 Bft)
06.12.2023 21:38 21,8 °C 1,4 °C 46 % 92 % 1016,4 hPa 0,0 l/m² 0,0 km/h (0 Bft) W-SW 239 ° 0 min 0 W/m² 0,2 °C 1,4 °C 0,0 km/h (0 Bft)
06.12.2023 21:39 21,8 °C 1,4 °C 46 % 92 % 1016,4 hPa 0,0 l/m² 0,0 km/h (0 Bft) W-SW 239 ° 0 min 0 W/m² 0,2 °C 1,4 °C 0,0 km/h (0 Bft)
06.12.2023 21:41 21,8 °C 1,4 °C 46 % 92 % 1016,4 hPa 0,0 l/m² 0,0 km/h (0 Bft) W-SW 239 ° 0 min 0 W/m² 0,2 °C 1,4 °C 0,0 km/h (0 Bft)
06.12.2023 21:43 21,8 °C 1,4 °C 46 % 92 % 1016,5 hPa 0,0 l/m² 0,8 km/h (0 Bft) SW 216 ° 0 min 0 W/m² 0,2 °C 1,4 °C 4,8 km/h (1 Bft)
06.12.2023 21:44 21,8 °C 1,4 °C 46 % 92 % 1016,5 hPa 0,0 l/m² 1,6 km/h (1 Bft) SW 219 ° 0 min 0 W/m² 0,2 °C 1,4 °C 4,8 km/h (1 Bft)
06.12.2023 21:45 21,8 °C 1,4 °C 46 % 92 % 1016,5 hPa 0,0 l/m² 1,9 km/h (1 Bft) SW 219 ° 0 min 0 W/m² 0,2 °C 1,4 °C 4,8 km/h (1 Bft)
06.12.2023 21:46 21,8 °C 1,4 °C 46 % 92 % 1016,5 hPa 0,0 l/m² 0,4 km/h (0 Bft) SW 219 ° 0 min 0 W/m² 0,2 °C 1,4 °C 1,6 km/h (1 Bft)
06.12.2023 21:48 21,8 °C 1,4 °C 46 % 92 % 1016,5 hPa 0,0 l/m² 0,0 km/h (0 Bft) SW 219 ° 0 min 0 W/m² 0,2 °C 1,4 °C 1,6 km/h (1 Bft)
06.12.2023 21:50 21,8 °C 1,4 °C 46 % 92 % 1016,5 hPa 0,0 l/m² 0,0 km/h (0 Bft) SW 219 ° 0 min 0 W/m² 0,2 °C 1,4 °C 0,0 km/h (0 Bft)
06.12.2023 21:52 21,9 °C 1,4 °C 46 % 92 % 1016,6 hPa 0,0 l/m² 0,0 km/h (0 Bft) SW 219 ° 0 min 0 W/m² 0,2 °C 1,4 °C 0,0 km/h (0 Bft)
06.12.2023 21:54 21,9 °C 1,4 °C 46 % 92 % 1016,6 hPa 0,0 l/m² 0,0 km/h (0 Bft) SW 219 ° 0 min 0 W/m² 0,2 °C 1,4 °C 0,0 km/h (0 Bft)
06.12.2023 21:56 21,8 °C 1,4 °C 46 % 92 % 1016,6 hPa 0,0 l/m² 2,9 km/h (1 Bft) SW 217 ° 0 min 0 W/m² 0,2 °C 1,4 °C 9,7 km/h (2 Bft)
06.12.2023 21:58 21,8 °C 1,4 °C 46 % 92 % 1016,6 hPa 0,0 l/m² 2,9 km/h (1 Bft) W 260 ° 0 min 0 W/m² 0,2 °C 1,4 °C 6,4 km/h (2 Bft)
06.12.2023 22:00 21,9 °C 1,4 °C 47 % 92 % 1016,6 hPa 0,0 l/m² 4,7 km/h (1 Bft) SW 226 ° 0 min 0 W/m² 0,2 °C 1,4 °C 8,0 km/h (2 Bft)
06.12.2023 22:02 21,9 °C 1,4 °C 47 % 92 % 1016,6 hPa 0,0 l/m² 5,6 km/h (2 Bft) SW 234 ° 0 min 0 W/m² 0,2 °C 1,4 °C 8,0 km/h (2 Bft)
06.12.2023 22:04 21,8 °C 1,4 °C 46 % 92 % 1016,6 hPa 0,0 l/m² 3,5 km/h (1 Bft) SW 232 ° 0 min 0 W/m² 0,2 °C 1,4 °C 6,4 km/h (2 Bft)
06.12.2023 22:06 21,9 °C 1,4 °C 47 % 92 % 1016,7 hPa 0,0 l/m² 3,5 km/h (1 Bft) W-SW 244 ° 0 min 0 W/m² 0,2 °C 1,4 °C 6,4 km/h (2 Bft)
06.12.2023 22:08 21,8 °C 1,4 °C 47 % 92 % 1016,6 hPa 0,0 l/m² 3,7 km/h (1 Bft) SW 224 ° 0 min 0 W/m² 0,2 °C 1,4 °C 6,4 km/h (2 Bft)
06.12.2023 22:10 21,8 °C 1,4 °C 47 % 92 % 1016,6 hPa 0,0 l/m² 5,0 km/h (1 Bft) SW 230 ° 0 min 0 W/m² 0,2 °C 1,4 °C 8,0 km/h (2 Bft)
06.12.2023 22:12 21,8 °C 1,4 °C 47 % 92 % 1016,6 hPa 0,0 l/m² 6,6 km/h (2 Bft) SW 225 ° 0 min 0 W/m² 0,2 °C 1,2 °C 11,3 km/h (2 Bft)
06.12.2023 22:14 21,8 °C 1,4 °C 47 % 92 % 1016,6 hPa 0,0 l/m² 5,6 km/h (2 Bft) SW 216 ° 0 min 0 W/m² 0,2 °C 1,4 °C 8,0 km/h (2 Bft)
06.12.2023 22:16 21,8 °C 1,5 °C 47 % 92 % 1016,6 hPa 0,0 l/m² 5,3 km/h (1 Bft) SW 235 ° 0 min 0 W/m² 0,3 °C 1,5 °C 8,0 km/h (2 Bft)
06.12.2023 22:18 21,8 °C 1,5 °C 47 % 92 % 1016,6 hPa 0,0 l/m² 6,3 km/h (2 Bft) W-SW 243 ° 0 min 0 W/m² 0,3 °C 1,5 °C 9,7 km/h (2 Bft)
06.12.2023 22:20 21,8 °C 1,5 °C 47 % 92 % 1016,8 hPa 0,0 l/m² 6,8 km/h (2 Bft) SW 221 ° 0 min 0 W/m² 0,3 °C 1,1 °C 9,7 km/h (2 Bft)
06.12.2023 22:22 21,9 °C 1,6 °C 47 % 93 % 1016,7 hPa 0,0 l/m² 6,1 km/h (2 Bft) W-SW 242 ° 0 min 0 W/m² 0,6 °C 1,6 °C 9,7 km/h (2 Bft)
06.12.2023 22:24 21,8 °C 1,5 °C 47 % 93 % 1016,7 hPa 0,0 l/m² 6,4 km/h (2 Bft) SW 234 ° 0 min 0 W/m² 0,5 °C 1,5 °C 11,3 km/h (2 Bft)
06.12.2023 22:26 21,8 °C 1,6 °C 47 % 93 % 1016,7 hPa 0,0 l/m² 7,5 km/h (2 Bft) SW 227 ° 0 min 0 W/m² 0,6 °C 0,5 °C 11,3 km/h (2 Bft)
06.12.2023 22:28 21,8 °C 1,6 °C 47 % 93 % 1016,6 hPa 0,0 l/m² 6,4 km/h (2 Bft) W-SW 240 ° 0 min 0 W/m² 0,6 °C 1,6 °C 11,3 km/h (2 Bft)
06.12.2023 22:30 21,8 °C 1,6 °C 47 % 93 % 1016,7 hPa 0,0 l/m² 4,2 km/h (1 Bft) SW 232 ° 0 min 0 W/m² 0,6 °C 1,6 °C 6,4 km/h (2 Bft)
06.12.2023 22:32 21,8 °C 1,6 °C 47 % 93 % 1016,6 hPa 0,0 l/m² 3,3 km/h (1 Bft) W-SW 238 ° 0 min 0 W/m² 0,6 °C 1,6 °C 6,4 km/h (2 Bft)
06.12.2023 22:34 21,8 °C 1,6 °C 47 % 93 % 1016,8 hPa 0,0 l/m² 2,4 km/h (1 Bft) W-SW 240 ° 0 min 0 W/m² 0,6 °C 1,6 °C 6,4 km/h (2 Bft)
06.12.2023 22:36 21,8 °C 1,6 °C 47 % 93 % 1016,8 hPa 0,0 l/m² 3,7 km/h (1 Bft) SW 234 ° 0 min 0 W/m² 0,6 °C 1,6 °C 6,4 km/h (2 Bft)
06.12.2023 22:38 21,8 °C 1,6 °C 47 % 93 % 1016,8 hPa 0,0 l/m² 1,9 km/h (1 Bft) SW 227 ° 0 min 0 W/m² 0,6 °C 1,6 °C 4,8 km/h (1 Bft)
06.12.2023 22:40 21,8 °C 1,6 °C 47 % 93 % 1016,8 hPa 0,0 l/m² 4,3 km/h (1 Bft) SW 229 ° 0 min 0 W/m² 0,6 °C 1,6 °C 6,4 km/h (2 Bft)
06.12.2023 22:42 21,8 °C 1,6 °C 47 % 93 % 1016,8 hPa 0,0 l/m² 3,1 km/h (1 Bft) SW 234 ° 0 min 0 W/m² 0,6 °C 1,6 °C 4,8 km/h (1 Bft)
06.12.2023 22:44 21,8 °C 1,6 °C 47 % 93 % 1016,9 hPa 0,0 l/m² 2,7 km/h (1 Bft) W-SW 246 ° 0 min 0 W/m² 0,6 °C 1,6 °C 6,4 km/h (2 Bft)
06.12.2023 22:46 21,8 °C 1,6 °C 47 % 93 % 1016,8 hPa 0,0 l/m² 0,6 km/h (0 Bft) W-SW 242 ° 0 min 0 W/m² 0,6 °C 1,6 °C 3,2 km/h (1 Bft)
06.12.2023 22:48 21,7 °C 1,6 °C 47 % 93 % 1016,9 hPa 0,0 l/m² 0,1 km/h (0 Bft) W-SW 242 ° 0 min 0 W/m² 0,6 °C 1,6 °C 1,6 km/h (1 Bft)
06.12.2023 22:50 21,8 °C 1,6 °C 47 % 93 % 1016,8 hPa 0,0 l/m² 0,7 km/h (0 Bft) W-SW 238 ° 0 min 0 W/m² 0,6 °C 1,6 °C 3,2 km/h (1 Bft)
06.12.2023 22:52 21,7 °C 1,6 °C 47 % 93 % 1016,8 hPa 0,0 l/m² 0,0 km/h (0 Bft) W-SW 238 ° 0 min 0 W/m² 0,6 °C 1,6 °C 0,0 km/h (0 Bft)
06.12.2023 22:54 21,7 °C 1,6 °C 47 % 93 % 1016,8 hPa 0,0 l/m² 0,0 km/h (0 Bft) W-SW 238 ° 0 min 0 W/m² 0,6 °C 1,6 °C 0,0 km/h (0 Bft)
06.12.2023 22:56 21,7 °C 1,6 °C 47 % 93 % 1016,8 hPa 0,0 l/m² 0,0 km/h (0 Bft) W-SW 238 ° 0 min 0 W/m² 0,6 °C 1,6 °C 0,0 km/h (0 Bft)
06.12.2023 22:58 21,7 °C 1,6 °C 47 % 93 % 1016,9 hPa 0,0 l/m² 0,0 km/h (0 Bft) W-SW 238 ° 0 min 0 W/m² 0,6 °C 1,6 °C 0,0 km/h (0 Bft)
06.12.2023 23:00 21,7 °C 1,6 °C 47 % 93 % 1017,0 hPa 0,0 l/m² 0,0 km/h (0 Bft) W-SW 238 ° 0 min 0 W/m² 0,6 °C 1,6 °C 0,0 km/h (0 Bft)
06.12.2023 23:02 21,7 °C 1,6 °C 47 % 93 % 1016,9 hPa 0,0 l/m² 0,0 km/h (0 Bft) W-SW 238 ° 0 min 0 W/m² 0,6 °C 1,6 °C 0,0 km/h (0 Bft)
06.12.2023 23:04 21,7 °C 1,6 °C 47 % 92 % 1016,8 hPa 0,0 l/m² 0,0 km/h (0 Bft) W-SW 238 ° 0 min 0 W/m² 0,4 °C 1,6 °C 0,0 km/h (0 Bft)
06.12.2023 23:06 21,7 °C 1,6 °C 47 % 92 % 1016,8 hPa 0,0 l/m² 0,0 km/h (0 Bft) W-SW 238 ° 0 min 0 W/m² 0,4 °C 1,6 °C 0,0 km/h (0 Bft)
06.12.2023 23:08 21,7 °C 1,6 °C 47 % 92 % 1016,8 hPa 0,0 l/m² 0,0 km/h (0 Bft) W-SW 238 ° 0 min 0 W/m² 0,4 °C 1,6 °C 0,0 km/h (0 Bft)
06.12.2023 23:10 21,7 °C 1,6 °C 48 % 92 % 1016,8 hPa 0,0 l/m² 0,0 km/h (0 Bft) W-SW 238 ° 0 min 0 W/m² 0,4 °C 1,6 °C 0,0 km/h (0 Bft)
06.12.2023 23:12 21,7 °C 1,6 °C 48 % 92 % 1016,8 hPa 0,0 l/m² 0,2 km/h (0 Bft) W-SW 238 ° 0 min 0 W/m² 0,4 °C 1,6 °C 1,6 km/h (1 Bft)
06.12.2023 23:14 21,7 °C 1,6 °C 48 % 92 % 1016,9 hPa 0,0 l/m² 0,3 km/h (0 Bft) W-SW 238 ° 0 min 0 W/m² 0,4 °C 1,6 °C 1,6 km/h (1 Bft)
06.12.2023 23:15 21,7 °C 1,6 °C 48 % 92 % 1016,9 hPa 0,0 l/m² 0,0 km/h (0 Bft) W-SW 247 ° 0 min 0 W/m² 0,4 °C 1,6 °C 3,2 km/h (1 Bft)
06.12.2023 23:16 21,6 °C 1,6 °C 48 % 92 % 1016,9 hPa 0,0 l/m² 0,0 km/h (0 Bft) N 0 ° 0 min 0 W/m² 0,4 °C 1,6 °C 0,0 km/h (0 Bft)
06.12.2023 23:22 21,6 °C 1,6 °C 48 % 92 % 1017,0 hPa 0,0 l/m² 0,0 km/h (0 Bft) W-SW 238 ° 0 min 0 W/m² 0,4 °C 1,6 °C 0,0 km/h (0 Bft)
06.12.2023 23:24 21,6 °C 1,6 °C 48 % 92 % 1017,0 hPa 0,0 l/m² 0,0 km/h (0 Bft) W-SW 238 ° 0 min 0 W/m² 0,4 °C 1,6 °C 0,0 km/h (0 Bft)
06.12.2023 23:25 21,6 °C 1,6 °C 48 % 92 % 1017,0 hPa 0,0 l/m² 0,0 km/h (0 Bft) W-SW 238 ° 0 min 0 W/m² 0,4 °C 1,6 °C 0,0 km/h (0 Bft)
06.12.2023 23:26 21,6 °C 1,6 °C 48 % 92 % 1017,0 hPa 0,0 l/m² 0,0 km/h (0 Bft) W-SW 239 ° 0 min 0 W/m² 0,4 °C 1,6 °C 0,0 km/h (0 Bft)
06.12.2023 23:28 21,6 °C 1,5 °C 48 % 92 % 1017,0 hPa 0,0 l/m² 0,0 km/h (0 Bft) W-SW 238 ° 0 min 0 W/m² 0,3 °C 1,5 °C 0,0 km/h (0 Bft)
06.12.2023 23:30 21,6 °C 1,6 °C 48 % 92 % 1017,0 hPa 0,0 l/m² 0,0 km/h (0 Bft) W-SW 239 ° 0 min 0 W/m² 0,4 °C 1,6 °C 0,0 km/h (0 Bft)
06.12.2023 23:31 21,6 °C 1,6 °C 48 % 92 % 1017,0 hPa 0,0 l/m² 0,0 km/h (0 Bft) W-SW 238 ° 0 min 0 W/m² 0,4 °C 1,6 °C 0,0 km/h (0 Bft)
06.12.2023 23:32 21,6 °C 1,5 °C 48 % 92 % 1017,0 hPa 0,0 l/m² 0,0 km/h (0 Bft) W-SW 238 ° 0 min 0 W/m² 0,3 °C 1,5 °C 0,0 km/h (0 Bft)
06.12.2023 23:34 21,6 °C 1,5 °C 48 % 92 % 1017,1 hPa 0,0 l/m² 0,0 km/h (0 Bft) W-SW 238 ° 0 min 0 W/m² 0,3 °C 1,5 °C 0,0 km/h (0 Bft)
06.12.2023 23:35 21,6 °C 1,6 °C 48 % 92 % 1017,0 hPa 0,0 l/m² 0,0 km/h (0 Bft) W-SW 239 ° 0 min 0 W/m² 0,4 °C 1,6 °C 0,0 km/h (0 Bft)
06.12.2023 23:37 21,6 °C 1,5 °C 48 % 92 % 1017,0 hPa 0,0 l/m² 0,0 km/h (0 Bft) W-SW 238 ° 0 min 0 W/m² 0,3 °C 1,5 °C 0,0 km/h (0 Bft)
06.12.2023 23:39 21,6 °C 1,5 °C 48 % 92 % 1017,1 hPa 0,0 l/m² 0,0 km/h (0 Bft) W-SW 239 ° 0 min 0 W/m² 0,3 °C 1,5 °C 0,0 km/h (0 Bft)
06.12.2023 23:40 21,6 °C 1,5 °C 48 % 92 % 1017,1 hPa 0,0 l/m² 0,0 km/h (0 Bft) W-SW 239 ° 0 min 0 W/m² 0,3 °C 1,5 °C 0,0 km/h (0 Bft)
06.12.2023 23:41 21,6 °C 1,5 °C 48 % 93 % 1017,1 hPa 0,0 l/m² 0,0 km/h (0 Bft) W-SW 239 ° 0 min 0 W/m² 0,5 °C 1,5 °C 0,0 km/h (0 Bft)
06.12.2023 23:42 21,6 °C 1,5 °C 48 % 92 % 1017,1 hPa 0,0 l/m² 0,0 km/h (0 Bft) W-SW 239 ° 0 min 0 W/m² 0,3 °C 1,5 °C 0,0 km/h (0 Bft)
06.12.2023 23:44 21,6 °C 1,5 °C 48 % 92 % 1017,1 hPa 0,0 l/m² 0,1 km/h (0 Bft) W-SW 239 ° 0 min 0 W/m² 0,3 °C 1,5 °C 1,6 km/h (1 Bft)
06.12.2023 23:45 21,6 °C 1,4 °C 48 % 92 % 1017,1 hPa 0,0 l/m² 0,3 km/h (0 Bft) W-SW 239 ° 0 min 0 W/m² 0,2 °C 1,4 °C 1,6 km/h (1 Bft)
06.12.2023 23:47 21,6 °C 1,5 °C 48 % 92 % 1017,1 hPa 0,0 l/m² 0,4 km/h (0 Bft) W-SW 240 ° 0 min 0 W/m² 0,3 °C 1,5 °C 1,6 km/h (1 Bft)
06.12.2023 23:49 21,6 °C 1,5 °C 48 % 92 % 1017,2 hPa 0,0 l/m² 0,5 km/h (0 Bft) N 360 ° 0 min 0 W/m² 0,3 °C 1,5 °C 1,6 km/h (1 Bft)
06.12.2023 23:50 21,6 °C 1,5 °C 48 % 92 % 1017,2 hPa 0,0 l/m² 0,4 km/h (0 Bft) N 5 ° 0 min 0 W/m² 0,3 °C 1,5 °C 1,6 km/h (1 Bft)
06.12.2023 23:51 21,6 °C 1,5 °C 48 % 92 % 1017,2 hPa 0,0 l/m² 0,2 km/h (0 Bft) N 5 ° 0 min 0 W/m² 0,3 °C 1,5 °C 1,6 km/h (1 Bft)
06.12.2023 23:52 21,6 °C 1,5 °C 48 % 92 % 1017,2 hPa 0,0 l/m² 0,2 km/h (0 Bft) N 5 ° 0 min 0 W/m² 0,3 °C 1,5 °C 1,6 km/h (1 Bft)
06.12.2023 23:53 21,6 °C 1,5 °C 48 % 92 % 1017,2 hPa 0,0 l/m² 0,2 km/h (0 Bft) N 5 ° 0 min 0 W/m² 0,3 °C 1,5 °C 1,6 km/h (1 Bft)
06.12.2023 23:54 21,6 °C 1,5 °C 48 % 92 % 1017,2 hPa 0,0 l/m² 0,7 km/h (0 Bft) N 5 ° 0 min 0 W/m² 0,3 °C 1,5 °C 1,6 km/h (1 Bft)
06.12.2023 23:56 21,6 °C 1,5 °C 48 % 92 % 1017,2 hPa 0,0 l/m² 0,0 km/h (0 Bft) N 5 ° 0 min 0 W/m² 0,3 °C 1,5 °C 0,0 km/h (0 Bft)
06.12.2023 23:58 21,6 °C 1,5 °C 48 % 92 % 1017,2 hPa 0,0 l/m² 0,5 km/h (0 Bft) N 5 ° 0 min 0 W/m² 0,3 °C 1,5 °C 3,2 km/h (1 Bft)
06.12.2023 23:59 21,6 °C 1,5 °C 48 % 92 % 1017,2 hPa 0,0 l/m² 1,0 km/h (0 Bft) N 5 ° 0 min 0 W/m² 0,3 °C 1,5 °C 3,2 km/h (1 Bft)
_ Min-Zeit 07:31 20:10 20:54 18:06 01:53 - 23:56 - - - - 18:06 14:04 23:56
Minimum _ 21,4 °C 1,0 °C 44 % 90 % 1008,4 hPa - 0,0 km/h (0 Bft) - - - - -0,2 °C -4,3 °C 0,0 km/h (0 Bft)
_ Max-Zeit 22:22 13:36 23:59 10:45 23:59 14:22 14:04 - - 14:40 12:57 12:55 13:21 14:04
Maximum _ 21,9 °C 2,4 °C 48 % 94 % 1017,2 hPa 0,2 l/m² 15,0 km/h
SW (3 Bft)
- - 2 min 116 W/m² 1,3 °C 2,4 °C 22,5 km/h
SW (4 Bft)
Durchschnitt _ 21,7 °C 1,8 °C 47 % 92 % 1011,9 hPa #5,0 l/m² 3,5 km/h (1 Bft) SW - #5:29 h 20 W/m² 0,7 °C 1,3 °C 5,4 km/h (2 Bft)
© 2009 Mathias Hoßbach